Time,TemperatureF,DewpointF,PressureIn,WindDirection,WindDirectionDegrees,WindSpeedMPH,WindSpeedGustMPH,Humidity,HourlyPrecipIn,Conditions,Clouds,dailyrainin,SoftwareType,DateUTC
2013-12-26 00:00:00,23.4,16.4,30.22,SE,142,0.0,0.0,74,0.00,,OVC065,0.00,VWS V14.01,2013-12-26 05:00:00,
2013-12-26 00:01:00,23.3,16.2,30.23,SE,141,0.0,0.0,74,0.00,,OVC065,0.00,VWS V14.01,2013-12-26 05:01:00,
2013-12-26 00:02:00,23.4,16.4,30.22,SE,142,0.0,0.0,74,0.00,,OVC065,0.00,VWS V14.01,2013-12-26 05:02:00,
2013-12-26 00:03:00,23.4,16.4,30.22,SE,142,0.0,0.0,74,0.00,,OVC065,0.00,VWS V14.01,2013-12-26 05:03:00,
2013-12-26 00:04:00,23.4,16.4,30.22,SE,142,0.0,0.0,74,0.00,,OVC065,0.00,VWS V14.01,2013-12-26 05:04:00,
2013-12-26 00:05:00,23.4,16.4,30.22,SE,141,0.0,0.0,74,0.00,,OVC065,0.00,VWS V14.01,2013-12-26 05:05:00,
2013-12-26 00:06:00,23.4,16.4,30.23,SE,142,0.0,0.0,74,0.00,,OVC065,0.00,VWS V14.01,2013-12-26 05:06:00,
2013-12-26 00:07:00,23.4,16.4,30.22,SE,142,0.0,0.0,74,0.00,,OVC065,0.00,VWS V14.01,2013-12-26 05:07:00,
2013-12-26 00:08:00,23.4,16.4,30.22,SE,141,0.0,0.0,74,0.00,,OVC065,0.00,VWS V14.01,2013-12-26 05:08:00,
2013-12-26 00:09:00,23.4,16.4,30.22,SE,141,0.0,0.0,74,0.00,,OVC065,0.00,VWS V14.01,2013-12-26 05:09:00,
2013-12-26 00:10:00,23.4,16.7,30.22,SE,141,0.0,0.0,75,0.00,,OVC065,0.00,VWS V14.01,2013-12-26 05:10:00,
2013-12-26 00:11:00,23.4,16.4,30.22,SE,141,0.0,0.0,74,0.00,,OVC065,0.00,VWS V14.01,2013-12-26 05:11:00,
2013-12-26 00:12:00,23.4,16.7,30.22,SE,142,0.0,0.0,75,0.00,,OVC065,0.00,VWS V14.01,2013-12-26 05:12:00,
2013-12-26 00:13:00,23.5,16.8,30.22,SE,142,0.0,0.0,75,0.00,,OVC065,0.00,VWS V14.01,2013-12-26 05:13:00,
2013-12-26 00:14:00,23.4,16.7,30.20,SE,142,0.0,0.0,75,0.00,,OVC065,0.00,VWS V14.01,2013-12-26 05:14:00,
2013-12-26 00:15:00,23.5,16.8,30.20,SE,142,0.0,0.0,75,0.00,,OVC065,0.00,VWS V14.01,2013-12-26 05:15:00,
2013-12-26 00:16:00,23.4,16.4,30.22,SE,142,0.0,0.0,74,0.00,,OVC065,0.00,VWS V14.01,2013-12-26 05:16:00,
2013-12-26 00:17:00,23.4,16.7,30.20,SE,141,0.0,0.0,75,0.00,,OVC065,0.00,VWS V14.01,2013-12-26 05:17:00,
2013-12-26 00:18:00,23.4,16.7,30.20,SE,141,0.0,0.0,75,0.00,,OVC065,0.00,VWS V14.01,2013-12-26 05:18:00,
2013-12-26 00:19:00,23.4,16.7,30.20,SE,142,0.0,0.0,75,0.00,,OVC065,0.00,VWS V14.01,2013-12-26 05:19:00,
2013-12-26 00:20:00,23.4,17.0,30.20,SE,142,0.0,0.0,76,0.00,,OVC065,0.00,VWS V14.01,2013-12-26 05:20:00,
2013-12-26 00:21:00,23.4,16.7,30.22,SE,141,0.0,0.0,75,0.00,,OVC065,0.00,VWS V14.01,2013-12-26 05:21:00,
2013-12-26 00:22:00,23.4,17.0,30.20,SE,141,0.0,0.0,76,0.00,,OVC065,0.00,VWS V14.01,2013-12-26 05:22:00,
2013-12-26 00:23:00,23.4,17.0,30.20,SE,141,0.0,0.0,76,0.00,,OVC050,0.00,VWS V14.01,2013-12-26 05:23:00,
2013-12-26 00:24:00,23.4,17.0,30.20,SE,142,0.0,0.0,76,0.00,,OVC050,0.00,VWS V14.01,2013-12-26 05:24:00,
2013-12-26 00:25:00,23.4,17.0,30.20,SE,142,0.0,0.0,76,0.00,,OVC050,0.00,VWS V14.01,2013-12-26 05:25:00,
2013-12-26 00:26:00,23.4,16.7,30.20,SE,141,0.0,0.0,75,0.00,,OVC065,0.00,VWS V14.01,2013-12-26 05:26:00,
2013-12-26 00:27:00,23.4,17.0,30.20,SE,142,0.0,0.0,76,0.00,,OVC050,0.00,VWS V14.01,2013-12-26 05:27:00,
2013-12-26 00:28:00,23.4,17.0,30.20,SE,141,0.0,0.0,76,0.00,,OVC050,0.00,VWS V14.01,2013-12-26 05:28:00,
2013-12-26 00:29:00,23.4,17.0,30.19,SE,141,0.0,0.0,76,0.00,,OVC050,0.00,VWS V14.01,2013-12-26 05:29:00,
2013-12-26 00:30:00,23.4,17.0,30.19,SE,142,0.0,0.0,76,0.00,,OVC050,0.00,VWS V14.01,2013-12-26 05:30:00,
2013-12-26 00:31:00,23.4,17.0,30.20,SE,142,0.0,0.0,76,0.00,,OVC065,0.00,VWS V14.01,2013-12-26 05:31:00,
2013-12-26 00:32:00,23.4,17.0,30.19,SE,142,0.0,0.0,76,0.00,,OVC050,0.00,VWS V14.01,2013-12-26 05:32:00,
2013-12-26 00:33:00,23.3,16.9,30.19,SE,142,0.0,0.0,76,0.00,,OVC050,0.00,VWS V14.01,2013-12-26 05:33:00,
2013-12-26 00:34:00,23.3,16.9,30.19,SE,142,0.0,0.0,76,0.00,,OVC050,0.00,VWS V14.01,2013-12-26 05:34:00,
2013-12-26 00:35:00,23.3,16.9,30.19,SE,141,0.0,1.0,76,0.00,,OVC050,0.00,VWS V14.01,2013-12-26 05:35:00,
2013-12-26 00:36:00,23.3,16.9,30.19,SE,141,0.0,1.0,76,0.00,,OVC050,0.00,VWS V14.01,2013-12-26 05:36:00,
2013-12-26 00:37:00,23.4,17.0,30.20,SE,142,0.0,0.0,76,0.00,,OVC050,0.00,VWS V14.01,2013-12-26 05:37:00,
2013-12-26 00:38:00,23.3,16.9,30.19,SE,142,0.0,1.0,76,0.00,,OVC050,0.00,VWS V14.01,2013-12-26 05:38:00,
2013-12-26 00:39:00,23.3,16.9,30.19,SE,142,0.0,1.0,76,0.00,,OVC050,0.00,VWS V14.01,2013-12-26 05:39:00,
2013-12-26 00:40:00,23.3,16.9,30.19,SE,142,0.0,0.0,76,0.00,,OVC050,0.00,VWS V14.01,2013-12-26 05:40:00,
2013-12-26 00:41:00,23.3,16.9,30.19,SE,141,0.0,0.0,76,0.00,,OVC050,0.00,VWS V14.01,2013-12-26 05:41:00,
2013-12-26 00:42:00,23.3,16.9,30.19,SE,142,0.0,0.0,76,0.00,,OVC050,0.00,VWS V14.01,2013-12-26 05:42:00,
2013-12-26 00:43:00,23.4,17.0,30.19,SE,142,0.0,0.0,76,0.00,,OVC050,0.00,VWS V14.01,2013-12-26 05:43:00,
2013-12-26 00:44:00,23.4,17.0,30.19,SE,141,0.0,0.0,76,0.00,,OVC050,0.00,VWS V14.01,2013-12-26 05:44:00,
2013-12-26 00:45:00,23.4,16.7,30.19,SE,141,0.0,0.0,75,0.00,,OVC050,0.00,VWS V14.01,2013-12-26 05:45:00,
2013-12-26 00:46:00,23.4,16.7,30.19,SE,141,0.0,0.0,75,0.00,,OVC050,0.00,VWS V14.01,2013-12-26 05:46:00,
2013-12-26 00:47:00,23.3,16.9,30.19,SE,141,0.0,1.0,76,0.00,,OVC050,0.00,VWS V14.01,2013-12-26 05:47:00,
2013-12-26 00:48:00,23.4,16.7,30.19,SE,142,0.0,0.0,75,0.00,,OVC050,0.00,VWS V14.01,2013-12-26 05:48:00,
2013-12-26 00:49:00,23.4,16.7,30.19,SE,142,0.0,0.0,75,0.00,,OVC050,0.00,VWS V14.01,2013-12-26 05:49:00,
2013-12-26 00:50:00,23.4,16.7,30.19,SE,142,0.0,0.0,75,0.00,,OVC050,0.00,VWS V14.01,2013-12-26 05:50:00,
2013-12-26 00:51:00,23.5,16.8,30.19,SE,141,0.0,0.0,75,0.00,,OVC050,0.00,VWS V14.01,2013-12-26 05:51:00,
2013-12-26 00:52:00,23.4,17.0,30.19,SE,142,0.0,0.0,76,0.00,,OVC050,0.00,VWS V14.01,2013-12-26 05:52:00,
2013-12-26 00:53:00,23.5,17.1,30.19,SE,142,0.0,0.0,76,0.00,,OVC050,0.00,VWS V14.01,2013-12-26 05:53:00,
2013-12-26 00:54:00,23.5,17.1,30.19,SE,141,0.0,0.0,76,0.00,,OVC050,0.00,VWS V14.01,2013-12-26 05:54:00,
2013-12-26 00:55:00,23.5,17.1,30.19,SE,141,0.0,0.0,76,0.00,,OVC050,0.00,VWS V14.01,2013-12-26 05:55:00,
2013-12-26 00:56:00,23.5,17.1,30.19,SE,142,0.0,0.0,76,0.00,,OVC050,0.00,VWS V14.01,2013-12-26 05:56:00,
2013-12-26 00:57:00,23.4,16.7,30.19,SE,142,0.0,0.0,75,0.00,,OVC050,0.00,VWS V14.01,2013-12-26 05:57:00,
2013-12-26 00:58:00,23.5,17.1,30.19,SE,142,0.0,0.0,76,0.00,,OVC050,0.00,VWS V14.01,2013-12-26 05:58:00,
2013-12-26 00:59:00,23.5,17.1,30.18,SE,142,0.0,0.0,76,0.00,,OVC050,0.00,VWS V14.01,2013-12-26 05:59:00,
2013-12-26 01:00:00,23.5,17.1,30.18,SE,142,0.0,0.0,76,0.00,,OVC050,0.00,VWS V14.01,2013-12-26 06:00:00,
2013-12-26 01:01:00,23.5,17.1,30.18,SE,142,0.0,0.0,76,0.00,,OVC050,0.00,VWS V14.01,2013-12-26 06:01:00,
2013-12-26 01:02:00,23.5,17.1,30.19,SE,142,0.0,0.0,76,0.00,,OVC050,0.00,VWS V14.01,2013-12-26 06:02:00,
2013-12-26 01:03:00,23.5,17.1,30.18,SE,142,0.0,0.0,76,0.00,,OVC050,0.00,VWS V14.01,2013-12-26 06:03:00,
2013-12-26 01:04:00,23.5,17.1,30.18,SE,141,0.0,0.0,76,0.00,,OVC050,0.00,VWS V14.01,2013-12-26 06:04:00,
2013-12-26 01:05:00,23.6,17.2,30.18,SE,142,0.0,0.0,76,0.00,,OVC050,0.00,VWS V14.01,2013-12-26 06:05:00,
2013-12-26 01:06:00,23.6,17.2,30.18,SE,142,0.0,0.0,76,0.00,,OVC050,0.00,VWS V14.01,2013-12-26 06:06:00,
2013-12-26 01:07:00,23.5,17.1,30.19,SE,142,0.0,0.0,76,0.00,,OVC050,0.00,VWS V14.01,2013-12-26 06:07:00,
2013-12-26 01:08:00,23.6,17.2,30.18,SE,142,0.0,0.0,76,0.00,,OVC050,0.00,VWS V14.01,2013-12-26 06:08:00,
2013-12-26 01:09:00,23.6,17.2,30.18,SE,141,0.0,0.0,76,0.00,,OVC050,0.00,VWS V14.01,2013-12-26 06:09:00,
2013-12-26 01:10:00,23.6,17.2,30.18,SE,141,0.0,0.0,76,0.00,,OVC050,0.00,VWS V14.01,2013-12-26 06:10:00,
2013-12-26 01:11:00,23.6,17.2,30.18,SE,142,0.0,0.0,76,0.00,,OVC050,0.00,VWS V14.01,2013-12-26 06:11:00,
2013-12-26 01:12:00,23.5,17.1,30.18,SE,142,0.0,0.0,76,0.00,,OVC050,0.00,VWS V14.01,2013-12-26 06:12:00,
2013-12-26 01:13:00,23.6,17.2,30.18,SE,142,0.0,1.0,76,0.00,,OVC050,0.00,VWS V14.01,2013-12-26 06:13:00,
2013-12-26 01:14:00,23.6,17.2,30.18,SE,142,0.0,1.0,76,0.00,,OVC050,0.00,VWS V14.01,2013-12-26 06:14:00,
2013-12-26 01:15:00,23.6,17.2,30.18,SE,141,0.0,1.0,76,0.00,,OVC050,0.00,VWS V14.01,2013-12-26 06:15:00,
2013-12-26 01:16:00,23.6,17.2,30.18,SE,142,0.0,1.0,76,0.00,,OVC050,0.00,VWS V14.01,2013-12-26 06:16:00,
2013-12-26 01:17:00,23.6,17.2,30.18,SE,142,0.0,0.0,76,0.00,,OVC050,0.00,VWS V14.01,2013-12-26 06:17:00,
2013-12-26 01:18:00,23.6,17.2,30.18,SE,142,0.0,1.0,76,0.00,,OVC050,0.00,VWS V14.01,2013-12-26 06:18:00,
2013-12-26 01:19:00,23.6,17.2,30.18,SE,142,0.0,1.0,76,0.00,,OVC050,0.00,VWS V14.01,2013-12-26 06:19:00,
2013-12-26 01:20:00,23.6,17.2,30.18,SE,141,0.0,0.0,76,0.00,,OVC050,0.00,VWS V14.01,2013-12-26 06:20:00,
2013-12-26 01:21:00,23.6,17.5,30.18,SE,141,0.0,0.0,77,0.00,,OVC050,0.00,VWS V14.01,2013-12-26 06:21:00,
2013-12-26 01:22:00,23.6,17.2,30.18,SE,142,0.0,1.0,76,0.00,,OVC050,0.00,VWS V14.01,2013-12-26 06:22:00,
2013-12-26 01:23:00,23.6,17.5,30.18,SE,141,0.0,0.0,77,0.00,,OVC070,0.00,VWS V14.01,2013-12-26 06:23:00,
2013-12-26 01:24:00,23.6,17.5,30.18,SE,142,0.0,0.0,77,0.00,,OVC070,0.00,VWS V14.01,2013-12-26 06:24:00,
2013-12-26 01:25:00,23.6,17.5,30.18,SE,142,1.0,1.0,77,0.00,,OVC070,0.00,VWS V14.01,2013-12-26 06:25:00,
2013-12-26 01:26:00,23.7,17.6,30.18,SE,142,0.0,1.0,77,0.00,,OVC070,0.00,VWS V14.01,2013-12-26 06:26:00,
2013-12-26 01:27:00,23.6,17.2,30.18,SE,142,0.0,1.0,76,0.00,,OVC050,0.00,VWS V14.01,2013-12-26 06:27:00,
2013-12-26 01:28:00,23.6,17.5,30.18,SE,142,0.0,1.0,77,0.00,,OVC070,0.00,VWS V14.01,2013-12-26 06:28:00,
2013-12-26 01:29:00,23.6,17.8,30.17,SE,142,0.0,1.0,78,0.00,,OVC070,0.00,VWS V14.01,2013-12-26 06:29:00,
2013-12-26 01:30:00,23.6,17.8,30.17,SE,141,0.0,0.0,78,0.00,,OVC070,0.00,VWS V14.01,2013-12-26 06:30:00,
2013-12-26 01:31:00,23.6,17.8,30.17,SE,141,0.0,1.0,78,0.00,,OVC070,0.00,VWS V14.01,2013-12-26 06:31:00,
2013-12-26 01:32:00,23.6,17.5,30.18,SE,142,0.0,0.0,77,0.00,,OVC070,0.00,VWS V14.01,2013-12-26 06:32:00,
2013-12-26 01:33:00,23.6,17.8,30.17,SE,141,0.0,1.0,78,0.00,,OVC070,0.00,VWS V14.01,2013-12-26 06:33:00,
2013-12-26 01:34:00,23.6,17.8,30.17,SE,142,0.0,1.0,78,0.00,,OVC070,0.00,VWS V14.01,2013-12-26 06:34:00,
2013-12-26 01:35:00,23.6,17.8,30.17,SE,142,0.0,1.0,78,0.00,,OVC070,0.00,VWS V14.01,2013-12-26 06:35:00,
2013-12-26 01:36:00,23.6,17.8,30.17,SE,142,0.0,1.0,78,0.00,,OVC070,0.00,VWS V14.01,2013-12-26 06:36:00,
2013-12-26 01:37:00,23.6,17.5,30.18,SE,142,0.0,1.0,77,0.00,,OVC070,0.00,VWS V14.01,2013-12-26 06:37:00,
2013-12-26 01:38:00,23.6,17.8,30.17,SE,141,0.0,1.0,78,0.00,,OVC070,0.00,VWS V14.01,2013-12-26 06:38:00,
2013-12-26 01:39:00,23.6,17.8,30.17,SE,141,0.0,1.0,78,0.00,,OVC070,0.00,VWS V14.01,2013-12-26 06:39:00,
2013-12-26 01:40:00,23.6,18.1,30.17,SE,142,0.0,0.0,79,0.00,,OVC070,0.00,VWS V14.01,2013-12-26 06:40:00,
2013-12-26 01:41:00,23.6,18.1,30.17,SE,142,0.0,0.0,79,0.00,,OVC070,0.00,VWS V14.01,2013-12-26 06:41:00,
2013-12-26 01:42:00,23.6,17.8,30.17,SE,142,0.0,1.0,78,0.00,,OVC070,0.00,VWS V14.01,2013-12-26 06:42:00,
2013-12-26 01:43:00,23.6,18.1,30.17,SE,141,0.0,0.0,79,0.00,,OVC070,0.00,VWS V14.01,2013-12-26 06:43:00,
2013-12-26 01:44:00,23.6,18.1,30.17,SE,142,0.0,0.0,79,0.00,,OVC070,0.00,VWS V14.01,2013-12-26 06:44:00,
2013-12-26 01:45:00,23.6,18.1,30.17,SE,141,0.0,0.0,79,0.00,,OVC070,0.00,VWS V14.01,2013-12-26 06:45:00,
2013-12-26 01:46:00,23.6,18.1,30.17,SE,142,0.0,0.0,79,0.00,,OVC070,0.00,VWS V14.01,2013-12-26 06:46:00,
2013-12-26 01:47:00,23.6,17.8,30.17,SE,142,0.0,1.0,78,0.00,,OVC070,0.00,VWS V14.01,2013-12-26 06:47:00,
2013-12-26 01:48:00,23.6,18.1,30.17,SE,142,0.0,0.0,79,0.00,,OVC070,0.00,VWS V14.01,2013-12-26 06:48:00,
2013-12-26 01:49:00,23.6,18.1,30.17,SE,142,0.0,0.0,79,0.00,,OVC070,0.00,VWS V14.01,2013-12-26 06:49:00,
2013-12-26 01:50:00,23.6,18.1,30.17,SE,141,0.0,0.0,79,0.00,,OVC070,0.00,VWS V14.01,2013-12-26 06:50:00,
2013-12-26 01:51:00,23.6,18.1,30.17,SE,141,0.0,0.0,79,0.00,,OVC070,0.00,VWS V14.01,2013-12-26 06:51:00,
2013-12-26 01:52:00,23.6,18.1,30.17,SE,141,0.0,0.0,79,0.00,,OVC070,0.00,VWS V14.01,2013-12-26 06:52:00,
2013-12-26 01:53:00,23.5,18.0,30.17,SE,142,0.0,0.0,79,0.00,,OVC070,0.00,VWS V14.01,2013-12-26 06:53:00,
2013-12-26 01:54:00,23.5,18.0,30.17,SE,142,0.0,0.0,79,0.00,,OVC070,0.00,VWS V14.01,2013-12-26 06:54:00,
2013-12-26 01:55:00,23.5,18.0,30.17,SE,141,0.0,0.0,79,0.00,,OVC070,0.00,VWS V14.01,2013-12-26 06:55:00,
2013-12-26 01:56:00,23.5,18.0,30.17,SE,142,0.0,0.0,79,0.00,,OVC070,0.00,VWS V14.01,2013-12-26 06:56:00,
2013-12-26 01:57:00,23.6,18.1,30.17,SE,142,0.0,0.0,79,0.00,,OVC070,0.00,VWS V14.01,2013-12-26 06:57:00,
2013-12-26 01:58:00,23.5,18.2,30.17,SE,142,0.0,0.0,80,0.00,,OVC070,0.00,VWS V14.01,2013-12-26 06:58:00,
2013-12-26 01:59:00,23.5,18.2,30.17,SE,142,0.0,0.0,80,0.00,,OVC070,0.00,VWS V14.01,2013-12-26 06:59:00,
2013-12-26 02:00:00,23.5,18.2,30.17,SE,141,0.0,0.0,80,0.00,,OVC070,0.00,VWS V14.01,2013-12-26 07:00:00,
2013-12-26 02:01:00,23.5,18.2,30.17,SE,141,0.0,0.0,80,0.00,,OVC070,0.00,VWS V14.01,2013-12-26 07:01:00,
2013-12-26 02:02:00,23.6,18.1,30.17,SE,141,0.0,0.0,79,0.00,,OVC070,0.00,VWS V14.01,2013-12-26 07:02:00,
2013-12-26 02:03:00,23.5,18.2,30.17,SE,141,0.0,0.0,80,0.00,,OVC070,0.00,VWS V14.01,2013-12-26 07:03:00,
2013-12-26 02:04:00,23.5,18.2,30.17,SE,141,0.0,0.0,80,0.00,,OVC070,0.00,VWS V14.01,2013-12-26 07:04:00,
2013-12-26 02:05:00,23.5,18.2,30.17,SE,142,0.0,0.0,80,0.00,,OVC070,0.00,VWS V14.01,2013-12-26 07:05:00,
2013-12-26 02:06:00,23.5,18.2,30.17,SE,142,0.0,0.0,80,0.00,,OVC070,0.00,VWS V14.01,2013-12-26 07:06:00,
2013-12-26 02:07:00,23.5,18.2,30.17,SE,142,0.0,0.0,80,0.00,,OVC070,0.00,VWS V14.01,2013-12-26 07:07:00,
2013-12-26 02:08:00,23.5,18.2,30.17,SE,142,0.0,0.0,80,0.00,,OVC070,0.00,VWS V14.01,2013-12-26 07:08:00,
2013-12-26 02:09:00,23.5,18.2,30.17,SE,141,0.0,0.0,80,0.00,,OVC070,0.00,VWS V14.01,2013-12-26 07:09:00,
2013-12-26 02:10:00,23.5,18.2,30.17,SE,142,0.0,0.0,80,0.00,,OVC070,0.00,VWS V14.01,2013-12-26 07:10:00,
2013-12-26 02:11:00,23.5,18.2,30.17,SE,141,0.0,0.0,80,0.00,,OVC070,0.00,VWS V14.01,2013-12-26 07:11:00,
2013-12-26 02:12:00,23.5,18.2,30.17,SE,142,0.0,0.0,80,0.00,,OVC070,0.00,VWS V14.01,2013-12-26 07:12:00,
2013-12-26 02:13:00,23.6,18.4,30.17,SE,142,0.0,0.0,80,0.00,,OVC070,0.00,VWS V14.01,2013-12-26 07:13:00,
2013-12-26 02:14:00,23.5,18.2,30.17,SE,142,0.0,0.0,80,0.00,,OVC070,0.00,VWS V14.01,2013-12-26 07:14:00,
2013-12-26 02:15:00,23.5,18.2,30.17,SE,142,0.0,0.0,80,0.00,,OVC070,0.00,VWS V14.01,2013-12-26 07:15:00,
2013-12-26 02:16:00,23.5,18.2,30.17,SE,141,0.0,0.0,80,0.00,,OVC070,0.00,VWS V14.01,2013-12-26 07:16:00,
2013-12-26 02:17:00,23.5,18.2,30.17,SE,142,0.0,0.0,80,0.00,,OVC070,0.00,VWS V14.01,2013-12-26 07:17:00,
2013-12-26 02:18:00,23.5,18.2,30.17,SE,141,0.0,0.0,80,0.00,,OVC070,0.00,VWS V14.01,2013-12-26 07:18:00,
2013-12-26 02:19:00,23.6,18.4,30.17,SE,141,0.0,0.0,80,0.00,,OVC070,0.00,VWS V14.01,2013-12-26 07:19:00,
2013-12-26 02:20:00,23.6,18.6,30.17,SE,141,0.0,0.0,81,0.00,,OVC070,0.00,VWS V14.01,2013-12-26 07:20:00,
2013-12-26 02:21:00,23.6,18.6,30.17,SE,142,0.0,0.0,81,0.00,,OVC070,0.00,VWS V14.01,2013-12-26 07:21:00,
2013-12-26 02:22:00,23.5,18.2,30.17,SE,142,0.0,0.0,80,0.00,,OVC070,0.00,VWS V14.01,2013-12-26 07:22:00,
2013-12-26 02:23:00,23.5,18.5,30.17,SE,142,0.0,0.0,81,0.00,,OVC070,0.00,VWS V14.01,2013-12-26 07:23:00,
2013-12-26 02:24:00,23.5,18.5,30.17,SE,142,0.0,0.0,81,0.00,,OVC070,0.00,VWS V14.01,2013-12-26 07:24:00,
2013-12-26 02:25:00,23.5,18.5,30.17,SE,142,0.0,0.0,81,0.00,,OVC070,0.00,VWS V14.01,2013-12-26 07:25:00,
2013-12-26 02:26:00,23.5,18.5,30.17,SE,142,0.0,0.0,81,0.00,,OVC070,0.00,VWS V14.01,2013-12-26 07:26:00,
2013-12-26 02:27:00,23.6,18.4,30.17,SE,142,0.0,0.0,80,0.00,,OVC070,0.00,VWS V14.01,2013-12-26 07:27:00,
2013-12-26 02:28:00,23.5,18.5,30.17,SE,142,0.0,0.0,81,0.00,,OVC070,0.00,VWS V14.01,2013-12-26 07:28:00,
2013-12-26 02:29:00,23.5,18.5,30.16,SE,142,0.0,0.0,81,0.00,,OVC070,0.00,VWS V14.01,2013-12-26 07:29:00,
2013-12-26 02:30:00,23.5,18.5,30.16,SE,141,0.0,0.0,81,0.00,,OVC070,0.00,VWS V14.01,2013-12-26 07:30:00,
2013-12-26 02:31:00,23.5,18.5,30.16,SE,141,0.0,0.0,81,0.00,,OVC070,0.00,VWS V14.01,2013-12-26 07:31:00,
2013-12-26 02:32:00,23.6,18.6,30.17,SE,141,0.0,0.0,81,0.00,,OVC070,0.00,VWS V14.01,2013-12-26 07:32:00,
2013-12-26 02:33:00,23.5,18.5,30.16,SE,141,0.0,0.0,81,0.00,,OVC070,0.00,VWS V14.01,2013-12-26 07:33:00,
2013-12-26 02:34:00,23.5,18.5,30.16,SE,142,0.0,0.0,81,0.00,,OVC070,0.00,VWS V14.01,2013-12-26 07:34:00,
2013-12-26 02:35:00,23.5,18.5,30.16,SE,142,0.0,0.0,81,0.00,,OVC070,0.00,VWS V14.01,2013-12-26 07:35:00,
2013-12-26 02:36:00,23.5,18.5,30.16,SE,142,0.0,0.0,81,0.00,,OVC070,0.00,VWS V14.01,2013-12-26 07:36:00,
2013-12-26 02:37:00,23.5,18.5,30.17,SE,142,0.0,0.0,81,0.00,,OVC070,0.00,VWS V14.01,2013-12-26 07:37:00,
2013-12-26 02:38:00,23.5,18.5,30.16,SE,141,0.0,0.0,81,0.00,,OVC070,0.00,VWS V14.01,2013-12-26 07:38:00,
2013-12-26 02:39:00,23.4,18.4,30.16,SE,142,0.0,0.0,81,0.00,,OVC070,0.00,VWS V14.01,2013-12-26 07:39:00,
2013-12-26 02:40:00,23.4,18.4,30.16,SE,141,0.0,0.0,81,0.00,,OVC070,0.00,VWS V14.01,2013-12-26 07:40:00,
2013-12-26 02:41:00,23.4,18.4,30.16,SE,142,0.0,0.0,81,0.00,,OVC070,0.00,VWS V14.01,2013-12-26 07:41:00,
2013-12-26 02:42:00,23.5,18.5,30.16,SE,141,0.0,0.0,81,0.00,,OVC070,0.00,VWS V14.01,2013-12-26 07:42:00,
2013-12-26 02:43:00,23.4,18.4,30.16,SE,142,0.0,0.0,81,0.00,,OVC070,0.00,VWS V14.01,2013-12-26 07:43:00,
2013-12-26 02:44:00,23.4,18.4,30.17,SE,141,0.0,0.0,81,0.00,,OVC070,0.00,VWS V14.01,2013-12-26 07:44:00,
2013-12-26 02:45:00,23.4,18.4,30.17,SE,141,0.0,0.0,81,0.00,,OVC070,0.00,VWS V14.01,2013-12-26 07:45:00,
2013-12-26 02:46:00,23.4,18.7,30.17,SE,142,0.0,0.0,82,0.00,,OVC070,0.00,VWS V14.01,2013-12-26 07:46:00,
2013-12-26 02:47:00,23.5,18.5,30.16,SE,142,0.0,0.0,81,0.00,,OVC070,0.00,VWS V14.01,2013-12-26 07:47:00,
2013-12-26 02:48:00,23.4,18.7,30.17,SE,142,0.0,0.0,82,0.00,,OVC070,0.00,VWS V14.01,2013-12-26 07:48:00,
2013-12-26 02:49:00,23.3,18.6,30.17,SE,142,0.0,0.0,82,0.00,,OVC070,0.00,VWS V14.01,2013-12-26 07:49:00,
2013-12-26 02:50:00,23.3,18.6,30.17,SE,141,0.0,0.0,82,0.00,,OVC070,0.00,VWS V14.01,2013-12-26 07:50:00,
2013-12-26 02:51:00,23.3,18.6,30.17,SE,142,0.0,0.0,82,0.00,,OVC070,0.00,VWS V14.01,2013-12-26 07:51:00,
2013-12-26 02:52:00,23.4,18.4,30.16,SE,142,0.0,0.0,81,0.00,,OVC070,0.00,VWS V14.01,2013-12-26 07:52:00,
2013-12-26 02:53:00,23.3,18.6,30.17,SE,142,0.0,0.0,82,0.00,,OVC070,0.00,VWS V14.01,2013-12-26 07:53:00,
2013-12-26 02:54:00,23.2,18.5,30.17,SE,141,0.0,0.0,82,0.00,,OVC070,0.00,VWS V14.01,2013-12-26 07:54:00,
2013-12-26 02:55:00,23.2,18.5,30.17,SE,142,0.0,0.0,82,0.00,,OVC070,0.00,VWS V14.01,2013-12-26 07:55:00,
2013-12-26 02:56:00,23.2,18.5,30.17,SE,142,0.0,0.0,82,0.00,,OVC070,0.00,VWS V14.01,2013-12-26 07:56:00,
2013-12-26 02:57:00,23.4,18.7,30.17,SE,141,0.0,0.0,82,0.00,,OVC070,0.00,VWS V14.01,2013-12-26 07:57:00,
2013-12-26 02:58:00,23.2,18.5,30.17,SE,142,0.0,0.0,82,0.00,,OVC070,0.00,VWS V14.01,2013-12-26 07:58:00,
2013-12-26 02:59:00,23.2,18.5,30.17,SE,142,0.0,0.0,82,0.00,,OVC070,0.00,VWS V14.01,2013-12-26 07:59:00,
2013-12-26 03:00:00,23.2,18.5,30.17,SE,142,0.0,0.0,82,0.00,,OVC070,0.00,VWS V14.01,2013-12-26 08:00:00,
2013-12-26 03:01:00,23.2,18.5,30.17,SE,142,0.0,0.0,82,0.00,,OVC070,0.00,VWS V14.01,2013-12-26 08:01:00,
2013-12-26 03:02:00,23.3,18.6,30.17,SE,142,0.0,0.0,82,0.00,,OVC070,0.00,VWS V14.01,2013-12-26 08:02:00,
2013-12-26 03:03:00,23.2,18.5,30.17,SE,142,0.0,0.0,82,0.00,,OVC070,0.00,VWS V14.01,2013-12-26 08:03:00,
2013-12-26 03:04:00,23.2,18.5,30.17,SE,142,0.0,0.0,82,0.00,,OVC070,0.00,VWS V14.01,2013-12-26 08:04:00,
2013-12-26 03:05:00,23.2,18.5,30.17,SE,142,0.0,0.0,82,0.00,,OVC070,0.00,VWS V14.01,2013-12-26 08:05:00,
2013-12-26 03:06:00,23.2,18.5,30.17,SE,141,0.0,0.0,82,0.00,,OVC070,0.00,VWS V14.01,2013-12-26 08:06:00,
2013-12-26 03:07:00,23.2,18.5,30.17,SE,142,0.0,0.0,82,0.00,,OVC070,0.00,VWS V14.01,2013-12-26 08:07:00,
2013-12-26 03:08:00,23.2,18.5,30.17,SE,141,0.0,0.0,82,0.00,,OVC070,0.00,VWS V14.01,2013-12-26 08:08:00,
2013-12-26 03:09:00,23.2,18.5,30.17,SE,142,0.0,0.0,82,0.00,,OVC070,0.00,VWS V14.01,2013-12-26 08:09:00,
2013-12-26 03:10:00,23.2,18.5,30.17,SE,142,0.0,0.0,82,0.00,,OVC070,0.00,VWS V14.01,2013-12-26 08:10:00,
2013-12-26 03:11:00,23.2,18.8,30.17,SE,141,0.0,0.0,83,0.00,,OVC070,0.00,VWS V14.01,2013-12-26 08:11:00,
2013-12-26 03:12:00,23.2,18.5,30.17,SE,141,0.0,0.0,82,0.00,,OVC070,0.00,VWS V14.01,2013-12-26 08:12:00,
2013-12-26 03:13:00,23.2,18.8,30.17,SE,141,0.0,0.0,83,0.00,,OVC070,0.00,VWS V14.01,2013-12-26 08:13:00,
2013-12-26 03:14:00,23.2,18.8,30.16,SE,142,0.0,0.0,83,0.00,,OVC070,0.00,VWS V14.01,2013-12-26 08:14:00,
2013-12-26 03:15:00,23.3,18.9,30.16,SE,142,0.0,0.0,83,0.00,,OVC070,0.00,VWS V14.01,2013-12-26 08:15:00,
2013-12-26 03:16:00,23.2,18.8,30.16,SE,142,0.0,1.0,83,0.00,,OVC070,0.00,VWS V14.01,2013-12-26 08:16:00,
2013-12-26 03:17:00,23.2,18.8,30.16,SE,142,0.0,1.0,83,0.00,,OVC070,0.00,VWS V14.01,2013-12-26 08:17:00,
2013-12-26 03:18:00,23.1,18.4,30.17,SE,142,0.0,0.0,82,0.00,,OVC070,0.00,VWS V14.01,2013-12-26 08:18:00,
2013-12-26 03:19:00,23.2,18.8,30.16,WSW,240,0.0,1.0,83,0.00,,OVC070,0.00,VWS V14.01,2013-12-26 08:19:00,
2013-12-26 03:20:00,23.2,18.8,30.16,WSW,240,0.0,0.0,83,0.00,,OVC070,0.00,VWS V14.01,2013-12-26 08:20:00,
2013-12-26 03:21:00,23.2,18.8,30.16,WSW,240,1.0,1.0,83,0.00,,OVC070,0.00,VWS V14.01,2013-12-26 08:21:00,
2013-12-26 03:22:00,23.1,18.7,30.16,WSW,240,0.0,1.0,83,0.00,,OVC070,0.00,VWS V14.01,2013-12-26 08:22:00,
2013-12-26 03:23:00,23.2,18.8,30.17,SE,141,0.0,0.0,83,0.00,,OVC070,0.00,VWS V14.01,2013-12-26 08:23:00,
2013-12-26 03:24:00,23.1,18.7,30.16,WSW,240,0.0,1.0,83,0.00,,,0.00,VWS V14.01,2013-12-26 08:24:00,
2013-12-26 03:25:00,23.1,18.7,30.16,WSW,240,1.0,1.0,83,0.00,,,0.00,VWS V14.01,2013-12-26 08:25:00,
2013-12-26 03:26:00,23.1,18.7,30.16,WSW,240,0.0,1.0,83,0.00,,,0.00,VWS V14.01,2013-12-26 08:26:00,
2013-12-26 03:27:00,23.1,18.7,30.16,WSW,240,0.0,1.0,83,0.00,,,0.00,VWS V14.01,2013-12-26 08:27:00,
2013-12-26 03:28:00,23.2,18.8,30.16,WSW,240,0.0,1.0,83,0.00,,OVC070,0.00,VWS V14.01,2013-12-26 08:28:00,
2013-12-26 03:29:00,23.1,18.7,30.16,WSW,240,0.0,1.0,83,0.00,,,0.00,VWS V14.01,2013-12-26 08:29:00,
2013-12-26 03:30:00,23.0,18.6,30.16,WSW,240,0.0,0.0,83,0.00,,,0.00,VWS V14.01,2013-12-26 08:30:00,
2013-12-26 03:31:00,23.1,18.7,30.16,WSW,240,0.0,0.0,83,0.00,,,0.00,VWS V14.01,2013-12-26 08:31:00,
2013-12-26 03:32:00,23.1,18.7,30.16,WSW,240,0.0,0.0,83,0.00,,,0.00,VWS V14.01,2013-12-26 08:32:00,
2013-12-26 03:33:00,23.1,18.7,30.16,WSW,240,0.0,1.0,83,0.00,,,0.00,VWS V14.01,2013-12-26 08:33:00,
2013-12-26 03:34:00,23.0,18.9,30.16,WSW,240,0.0,0.0,84,0.00,,,0.00,VWS V14.01,2013-12-26 08:34:00,
2013-12-26 03:35:00,23.0,18.9,30.16,WSW,240,0.0,0.0,84,0.00,,,0.00,VWS V14.01,2013-12-26 08:35:00,
2013-12-26 03:36:00,23.0,18.9,30.16,WSW,240,0.0,0.0,84,0.00,,,0.00,VWS V14.01,2013-12-26 08:36:00,
2013-12-26 03:37:00,23.0,18.9,30.16,WSW,240,0.0,0.0,84,0.00,,,0.00,VWS V14.01,2013-12-26 08:37:00,
2013-12-26 03:38:00,23.1,18.7,30.16,WSW,240,0.0,1.0,83,0.00,,,0.00,VWS V14.01,2013-12-26 08:38:00,
2013-12-26 03:39:00,22.9,18.8,30.16,WSW,240,0.0,0.0,84,0.00,,,0.00,VWS V14.01,2013-12-26 08:39:00,
2013-12-26 03:40:00,22.9,18.8,30.16,WSW,240,0.0,0.0,84,0.00,,,0.00,VWS V14.01,2013-12-26 08:40:00,
2013-12-26 03:41:00,22.9,18.8,30.16,WSW,240,0.0,0.0,84,0.00,,,0.00,VWS V14.01,2013-12-26 08:41:00,
2013-12-26 03:42:00,22.9,18.8,30.16,WSW,240,0.0,0.0,84,0.00,,,0.00,VWS V14.01,2013-12-26 08:42:00,
2013-12-26 03:43:00,23.0,18.9,30.16,WSW,240,0.0,0.0,84,0.00,,,0.00,VWS V14.01,2013-12-26 08:43:00,
2013-12-26 03:44:00,22.9,18.8,30.15,WSW,240,0.0,0.0,84,0.00,,,0.00,VWS V14.01,2013-12-26 08:44:00,
2013-12-26 03:45:00,22.8,18.7,30.15,WSW,240,0.0,0.0,84,0.00,,,0.00,VWS V14.01,2013-12-26 08:45:00,
2013-12-26 03:46:00,22.8,18.7,30.15,WSW,240,0.0,0.0,84,0.00,,,0.00,VWS V14.01,2013-12-26 08:46:00,
2013-12-26 03:47:00,22.8,18.7,30.15,WSW,240,0.0,0.0,84,0.00,,,0.00,VWS V14.01,2013-12-26 08:47:00,
2013-12-26 03:48:00,23.0,18.9,30.16,WSW,240,0.0,0.0,84,0.00,,,0.00,VWS V14.01,2013-12-26 08:48:00,
2013-12-26 03:49:00,22.7,18.6,30.15,WSW,240,0.0,0.0,84,0.00,,,0.00,VWS V14.01,2013-12-26 08:49:00,
2013-12-26 03:50:00,22.8,18.7,30.15,WSW,240,0.0,0.0,84,0.00,,,0.00,VWS V14.01,2013-12-26 08:50:00,
2013-12-26 03:51:00,22.8,19.0,30.15,WSW,240,0.0,0.0,85,0.00,,,0.00,VWS V14.01,2013-12-26 08:51:00,
2013-12-26 03:52:00,22.7,18.9,30.15,WSW,240,0.0,0.0,85,0.00,,,0.00,VWS V14.01,2013-12-26 08:52:00,
2013-12-26 03:53:00,22.9,18.8,30.16,WSW,240,0.0,0.0,84,0.00,,,0.00,VWS V14.01,2013-12-26 08:53:00,
2013-12-26 03:54:00,22.7,18.9,30.15,WSW,240,0.0,0.0,85,0.00,,,0.00,VWS V14.01,2013-12-26 08:54:00,
2013-12-26 03:55:00,22.6,18.8,30.15,WSW,240,0.0,0.0,85,0.00,,,0.00,VWS V14.01,2013-12-26 08:55:00,
2013-12-26 03:56:00,22.6,18.8,30.15,WSW,240,0.0,0.0,85,0.00,,,0.00,VWS V14.01,2013-12-26 08:56:00,
2013-12-26 03:57:00,22.6,18.8,30.15,WSW,240,0.0,0.0,85,0.00,,,0.00,VWS V14.01,2013-12-26 08:57:00,
2013-12-26 03:58:00,22.8,18.7,30.15,WSW,240,0.0,0.0,84,0.00,,,0.00,VWS V14.01,2013-12-26 08:58:00,
2013-12-26 03:59:00,22.5,18.7,30.15,WSW,240,0.0,0.0,85,0.00,,,0.00,VWS V14.01,2013-12-26 08:59:00,
2013-12-26 04:00:00,22.4,18.6,30.15,WSW,240,0.0,0.0,85,0.00,,,0.00,VWS V14.01,2013-12-26 09:00:00,
2013-12-26 04:01:00,22.4,18.6,30.15,WSW,240,0.0,0.0,85,0.00,,,0.00,VWS V14.01,2013-12-26 09:01:00,
2013-12-26 04:02:00,22.3,18.5,30.15,WSW,240,0.0,0.0,85,0.00,,,0.00,VWS V14.01,2013-12-26 09:02:00,
2013-12-26 04:03:00,22.7,18.6,30.15,WSW,240,0.0,0.0,84,0.00,,,0.00,VWS V14.01,2013-12-26 09:03:00,
2013-12-26 04:04:00,22.2,18.4,30.15,WSW,240,0.0,0.0,85,0.00,,,0.00,VWS V14.01,2013-12-26 09:04:00,
2013-12-26 04:05:00,22.2,18.4,30.15,WSW,240,0.0,0.0,85,0.00,,,0.00,VWS V14.01,2013-12-26 09:05:00,
2013-12-26 04:06:00,22.1,18.3,30.15,WSW,240,0.0,0.0,85,0.00,,,0.00,VWS V14.01,2013-12-26 09:06:00,
2013-12-26 04:07:00,22.1,18.3,30.15,WSW,240,0.0,0.0,85,0.00,,,0.00,VWS V14.01,2013-12-26 09:07:00,
2013-12-26 04:08:00,22.5,18.7,30.15,WSW,240,0.0,0.0,85,0.00,,,0.00,VWS V14.01,2013-12-26 09:08:00,
2013-12-26 04:09:00,22.0,18.2,30.15,WSW,240,0.0,0.0,85,0.00,,,0.00,VWS V14.01,2013-12-26 09:09:00,
2013-12-26 04:10:00,22.0,18.2,30.15,WSW,240,0.0,0.0,85,0.00,,,0.00,VWS V14.01,2013-12-26 09:10:00,
2013-12-26 04:11:00,22.0,18.5,30.15,WSW,240,0.0,0.0,86,0.00,,,0.00,VWS V14.01,2013-12-26 09:11:00,
2013-12-26 04:12:00,22.0,18.5,30.15,WSW,240,0.0,0.0,86,0.00,,,0.00,VWS V14.01,2013-12-26 09:12:00,
2013-12-26 04:13:00,22.2,18.4,30.15,WSW,240,0.0,0.0,85,0.00,,,0.00,VWS V14.01,2013-12-26 09:13:00,
2013-12-26 04:14:00,22.0,18.5,30.15,WSW,240,0.0,0.0,86,0.00,,,0.00,VWS V14.01,2013-12-26 09:14:00,
2013-12-26 04:15:00,21.9,18.4,30.15,WSW,240,0.0,0.0,86,0.00,,,0.00,VWS V14.01,2013-12-26 09:15:00,
2013-12-26 04:16:00,21.9,18.4,30.15,WSW,240,1.0,1.0,86,0.00,,,0.00,VWS V14.01,2013-12-26 09:16:00,
2013-12-26 04:17:00,21.9,18.4,30.15,WSW,240,0.0,1.0,86,0.00,,,0.00,VWS V14.01,2013-12-26 09:17:00,
2013-12-26 04:18:00,22.1,18.3,30.15,WSW,240,0.0,0.0,85,0.00,,,0.00,VWS V14.01,2013-12-26 09:18:00,
2013-12-26 04:19:00,21.8,18.3,30.15,WSW,240,0.0,1.0,86,0.00,,,0.00,VWS V14.01,2013-12-26 09:19:00,
2013-12-26 04:20:00,21.8,18.3,30.15,WSW,240,0.0,0.0,86,0.00,,,0.00,VWS V14.01,2013-12-26 09:20:00,
2013-12-26 04:21:00,21.8,18.3,30.15,WSW,240,0.0,0.0,86,0.00,,,0.00,VWS V14.01,2013-12-26 09:21:00,
2013-12-26 04:22:00,21.8,18.3,30.15,WSW,240,0.0,0.0,86,0.00,,,0.00,VWS V14.01,2013-12-26 09:22:00,
2013-12-26 04:23:00,22.0,18.5,30.15,WSW,240,0.0,0.0,86,0.00,,,0.00,VWS V14.01,2013-12-26 09:23:00,
2013-12-26 04:24:00,21.7,18.2,30.15,WSW,240,0.0,0.0,86,0.00,,,0.00,VWS V14.01,2013-12-26 09:24:00,
2013-12-26 04:25:00,21.7,18.2,30.15,WSW,240,0.0,0.0,86,0.00,,,0.00,VWS V14.01,2013-12-26 09:25:00,
2013-12-26 04:26:00,21.7,18.2,30.15,WSW,240,0.0,0.0,86,0.00,,,0.00,VWS V14.01,2013-12-26 09:26:00,
2013-12-26 04:27:00,21.7,18.2,30.15,WSW,240,0.0,0.0,86,0.00,,,0.00,VWS V14.01,2013-12-26 09:27:00,
2013-12-26 04:28:00,21.8,18.3,30.15,WSW,240,0.0,1.0,86,0.00,,,0.00,VWS V14.01,2013-12-26 09:28:00,
2013-12-26 04:29:00,21.7,18.2,30.15,WSW,240,0.0,0.0,86,0.00,,,0.00,VWS V14.01,2013-12-26 09:29:00,
2013-12-26 04:30:00,21.7,18.2,30.15,WSW,240,0.0,0.0,86,0.00,,,0.00,VWS V14.01,2013-12-26 09:30:00,
2013-12-26 04:31:00,21.7,18.2,30.15,WSW,240,0.0,0.0,86,0.00,,,0.00,VWS V14.01,2013-12-26 09:31:00,
2013-12-26 04:32:00,21.7,18.2,30.15,WSW,240,0.0,0.0,86,0.00,,,0.00,VWS V14.01,2013-12-26 09:32:00,
2013-12-26 04:33:00,21.7,18.2,30.15,WSW,240,0.0,0.0,86,0.00,,,0.00,VWS V14.01,2013-12-26 09:33:00,
2013-12-26 04:34:00,21.6,18.1,30.15,WSW,240,0.0,0.0,86,0.00,,,0.00,VWS V14.01,2013-12-26 09:34:00,
2013-12-26 04:35:00,21.6,18.1,30.15,WSW,240,0.0,0.0,86,0.00,,,0.00,VWS V14.01,2013-12-26 09:35:00,
2013-12-26 04:36:00,21.6,18.1,30.15,WSW,240,0.0,0.0,86,0.00,,,0.00,VWS V14.01,2013-12-26 09:36:00,
2013-12-26 04:37:00,21.6,18.1,30.15,WSW,240,0.0,0.0,86,0.00,,,0.00,VWS V14.01,2013-12-26 09:37:00,
2013-12-26 04:38:00,21.7,18.2,30.15,WSW,240,0.0,0.0,86,0.00,,,0.00,VWS V14.01,2013-12-26 09:38:00,
2013-12-26 04:39:00,21.6,18.1,30.15,WSW,240,0.0,0.0,86,0.00,,,0.00,VWS V14.01,2013-12-26 09:39:00,
2013-12-26 04:40:00,21.6,18.1,30.15,WSW,240,0.0,0.0,86,0.00,,,0.00,VWS V14.01,2013-12-26 09:40:00,
2013-12-26 04:41:00,21.6,18.1,30.15,WSW,240,0.0,0.0,86,0.00,,,0.00,VWS V14.01,2013-12-26 09:41:00,
2013-12-26 04:42:00,21.6,18.1,30.15,WSW,240,0.0,0.0,86,0.00,,,0.00,VWS V14.01,2013-12-26 09:42:00,
2013-12-26 04:43:00,21.6,18.1,30.15,WSW,240,0.0,0.0,86,0.00,,,0.00,VWS V14.01,2013-12-26 09:43:00,
2013-12-26 04:44:00,21.5,18.0,30.15,WSW,240,0.0,0.0,86,0.00,,,0.00,VWS V14.01,2013-12-26 09:44:00,
2013-12-26 04:45:00,21.5,18.0,30.15,WSW,240,0.0,0.0,86,0.00,,,0.00,VWS V14.01,2013-12-26 09:45:00,
2013-12-26 04:46:00,21.5,18.0,30.15,WSW,240,0.0,0.0,86,0.00,,,0.00,VWS V14.01,2013-12-26 09:46:00,
2013-12-26 04:47:00,21.5,18.0,30.15,WSW,240,0.0,0.0,86,0.00,,,0.00,VWS V14.01,2013-12-26 09:47:00,
2013-12-26 04:48:00,21.6,18.1,30.15,WSW,240,0.0,0.0,86,0.00,,,0.00,VWS V14.01,2013-12-26 09:48:00,
2013-12-26 04:49:00,21.5,18.0,30.15,WSW,240,0.0,0.0,86,0.00,,,0.00,VWS V14.01,2013-12-26 09:49:00,
2013-12-26 04:50:00,21.5,18.0,30.15,WSW,240,0.0,0.0,86,0.00,,,0.00,VWS V14.01,2013-12-26 09:50:00,
2013-12-26 04:51:00,21.5,18.0,30.15,WSW,240,0.0,0.0,86,0.00,,,0.00,VWS V14.01,2013-12-26 09:51:00,
2013-12-26 04:52:00,21.5,18.0,30.15,WSW,240,0.0,0.0,86,0.00,,,0.00,VWS V14.01,2013-12-26 09:52:00,
2013-12-26 04:53:00,21.5,18.0,30.15,WSW,240,0.0,0.0,86,0.00,,,0.00,VWS V14.01,2013-12-26 09:53:00,
2013-12-26 04:54:00,21.5,18.0,30.15,WSW,240,0.0,0.0,86,0.00,,,0.00,VWS V14.01,2013-12-26 09:54:00,
2013-12-26 04:55:00,21.5,18.0,30.15,WSW,240,0.0,0.0,86,0.00,,,0.00,VWS V14.01,2013-12-26 09:55:00,
2013-12-26 04:56:00,21.5,18.0,30.15,WSW,240,0.0,0.0,86,0.00,,,0.00,VWS V14.01,2013-12-26 09:56:00,
2013-12-26 04:57:00,21.5,18.0,30.15,WSW,240,0.0,0.0,86,0.00,,,0.00,VWS V14.01,2013-12-26 09:57:00,
2013-12-26 04:58:00,21.5,18.0,30.15,WSW,240,0.0,0.0,86,0.00,,,0.00,VWS V14.01,2013-12-26 09:58:00,
2013-12-26 04:59:00,21.5,17.7,30.15,WSW,240,0.0,0.0,85,0.00,,,0.00,VWS V14.01,2013-12-26 09:59:00,
2013-12-26 05:00:00,21.5,17.7,30.15,WSW,240,0.0,0.0,85,0.00,,,0.00,VWS V14.01,2013-12-26 10:00:00,
2013-12-26 05:01:00,21.5,17.7,30.15,WSW,240,0.0,0.0,85,0.00,,,0.00,VWS V14.01,2013-12-26 10:01:00,
2013-12-26 05:02:00,21.5,17.7,30.15,WSW,240,0.0,0.0,85,0.00,,,0.00,VWS V14.01,2013-12-26 10:02:00,
2013-12-26 05:03:00,21.5,18.0,30.15,WSW,240,0.0,0.0,86,0.00,,,0.00,VWS V14.01,2013-12-26 10:03:00,
2013-12-26 05:04:00,21.5,17.7,30.15,WSW,240,0.0,0.0,85,0.00,,,0.00,VWS V14.01,2013-12-26 10:04:00,
2013-12-26 05:05:00,21.5,17.7,30.15,WSW,240,0.0,0.0,85,0.00,,,0.00,VWS V14.01,2013-12-26 10:05:00,
2013-12-26 05:06:00,21.4,17.6,30.15,WSW,240,0.0,0.0,85,0.00,,,0.00,VWS V14.01,2013-12-26 10:06:00,
2013-12-26 05:07:00,21.4,17.6,30.15,WSW,240,0.0,0.0,85,0.00,,,0.00,VWS V14.01,2013-12-26 10:07:00,
2013-12-26 05:08:00,21.5,18.0,30.15,WSW,240,0.0,0.0,86,0.00,,,0.00,VWS V14.01,2013-12-26 10:08:00,
2013-12-26 05:09:00,21.4,17.6,30.15,WSW,240,0.0,0.0,85,0.00,,,0.00,VWS V14.01,2013-12-26 10:09:00,
2013-12-26 05:10:00,21.4,17.6,30.15,WSW,240,0.0,0.0,85,0.00,,,0.00,VWS V14.01,2013-12-26 10:10:00,
2013-12-26 05:11:00,21.4,17.6,30.15,WSW,240,0.0,0.0,85,0.00,,,0.00,VWS V14.01,2013-12-26 10:11:00,
2013-12-26 05:12:00,21.4,17.6,30.15,WSW,240,0.0,0.0,85,0.00,,,0.00,VWS V14.01,2013-12-26 10:12:00,
2013-12-26 05:13:00,21.5,17.7,30.15,WSW,240,0.0,0.0,85,0.00,,,0.00,VWS V14.01,2013-12-26 10:13:00,
2013-12-26 05:14:00,21.4,17.6,30.16,WSW,240,0.0,0.0,85,0.00,,,0.00,VWS V14.01,2013-12-26 10:14:00,
2013-12-26 05:15:00,21.4,17.6,30.16,WSW,240,0.0,0.0,85,0.00,,,0.00,VWS V14.01,2013-12-26 10:15:00,
2013-12-26 05:16:00,21.3,17.5,30.16,WSW,240,0.0,0.0,85,0.00,,,0.00,VWS V14.01,2013-12-26 10:16:00,
2013-12-26 05:17:00,21.4,17.6,30.16,WSW,240,0.0,0.0,85,0.00,,,0.00,VWS V14.01,2013-12-26 10:17:00,
2013-12-26 05:18:00,21.4,17.6,30.15,WSW,240,0.0,0.0,85,0.00,,,0.00,VWS V14.01,2013-12-26 10:18:00,
2013-12-26 05:19:00,21.3,17.2,30.16,WSW,240,0.0,0.0,84,0.00,,,0.00,VWS V14.01,2013-12-26 10:19:00,
2013-12-26 05:20:00,21.3,17.2,30.16,WSW,240,0.0,0.0,84,0.00,,,0.00,VWS V14.01,2013-12-26 10:20:00,
2013-12-26 05:21:00,21.3,17.5,30.16,WSW,240,0.0,0.0,85,0.00,,,0.00,VWS V14.01,2013-12-26 10:21:00,
2013-12-26 05:22:00,21.3,17.2,30.16,WSW,240,0.0,0.0,84,0.00,,,0.00,VWS V14.01,2013-12-26 10:22:00,
2013-12-26 05:23:00,21.4,17.6,30.16,WSW,240,0.0,0.0,85,0.00,,,0.00,VWS V14.01,2013-12-26 10:23:00,
2013-12-26 05:24:00,21.3,17.2,30.16,WSW,240,0.0,0.0,84,0.00,,,0.00,VWS V14.01,2013-12-26 10:24:00,
2013-12-26 05:25:00,21.3,17.2,30.16,WSW,240,0.0,0.0,84,0.00,,,0.00,VWS V14.01,2013-12-26 10:25:00,
2013-12-26 05:26:00,21.3,17.2,30.16,WSW,240,0.0,0.0,84,0.00,,,0.00,VWS V14.01,2013-12-26 10:26:00,
2013-12-26 05:27:00,21.3,17.2,30.16,WSW,240,0.0,0.0,84,0.00,,,0.00,VWS V14.01,2013-12-26 10:27:00,
2013-12-26 05:28:00,21.3,17.2,30.16,WSW,240,0.0,0.0,84,0.00,,,0.00,VWS V14.01,2013-12-26 10:28:00,
2013-12-26 05:29:00,21.3,17.2,30.15,WSW,240,0.0,0.0,84,0.00,,,0.00,VWS V14.01,2013-12-26 10:29:00,
2013-12-26 05:30:00,21.4,17.3,30.15,WSW,240,0.0,0.0,84,0.00,,,0.00,VWS V14.01,2013-12-26 10:30:00,
2013-12-26 05:31:00,21.3,17.2,30.15,WSW,240,0.0,0.0,84,0.00,,,0.00,VWS V14.01,2013-12-26 10:31:00,
2013-12-26 05:32:00,21.4,17.3,30.15,WSW,240,0.0,0.0,84,0.00,,,0.00,VWS V14.01,2013-12-26 10:32:00,
2013-12-26 05:33:00,21.3,17.2,30.16,WSW,240,0.0,0.0,84,0.00,,,0.00,VWS V14.01,2013-12-26 10:33:00,
2013-12-26 05:34:00,21.4,17.3,30.15,WSW,240,0.0,0.0,84,0.00,,,0.00,VWS V14.01,2013-12-26 10:34:00,
2013-12-26 05:35:00,21.4,17.3,30.15,WSW,240,0.0,0.0,84,0.00,,,0.00,VWS V14.01,2013-12-26 10:35:00,
2013-12-26 05:36:00,21.4,17.0,30.15,WSW,240,0.0,0.0,83,0.00,,,0.00,VWS V14.01,2013-12-26 10:36:00,
2013-12-26 05:37:00,21.4,17.0,30.15,WSW,240,0.0,0.0,83,0.00,,,0.00,VWS V14.01,2013-12-26 10:37:00,
2013-12-26 05:38:00,21.3,17.2,30.15,WSW,240,0.0,0.0,84,0.00,,,0.00,VWS V14.01,2013-12-26 10:38:00,
2013-12-26 05:39:00,21.4,17.0,30.15,WSW,240,0.0,0.0,83,0.00,,,0.00,VWS V14.01,2013-12-26 10:39:00,
2013-12-26 05:40:00,21.4,17.0,30.15,WSW,240,0.0,0.0,83,0.00,,,0.00,VWS V14.01,2013-12-26 10:40:00,
2013-12-26 05:41:00,21.4,17.0,30.15,WSW,240,0.0,0.0,83,0.00,,,0.00,VWS V14.01,2013-12-26 10:41:00,
2013-12-26 05:42:00,21.4,17.0,30.15,WSW,240,0.0,0.0,83,0.00,,,0.00,VWS V14.01,2013-12-26 10:42:00,
2013-12-26 05:43:00,21.3,17.2,30.15,WSW,240,0.0,0.0,84,0.00,,,0.00,VWS V14.01,2013-12-26 10:43:00,
2013-12-26 05:44:00,21.4,17.0,30.15,WSW,240,0.0,0.0,83,0.00,,,0.00,VWS V14.01,2013-12-26 10:44:00,
2013-12-26 05:45:00,21.4,17.0,30.15,WSW,240,0.0,0.0,83,0.00,,,0.00,VWS V14.01,2013-12-26 10:45:00,
2013-12-26 05:46:00,21.4,17.0,30.15,WSW,240,0.0,0.0,83,0.00,,,0.00,VWS V14.01,2013-12-26 10:46:00,
2013-12-26 05:47:00,21.4,17.0,30.15,WSW,240,0.0,0.0,83,0.00,,,0.00,VWS V14.01,2013-12-26 10:47:00,
2013-12-26 05:48:00,21.4,17.0,30.15,WSW,240,0.0,0.0,83,0.00,,,0.00,VWS V14.01,2013-12-26 10:48:00,
2013-12-26 05:49:00,21.4,17.0,30.15,WSW,240,0.0,0.0,83,0.00,,,0.00,VWS V14.01,2013-12-26 10:49:00,
2013-12-26 05:50:00,21.4,17.0,30.15,WSW,240,0.0,0.0,83,0.00,,,0.00,VWS V14.01,2013-12-26 10:50:00,
2013-12-26 05:51:00,21.4,17.0,30.15,WSW,240,0.0,0.0,83,0.00,,,0.00,VWS V14.01,2013-12-26 10:51:00,
2013-12-26 05:52:00,21.5,17.1,30.15,WSW,240,0.0,0.0,83,0.00,,,0.00,VWS V14.01,2013-12-26 10:52:00,
2013-12-26 05:53:00,21.4,17.0,30.15,WSW,240,0.0,0.0,83,0.00,,,0.00,VWS V14.01,2013-12-26 10:53:00,
2013-12-26 05:54:00,21.4,17.0,30.15,WSW,240,0.0,0.0,83,0.00,,,0.00,VWS V14.01,2013-12-26 10:54:00,
2013-12-26 05:55:00,21.5,16.9,30.15,WSW,240,0.0,0.0,82,0.00,,,0.00,VWS V14.01,2013-12-26 10:55:00,
2013-12-26 05:56:00,21.5,16.9,30.15,WSW,240,0.0,1.0,82,0.00,,,0.00,VWS V14.01,2013-12-26 10:56:00,
2013-12-26 05:57:00,21.5,16.9,30.15,WSW,240,0.0,1.0,82,0.00,,,0.00,VWS V14.01,2013-12-26 10:57:00,
2013-12-26 05:58:00,21.4,17.0,30.15,WSW,240,0.0,0.0,83,0.00,,,0.00,VWS V14.01,2013-12-26 10:58:00,
2013-12-26 05:59:00,21.5,16.9,30.14,WSW,240,1.0,2.0,82,0.00,,,0.00,VWS V14.01,2013-12-26 10:59:00,
2013-12-26 06:00:00,21.5,16.9,30.14,WSW,240,1.0,1.0,82,0.00,,,0.00,VWS V14.01,2013-12-26 11:00:00,
2013-12-26 06:01:00,21.5,16.9,30.14,WSW,240,0.0,2.0,82,0.00,,,0.00,VWS V14.01,2013-12-26 11:01:00,
2013-12-26 06:02:00,21.5,16.9,30.14,WSW,240,0.0,2.0,82,0.00,,,0.00,VWS V14.01,2013-12-26 11:02:00,
2013-12-26 06:03:00,21.4,17.0,30.15,WSW,240,0.0,0.0,83,0.00,,,0.00,VWS V14.01,2013-12-26 11:03:00,
2013-12-26 06:04:00,21.6,17.0,30.14,WSW,240,0.0,2.0,82,0.00,,,0.00,VWS V14.01,2013-12-26 11:04:00,
2013-12-26 06:05:00,21.6,17.0,30.14,WSW,239,1.0,2.0,82,0.00,,,0.00,VWS V14.01,2013-12-26 11:05:00,
2013-12-26 06:06:00,21.6,16.7,30.14,WSW,237,1.0,4.0,81,0.00,,,0.00,VWS V14.01,2013-12-26 11:06:00,
2013-12-26 06:07:00,21.7,16.8,30.14,WSW,237,0.0,4.0,81,0.00,,,0.00,VWS V14.01,2013-12-26 11:07:00,
2013-12-26 06:08:00,21.5,16.9,30.14,WSW,240,0.0,2.0,82,0.00,,,0.00,VWS V14.01,2013-12-26 11:08:00,
2013-12-26 06:09:00,21.9,17.0,30.14,SW,230,2.0,6.0,81,0.00,,,0.00,VWS V14.01,2013-12-26 11:09:00,
2013-12-26 06:10:00,22.0,17.1,30.14,SW,229,1.0,3.0,81,0.00,,,0.00,VWS V14.01,2013-12-26 11:10:00,
2013-12-26 06:11:00,22.1,17.2,30.14,WSW,237,2.0,4.0,81,0.00,,,0.00,VWS V14.01,2013-12-26 11:11:00,
2013-12-26 06:12:00,22.1,17.2,30.14,SSW,207,1.0,4.0,81,0.00,,,0.00,VWS V14.01,2013-12-26 11:12:00,
2013-12-26 06:13:00,21.5,16.9,30.14,WSW,240,0.0,2.0,82,0.00,,,0.00,VWS V14.01,2013-12-26 11:13:00,
2013-12-26 06:14:00,22.2,17.0,30.14,WSW,240,4.0,4.0,80,0.00,,,0.00,VWS V14.01,2013-12-26 11:14:00,
2013-12-26 06:15:00,22.4,17.2,30.14,WSW,242,3.0,4.0,80,0.00,,,0.00,VWS V14.01,2013-12-26 11:15:00,
2013-12-26 06:16:00,22.4,17.2,30.14,WSW,240,1.0,5.0,80,0.00,,,0.00,VWS V14.01,2013-12-26 11:16:00,
2013-12-26 06:17:00,22.5,17.3,30.14,WSW,238,1.0,5.0,80,0.00,,,0.00,VWS V14.01,2013-12-26 11:17:00,
2013-12-26 06:18:00,21.9,17.0,30.14,WSW,252,1.0,6.0,81,0.00,,,0.00,VWS V14.01,2013-12-26 11:18:00,
2013-12-26 06:19:00,22.5,17.3,30.14,WSW,238,1.0,5.0,80,0.00,,,0.00,VWS V14.01,2013-12-26 11:19:00,
2013-12-26 06:20:00,22.5,17.3,30.14,WSW,244,1.0,2.0,80,0.00,,,0.00,VWS V14.01,2013-12-26 11:20:00,
2013-12-26 06:21:00,22.6,17.4,30.14,WSW,240,3.0,5.0,80,0.00,,,0.00,VWS V14.01,2013-12-26 11:21:00,
2013-12-26 06:22:00,22.6,17.4,30.14,SW,225,1.0,5.0,80,0.00,,,0.00,VWS V14.01,2013-12-26 11:22:00,
2013-12-26 06:23:00,22.2,17.0,30.14,WSW,244,2.0,4.0,80,0.00,,,0.00,VWS V14.01,2013-12-26 11:23:00,
2013-12-26 06:24:00,22.7,17.2,30.14,SSW,194,2.0,6.0,79,0.00,,OVC050,0.00,VWS V14.01,2013-12-26 11:24:00,
2013-12-26 06:25:00,22.8,17.3,30.14,West,260,5.0,6.0,79,0.00,,OVC050,0.00,VWS V14.01,2013-12-26 11:25:00,
2013-12-26 06:26:00,22.8,17.3,30.14,SW,225,2.0,6.0,79,0.00,,OVC050,0.00,VWS V14.01,2013-12-26 11:26:00,
2013-12-26 06:27:00,22.8,17.3,30.14,SW,233,1.0,6.0,79,0.00,,OVC050,0.00,VWS V14.01,2013-12-26 11:27:00,
2013-12-26 06:28:00,22.5,17.3,30.14,WSW,243,4.0,5.0,80,0.00,,,0.00,VWS V14.01,2013-12-26 11:28:00,
2013-12-26 06:29:00,22.9,17.4,30.14,WSW,256,3.0,6.0,79,0.00,,OVC050,0.00,VWS V14.01,2013-12-26 11:29:00,
2013-12-26 06:30:00,22.9,17.4,30.14,WSW,246,2.0,3.0,79,0.00,,OVC050,0.00,VWS V14.01,2013-12-26 11:30:00,
2013-12-26 06:31:00,22.9,17.4,30.14,WSW,252,0.0,3.0,79,0.00,,OVC050,0.00,VWS V14.01,2013-12-26 11:31:00,
2013-12-26 06:32:00,23.0,17.5,30.14,SSW,204,2.0,4.0,79,0.00,,OVC050,0.00,VWS V14.01,2013-12-26 11:32:00,
2013-12-26 06:33:00,22.7,17.2,30.14,WSW,248,3.0,6.0,79,0.00,,OVC050,0.00,VWS V14.01,2013-12-26 11:33:00,
2013-12-26 06:34:00,23.0,17.5,30.14,SSW,203,1.0,4.0,79,0.00,,OVC050,0.00,VWS V14.01,2013-12-26 11:34:00,
2013-12-26 06:35:00,23.0,17.2,30.14,WSW,237,0.0,4.0,78,0.00,,OVC050,0.00,VWS V14.01,2013-12-26 11:35:00,
2013-12-26 06:36:00,23.0,17.2,30.14,SW,227,2.0,4.0,78,0.00,,OVC050,0.00,VWS V14.01,2013-12-26 11:36:00,
2013-12-26 06:37:00,23.1,17.3,30.14,West,260,2.0,4.0,78,0.00,,OVC050,0.00,VWS V14.01,2013-12-26 11:37:00,
2013-12-26 06:38:00,22.9,17.4,30.14,WSW,238,3.0,6.0,79,0.00,,OVC050,0.00,VWS V14.01,2013-12-26 11:38:00,
2013-12-26 06:39:00,23.1,17.3,30.14,West,262,1.0,4.0,78,0.00,,OVC050,0.00,VWS V14.01,2013-12-26 11:39:00,
2013-12-26 06:40:00,23.1,17.3,30.14,SSW,204,2.0,3.0,78,0.00,,OVC050,0.00,VWS V14.01,2013-12-26 11:40:00,
2013-12-26 06:41:00,23.1,17.3,30.14,WSW,240,1.0,3.0,78,0.00,,OVC050,0.00,VWS V14.01,2013-12-26 11:41:00,
2013-12-26 06:42:00,23.1,17.3,30.14,WSW,246,2.0,4.0,78,0.00,,OVC050,0.00,VWS V14.01,2013-12-26 11:42:00,
2013-12-26 06:43:00,23.0,17.5,30.14,SSW,203,1.0,4.0,79,0.00,,OVC050,0.00,VWS V14.01,2013-12-26 11:43:00,
2013-12-26 06:44:00,23.2,17.4,30.13,West,260,4.0,7.0,78,0.00,,OVC050,0.00,VWS V14.01,2013-12-26 11:44:00,
2013-12-26 06:45:00,23.2,17.4,30.13,WSW,240,2.0,7.0,78,0.00,,OVC050,0.00,VWS V14.01,2013-12-26 11:45:00,
2013-12-26 06:46:00,23.2,17.4,30.13,WSW,237,2.0,7.0,78,0.00,,OVC050,0.00,VWS V14.01,2013-12-26 11:46:00,
2013-12-26 06:47:00,23.2,17.4,30.13,WSW,241,1.0,7.0,78,0.00,,OVC050,0.00,VWS V14.01,2013-12-26 11:47:00,
2013-12-26 06:48:00,23.1,17.3,30.14,West,261,1.0,4.0,78,0.00,,OVC050,0.00,VWS V14.01,2013-12-26 11:48:00,
2013-12-26 06:49:00,23.3,17.5,30.13,WNW,286,3.0,7.0,78,0.00,,OVC050,0.00,VWS V14.01,2013-12-26 11:49:00,
2013-12-26 06:50:00,23.3,17.5,30.13,WSW,245,2.0,4.0,78,0.00,,OVC050,0.00,VWS V14.01,2013-12-26 11:50:00,
2013-12-26 06:51:00,23.3,17.5,30.13,West,259,4.0,6.0,78,0.00,,OVC050,0.00,VWS V14.01,2013-12-26 11:51:00,
2013-12-26 06:52:00,23.4,17.6,30.13,WSW,240,3.0,6.0,78,0.00,,OVC050,0.00,VWS V14.01,2013-12-26 11:52:00,
2013-12-26 06:53:00,23.2,17.4,30.13,WSW,241,4.0,7.0,78,0.00,,OVC050,0.00,VWS V14.01,2013-12-26 11:53:00,
2013-12-26 06:54:00,23.5,17.4,30.13,WSW,241,4.0,6.0,77,0.00,,OVC050,0.00,VWS V14.01,2013-12-26 11:54:00,
2013-12-26 06:55:00,23.5,17.4,30.13,WSW,255,3.0,6.0,77,0.00,,OVC050,0.00,VWS V14.01,2013-12-26 11:55:00,
2013-12-26 06:56:00,23.5,17.4,30.13,WSW,247,3.0,6.0,77,0.00,,OVC050,0.00,VWS V14.01,2013-12-26 11:56:00,
2013-12-26 06:57:00,23.5,17.4,30.13,WSW,253,2.0,6.0,77,0.00,,OVC050,0.00,VWS V14.01,2013-12-26 11:57:00,
2013-12-26 06:58:00,23.5,17.4,30.13,WSW,241,2.0,6.0,77,0.00,,OVC050,0.00,VWS V14.01,2013-12-26 11:58:00,
2013-12-26 06:59:00,23.3,17.5,30.13,WSW,246,3.0,7.0,78,0.00,,OVC050,0.00,VWS V14.01,2013-12-26 11:59:00,
2013-12-26 07:00:00,23.6,17.5,30.12,West,269,3.0,5.0,77,0.00,,OVC050,0.00,VWS V14.01,2013-12-26 12:00:00,
2013-12-26 07:01:00,23.6,17.5,30.12,WSW,255,3.0,5.0,77,0.00,,OVC050,0.00,VWS V14.01,2013-12-26 12:01:00,
2013-12-26 07:02:00,23.6,17.5,30.12,SW,219,4.0,5.0,77,0.00,,OVC050,0.00,VWS V14.01,2013-12-26 12:02:00,
2013-12-26 07:03:00,23.6,17.5,30.12,SW,223,2.0,5.0,77,0.00,,OVC050,0.00,VWS V14.01,2013-12-26 12:03:00,
2013-12-26 07:04:00,23.5,17.4,30.13,WSW,241,3.0,6.0,77,0.00,,OVC050,0.00,VWS V14.01,2013-12-26 12:04:00,
2013-12-26 07:05:00,23.7,17.6,30.12,West,275,3.0,5.0,77,0.00,,OVC050,0.00,VWS V14.01,2013-12-26 12:05:00,
2013-12-26 07:06:00,23.7,17.6,30.12,WSW,257,3.0,5.0,77,0.00,,OVC050,0.00,VWS V14.01,2013-12-26 12:06:00,
2013-12-26 07:07:00,23.8,17.7,30.12,WSW,249,3.0,5.0,77,0.00,,OVC050,0.00,VWS V14.01,2013-12-26 12:07:00,
2013-12-26 07:08:00,23.8,17.7,30.12,WSW,255,6.0,6.0,77,0.00,,OVC050,0.00,VWS V14.01,2013-12-26 12:08:00,
2013-12-26 07:09:00,23.6,17.5,30.12,WSW,253,4.0,6.0,77,0.00,,OVC050,0.00,VWS V14.01,2013-12-26 12:09:00,
2013-12-26 07:10:00,23.9,17.8,30.12,SW,219,2.0,2.0,77,0.00,,OVC050,0.00,VWS V14.01,2013-12-26 12:10:00,
2013-12-26 07:11:00,23.9,17.8,30.12,WSW,244,5.0,5.0,77,0.00,,OVC050,0.00,VWS V14.01,2013-12-26 12:11:00,
2013-12-26 07:12:00,23.9,17.8,30.12,WSW,249,5.0,6.0,77,0.00,,OVC050,0.00,VWS V14.01,2013-12-26 12:12:00,
2013-12-26 07:13:00,23.9,17.8,30.12,WSW,248,3.0,6.0,77,0.00,,OVC050,0.00,VWS V14.01,2013-12-26 12:13:00,
2013-12-26 07:14:00,23.7,17.6,30.12,WSW,240,2.0,5.0,77,0.00,,OVC050,0.00,VWS V14.01,2013-12-26 12:14:00,
2013-12-26 07:15:00,24.0,17.9,30.12,WSW,242,2.0,6.0,77,0.00,,OVC050,0.00,VWS V14.01,2013-12-26 12:15:00,
2013-12-26 07:16:00,24.0,17.9,30.12,SW,234,1.0,6.0,77,0.00,,OVC050,0.00,VWS V14.01,2013-12-26 12:16:00,
2013-12-26 07:17:00,24.0,17.9,30.12,SW,226,5.0,7.0,77,0.00,,OVC050,0.00,VWS V14.01,2013-12-26 12:17:00,
2013-12-26 07:18:00,24.0,17.9,30.12,SW,223,3.0,7.0,77,0.00,,OVC050,0.00,VWS V14.01,2013-12-26 12:18:00,
2013-12-26 07:19:00,23.9,17.8,30.12,WSW,239,1.0,7.0,77,0.00,,OVC050,0.00,VWS V14.01,2013-12-26 12:19:00,
2013-12-26 07:20:00,24.1,18.0,30.12,WSW,250,4.0,4.0,77,0.00,,OVC050,0.00,VWS V14.01,2013-12-26 12:20:00,
2013-12-26 07:21:00,24.1,18.0,30.12,WSW,256,4.0,5.0,77,0.00,,OVC050,0.00,VWS V14.01,2013-12-26 12:21:00,
2013-12-26 07:22:00,24.1,18.0,30.12,SW,234,2.0,5.0,77,0.00,,OVC050,0.00,VWS V14.01,2013-12-26 12:22:00,
2013-12-26 07:23:00,24.1,18.0,30.12,SW,234,0.0,5.0,77,0.00,,OVC029,0.00,VWS V14.01,2013-12-26 12:23:00,
2013-12-26 07:24:00,24.0,17.9,30.12,SW,225,3.0,6.0,77,0.00,,OVC050,0.00,VWS V14.01,2013-12-26 12:24:00,
2013-12-26 07:25:00,24.1,18.0,30.12,WSW,246,3.0,5.0,77,0.00,,OVC029,0.00,VWS V14.01,2013-12-26 12:25:00,
2013-12-26 07:26:00,24.1,18.0,30.12,WSW,238,3.0,5.0,77,0.00,,OVC029,0.00,VWS V14.01,2013-12-26 12:26:00,
2013-12-26 07:27:00,24.2,17.7,30.12,SW,219,3.0,5.0,76,0.00,,OVC029,0.00,VWS V14.01,2013-12-26 12:27:00,
2013-12-26 07:28:00,24.2,17.7,30.12,SW,229,2.0,5.0,76,0.00,,OVC029,0.00,VWS V14.01,2013-12-26 12:28:00,
2013-12-26 07:29:00,24.1,18.0,30.12,WSW,246,3.0,4.0,77,0.00,,OVC050,0.00,VWS V14.01,2013-12-26 12:29:00,
2013-12-26 07:30:00,24.2,17.7,30.13,SW,227,2.0,4.0,76,0.00,,OVC029,0.00,VWS V14.01,2013-12-26 12:30:00,
2013-12-26 07:31:00,24.3,17.8,30.13,WSW,257,3.0,6.0,76,0.00,,OVC029,0.00,VWS V14.01,2013-12-26 12:31:00,
2013-12-26 07:32:00,24.3,17.8,30.13,WSW,244,2.0,6.0,76,0.00,,OVC029,0.00,VWS V14.01,2013-12-26 12:32:00,
2013-12-26 07:33:00,24.4,17.9,30.13,WSW,253,2.0,7.0,76,0.00,,OVC029,0.00,VWS V14.01,2013-12-26 12:33:00,
2013-12-26 07:34:00,24.1,18.0,30.12,WSW,238,2.0,5.0,77,0.00,,OVC029,0.00,VWS V14.01,2013-12-26 12:34:00,
2013-12-26 07:35:00,24.4,17.9,30.13,SW,219,2.0,7.0,76,0.00,,OVC029,0.00,VWS V14.01,2013-12-26 12:35:00,
2013-12-26 07:36:00,24.5,18.0,30.13,WSW,241,2.0,7.0,76,0.00,,OVC029,0.00,VWS V14.01,2013-12-26 12:36:00,
2013-12-26 07:37:00,24.5,18.0,30.13,WSW,255,2.0,7.0,76,0.00,,OVC029,0.00,VWS V14.01,2013-12-26 12:37:00,
2013-12-26 07:38:00,24.6,18.1,30.13,WSW,237,3.0,7.0,76,0.00,,OVC029,0.00,VWS V14.01,2013-12-26 12:38:00,
2013-12-26 07:39:00,24.2,17.7,30.13,SW,224,2.0,5.0,76,0.00,,OVC029,0.00,VWS V14.01,2013-12-26 12:39:00,
2013-12-26 07:40:00,24.6,18.1,30.13,WNW,296,2.0,5.0,76,0.00,,OVC029,0.00,VWS V14.01,2013-12-26 12:40:00,
2013-12-26 07:41:00,24.7,18.2,30.13,WSW,252,3.0,5.0,76,0.00,,OVC029,0.00,VWS V14.01,2013-12-26 12:41:00,
2013-12-26 07:42:00,24.7,18.2,30.13,SW,232,2.0,5.0,76,0.00,,OVC029,0.00,VWS V14.01,2013-12-26 12:42:00,
2013-12-26 07:43:00,24.7,18.2,30.13,WSW,242,4.0,5.0,76,0.00,,OVC029,0.00,VWS V14.01,2013-12-26 12:43:00,
2013-12-26 07:44:00,24.4,17.9,30.13,West,265,5.0,7.0,76,0.00,,OVC029,0.00,VWS V14.01,2013-12-26 12:44:00,
2013-12-26 07:45:00,24.8,18.3,30.13,WSW,242,2.0,5.0,76,0.00,,OVC029,0.00,VWS V14.01,2013-12-26 12:45:00,
2013-12-26 07:46:00,24.8,18.3,30.13,SW,230,3.0,5.0,76,0.00,,OVC029,0.00,VWS V14.01,2013-12-26 12:46:00,
2013-12-26 07:47:00,24.8,18.3,30.13,WSW,240,3.0,6.0,76,0.00,,OVC029,0.00,VWS V14.01,2013-12-26 12:47:00,
2013-12-26 07:48:00,24.8,18.3,30.13,WSW,244,2.0,6.0,76,0.00,,OVC029,0.00,VWS V14.01,2013-12-26 12:48:00,
2013-12-26 07:49:00,24.6,18.1,30.13,WSW,250,3.0,3.0,76,0.00,,OVC029,0.00,VWS V14.01,2013-12-26 12:49:00,
2013-12-26 07:50:00,24.9,18.4,30.13,SW,219,4.0,4.0,76,0.00,,OVC029,0.00,VWS V14.01,2013-12-26 12:50:00,
2013-12-26 07:51:00,24.9,18.4,30.13,WSW,249,2.0,6.0,76,0.00,,OVC029,0.00,VWS V14.01,2013-12-26 12:51:00,
2013-12-26 07:52:00,24.9,18.4,30.13,WSW,250,4.0,6.0,76,0.00,,OVC029,0.00,VWS V14.01,2013-12-26 12:52:00,
2013-12-26 07:53:00,25.0,18.5,30.13,SW,221,2.0,6.0,76,0.00,,OVC029,0.00,VWS V14.01,2013-12-26 12:53:00,
2013-12-26 07:54:00,24.7,18.2,30.13,WSW,246,2.0,5.0,76,0.00,,OVC029,0.00,VWS V14.01,2013-12-26 12:54:00,
2013-12-26 07:55:00,25.1,18.6,30.13,WSW,245,6.0,6.0,76,0.00,,OVC029,0.00,VWS V14.01,2013-12-26 12:55:00,
2013-12-26 07:56:00,25.1,18.6,30.13,SW,231,7.0,7.0,76,0.00,,OVC029,0.00,VWS V14.01,2013-12-26 12:56:00,
2013-12-26 07:57:00,25.2,18.7,30.13,SW,223,4.0,7.0,76,0.00,,OVC029,0.00,VWS V14.01,2013-12-26 12:57:00,
2013-12-26 07:58:00,25.2,20.8,30.13,South,180,5.0,7.0,83,0.00,,OVC029,0.00,VWS V14.01,2013-12-26 12:58:00,
2013-12-26 07:59:00,24.9,18.4,30.13,SW,229,2.0,6.0,76,0.00,,OVC029,0.00,VWS V14.01,2013-12-26 12:59:00,
2013-12-26 08:00:00,25.3,18.8,30.13,SW,229,3.0,3.0,76,0.00,,OVC029,0.00,VWS V14.01,2013-12-26 13:00:00,
2013-12-26 08:01:00,25.3,18.8,30.13,WSW,242,6.0,9.0,76,0.00,,OVC029,0.00,VWS V14.01,2013-12-26 13:01:00,
2013-12-26 08:02:00,25.4,19.2,30.13,SW,223,4.0,9.0,77,0.00,,OVC029,0.00,VWS V14.01,2013-12-26 13:02:00,
2013-12-26 08:03:00,25.5,19.0,30.13,SSW,206,1.0,9.0,76,0.00,,OVC029,0.00,VWS V14.01,2013-12-26 13:03:00,
2013-12-26 08:04:00,25.0,18.5,30.13,SW,234,4.0,6.0,76,0.00,,OVC029,0.00,VWS V14.01,2013-12-26 13:04:00,
2013-12-26 08:05:00,25.6,19.4,30.13,SW,229,3.0,9.0,77,0.00,,OVC029,0.00,VWS V14.01,2013-12-26 13:05:00,
2013-12-26 08:06:00,25.6,19.4,30.13,WSW,257,3.0,9.0,77,0.00,,OVC029,0.00,VWS V14.01,2013-12-26 13:06:00,
2013-12-26 08:07:00,25.6,19.4,30.13,SW,230,2.0,9.0,77,0.00,,OVC029,0.00,VWS V14.01,2013-12-26 13:07:00,
2013-12-26 08:08:00,25.7,19.5,30.13,West,261,3.0,9.0,77,0.00,,OVC029,0.00,VWS V14.01,2013-12-26 13:08:00,
2013-12-26 08:09:00,25.3,18.8,30.13,WSW,243,2.0,7.0,76,0.00,,OVC029,0.00,VWS V14.01,2013-12-26 13:09:00,
2013-12-26 08:10:00,25.8,19.6,30.13,SW,234,2.0,5.0,77,0.00,,OVC029,0.00,VWS V14.01,2013-12-26 13:10:00,
2013-12-26 08:11:00,25.9,19.7,30.13,WSW,257,4.0,6.0,77,0.00,,OVC029,0.00,VWS V14.01,2013-12-26 13:11:00,
2013-12-26 08:12:00,25.9,19.7,30.13,West,261,5.0,6.0,77,0.00,,OVC029,0.00,VWS V14.01,2013-12-26 13:12:00,
2013-12-26 08:13:00,26.0,19.8,30.13,SSW,206,4.0,6.0,77,0.00,,OVC029,0.00,VWS V14.01,2013-12-26 13:13:00,
2013-12-26 08:14:00,25.6,19.4,30.13,SW,222,2.0,9.0,77,0.00,,OVC029,0.00,VWS V14.01,2013-12-26 13:14:00,
2013-12-26 08:15:00,26.3,20.4,30.13,SW,224,6.0,18.0,78,0.00,,OVC029,0.00,VWS V14.01,2013-12-26 13:15:00,
2013-12-26 08:16:00,26.4,20.5,30.13,SW,232,4.0,18.0,78,0.00,,OVC029,0.00,VWS V14.01,2013-12-26 13:16:00,
2013-12-26 08:17:00,26.5,20.6,30.13,WSW,254,10.0,18.0,78,0.00,,OVC029,0.00,VWS V14.01,2013-12-26 13:17:00,
2013-12-26 08:18:00,26.7,20.8,30.13,SW,224,4.0,18.0,78,0.00,,OVC029,0.00,VWS V14.01,2013-12-26 13:18:00,
2013-12-26 08:19:00,25.8,19.6,30.13,WSW,246,3.0,9.0,77,0.00,,OVC029,0.00,VWS V14.01,2013-12-26 13:19:00,
2013-12-26 08:20:00,26.8,21.2,30.13,WSW,244,7.0,10.0,79,0.00,,OVC029,0.00,VWS V14.01,2013-12-26 13:20:00,
2013-12-26 08:21:00,26.9,21.3,30.13,SW,215,2.0,10.0,79,0.00,,OVC029,0.00,VWS V14.01,2013-12-26 13:21:00,
2013-12-26 08:22:00,26.9,21.6,30.13,WSW,238,11.0,11.0,80,0.00,,OVC029,0.00,VWS V14.01,2013-12-26 13:22:00,
2013-12-26 08:23:00,27.0,21.7,30.13,West,259,12.0,12.0,80,0.00,,OVC029,0.00,VWS V14.01,2013-12-26 13:23:00,
2013-12-26 08:24:00,26.0,20.1,30.13,West,259,18.0,18.0,78,0.00,,OVC029,0.00,VWS V14.01,2013-12-26 13:24:00,
2013-12-26 08:25:00,27.3,22.2,30.13,SW,226,3.0,16.0,81,0.00,,OVC029,0.00,VWS V14.01,2013-12-26 13:25:00,
2013-12-26 08:26:00,27.4,22.4,30.13,WSW,252,10.0,16.0,81,0.00,,OVC029,0.00,VWS V14.01,2013-12-26 13:26:00,
2013-12-26 08:27:00,27.4,22.6,30.13,WSW,242,11.0,16.0,82,0.00,,OVC029,0.00,VWS V14.01,2013-12-26 13:27:00,
2013-12-26 08:28:00,27.5,23.0,30.13,WSW,257,12.0,16.0,83,0.00,,OVC029,0.00,VWS V14.01,2013-12-26 13:28:00,
2013-12-26 08:29:00,26.8,21.2,30.13,WSW,240,4.0,18.0,79,0.00,,OVC029,0.00,VWS V14.01,2013-12-26 13:29:00,
2013-12-26 08:30:00,27.7,23.2,30.13,West,271,20.0,20.0,83,0.00,,OVC029,0.00,VWS V14.01,2013-12-26 13:30:00,
2013-12-26 08:31:00,27.8,23.6,30.13,West,260,17.0,20.0,84,0.00,,OVC029,0.00,VWS V14.01,2013-12-26 13:31:00,
2013-12-26 08:32:00,27.9,23.7,30.13,WSW,253,17.0,23.0,84,0.00,,OVC029,0.00,VWS V14.01,2013-12-26 13:32:00,
2013-12-26 08:33:00,28.0,23.8,30.13,WSW,244,13.0,23.0,84,0.00,,OVC029,0.00,VWS V14.01,2013-12-26 13:33:00,
2013-12-26 08:34:00,27.3,22.2,30.13,WSW,256,14.0,16.0,81,0.00,,OVC029,0.00,VWS V14.01,2013-12-26 13:34:00,
2013-12-26 08:35:00,28.0,24.1,30.13,WSW,256,16.0,23.0,85,0.00,,OVC029,0.00,VWS V14.01,2013-12-26 13:35:00,
2013-12-26 08:36:00,28.0,24.1,30.13,WSW,252,12.0,23.0,85,0.00,,OVC029,0.00,VWS V14.01,2013-12-26 13:36:00,
2013-12-26 08:37:00,28.1,24.2,30.13,WSW,257,11.0,23.0,85,0.00,,OVC029,0.00,VWS V14.01,2013-12-26 13:37:00,
2013-12-26 08:38:00,28.1,24.2,30.13,WSW,253,16.0,23.0,85,0.00,,OVC029,0.00,VWS V14.01,2013-12-26 13:38:00,
2013-12-26 08:39:00,27.7,23.2,30.13,WSW,252,12.0,13.0,83,0.00,,OVC029,0.00,VWS V14.01,2013-12-26 13:39:00,
2013-12-26 08:40:00,28.1,24.2,30.13,SW,224,19.0,28.0,85,0.00,,OVC029,0.00,VWS V14.01,2013-12-26 13:40:00,
2013-12-26 08:41:00,28.1,24.2,30.13,West,265,21.0,28.0,85,0.00,,OVC029,0.00,VWS V14.01,2013-12-26 13:41:00,
2013-12-26 08:42:00,28.1,24.5,30.13,West,263,20.0,28.0,86,0.00,,OVC029,0.00,VWS V14.01,2013-12-26 13:42:00,
2013-12-26 08:43:00,28.2,24.6,30.13,WSW,250,12.0,28.0,86,0.00,,OVC029,0.00,VWS V14.01,2013-12-26 13:43:00,
2013-12-26 08:44:00,28.0,24.1,30.13,West,271,13.0,23.0,85,0.00,,OVC029,0.00,VWS V14.01,2013-12-26 13:44:00,
2013-12-26 08:45:00,28.1,24.5,30.13,West,263,14.0,28.0,86,0.00,,OVC029,0.00,VWS V14.01,2013-12-26 13:45:00,
2013-12-26 08:46:00,28.1,24.5,30.13,WSW,244,16.0,28.0,86,0.00,,OVC029,0.00,VWS V14.01,2013-12-26 13:46:00,
2013-12-26 08:47:00,28.1,24.5,30.13,WSW,249,16.0,28.0,86,0.00,,OVC029,0.00,VWS V14.01,2013-12-26 13:47:00,
2013-12-26 08:48:00,28.1,24.5,30.13,WSW,237,15.0,28.0,86,0.00,,OVC029,0.00,VWS V14.01,2013-12-26 13:48:00,
2013-12-26 08:49:00,28.1,24.2,30.13,West,270,11.0,13.0,85,0.00,,OVC029,0.00,VWS V14.01,2013-12-26 13:49:00,
2013-12-26 08:50:00,28.1,24.5,30.13,West,259,13.0,15.0,86,0.00,,OVC029,0.00,VWS V14.01,2013-12-26 13:50:00,
2013-12-26 08:51:00,28.1,24.5,30.13,WSW,250,14.0,19.0,86,0.00,,OVC029,0.00,VWS V14.01,2013-12-26 13:51:00,
2013-12-26 08:52:00,28.1,24.5,30.13,WSW,241,23.0,23.0,86,0.00,,OVC029,0.00,VWS V14.01,2013-12-26 13:52:00,
2013-12-26 08:53:00,28.1,24.5,30.13,West,265,20.0,23.0,86,0.00,,OVC029,0.00,VWS V14.01,2013-12-26 13:53:00,
2013-12-26 08:54:00,28.1,24.5,30.13,West,274,15.0,28.0,86,0.00,,OVC029,0.00,VWS V14.01,2013-12-26 13:54:00,
2013-12-26 08:55:00,28.0,24.4,30.13,West,260,25.0,28.0,86,0.00,,OVC029,0.00,VWS V14.01,2013-12-26 13:55:00,
2013-12-26 08:56:00,28.1,24.5,30.13,WSW,248,23.0,28.0,86,0.00,,OVC029,0.00,VWS V14.01,2013-12-26 13:56:00,
2013-12-26 08:57:00,28.1,24.5,30.13,WSW,241,12.0,28.0,86,0.00,,OVC029,0.00,VWS V14.01,2013-12-26 13:57:00,
2013-12-26 08:58:00,28.0,24.4,30.13,SW,226,14.0,28.0,86,0.00,,OVC029,0.00,VWS V14.01,2013-12-26 13:58:00,
2013-12-26 08:59:00,28.1,24.5,30.13,SW,236,14.0,14.0,86,0.00,,OVC029,0.00,VWS V14.01,2013-12-26 13:59:00,
2013-12-26 09:00:00,28.0,24.1,30.13,WSW,257,17.0,22.0,85,0.00,,OVC029,0.00,VWS V14.01,2013-12-26 14:00:00,
2013-12-26 09:01:00,28.0,24.1,30.13,SW,232,12.0,22.0,85,0.00,,OVC029,0.00,VWS V14.01,2013-12-26 14:01:00,
2013-12-26 09:02:00,27.9,24.0,30.13,SW,216,11.0,22.0,85,0.00,,OVC029,0.00,VWS V14.01,2013-12-26 14:02:00,
2013-12-26 09:03:00,27.9,24.0,30.13,West,271,12.0,22.0,85,0.00,,OVC029,0.00,VWS V14.01,2013-12-26 14:03:00,
2013-12-26 09:04:00,28.1,24.5,30.13,WSW,254,26.0,27.0,86,0.00,,OVC029,0.00,VWS V14.01,2013-12-26 14:04:00,
2013-12-26 09:05:00,27.9,24.0,30.13,West,262,16.0,22.0,85,0.00,,OVC029,0.00,VWS V14.01,2013-12-26 14:05:00,
2013-12-26 09:06:00,27.8,23.9,30.13,West,259,16.0,24.0,85,0.00,,OVC029,0.00,VWS V14.01,2013-12-26 14:06:00,
2013-12-26 09:07:00,27.8,23.9,30.13,West,259,17.0,24.0,85,0.00,,OVC029,0.00,VWS V14.01,2013-12-26 14:07:00,
2013-12-26 09:08:00,27.8,23.9,30.13,WSW,245,14.0,24.0,85,0.00,,OVC029,0.00,VWS V14.01,2013-12-26 14:08:00,
2013-12-26 09:09:00,28.0,26.0,30.13,West,265,13.0,18.0,92,0.00,,OVC029,0.00,VWS V14.01,2013-12-26 14:09:00,
2013-12-26 09:10:00,27.7,23.8,30.13,WSW,256,15.0,19.0,85,0.00,,OVC029,0.00,VWS V14.01,2013-12-26 14:10:00,
2013-12-26 09:11:00,27.6,23.7,30.13,West,261,16.0,19.0,85,0.00,,OVC029,0.00,VWS V14.01,2013-12-26 14:11:00,
2013-12-26 09:12:00,27.6,23.7,30.13,West,275,13.0,19.0,85,0.00,,OVC029,0.00,VWS V14.01,2013-12-26 14:12:00,
2013-12-26 09:13:00,27.5,23.6,30.13,WSW,248,26.0,26.0,85,0.00,,OVC029,0.00,VWS V14.01,2013-12-26 14:13:00,
2013-12-26 09:14:00,27.9,24.0,30.13,West,267,15.0,22.0,85,0.00,,OVC029,0.00,VWS V14.01,2013-12-26 14:14:00,
2013-12-26 09:15:00,27.5,23.6,30.14,WSW,245,18.0,26.0,85,0.00,,OVC029,0.00,VWS V14.01,2013-12-26 14:15:00,
2013-12-26 09:16:00,27.5,23.6,30.14,West,267,12.0,26.0,85,0.00,,OVC029,0.00,VWS V14.01,2013-12-26 14:16:00,
2013-12-26 09:17:00,27.5,23.6,30.14,WSW,253,10.0,26.0,85,0.00,,OVC029,0.00,VWS V14.01,2013-12-26 14:17:00,
2013-12-26 09:18:00,27.5,23.6,30.14,WSW,255,19.0,26.0,85,0.00,,OVC029,0.00,VWS V14.01,2013-12-26 14:18:00,
2013-12-26 09:19:00,27.7,23.8,30.13,West,261,18.0,19.0,85,0.00,,OVC029,0.00,VWS V14.01,2013-12-26 14:19:00,
2013-12-26 09:20:00,27.5,23.6,30.14,WNW,301,16.0,20.0,85,0.00,,OVC029,0.00,VWS V14.01,2013-12-26 14:20:00,
2013-12-26 09:21:00,27.5,23.6,30.14,West,261,15.0,20.0,85,0.00,,OVC029,0.00,VWS V14.01,2013-12-26 14:21:00,
2013-12-26 09:22:00,27.5,23.6,30.14,West,277,9.0,20.0,85,0.00,,OVC029,0.00,VWS V14.01,2013-12-26 14:22:00,
2013-12-26 09:23:00,27.5,23.6,30.14,WSW,242,16.0,21.0,85,0.00,,,0.00,VWS V14.01,2013-12-26 14:23:00,
2013-12-26 09:24:00,27.5,23.6,30.14,WSW,246,15.0,26.0,85,0.00,,OVC029,0.00,VWS V14.01,2013-12-26 14:24:00,
2013-12-26 09:25:00,27.5,23.6,30.14,WSW,253,18.0,24.0,85,0.00,,,0.00,VWS V14.01,2013-12-26 14:25:00,
2013-12-26 09:26:00,27.5,23.6,30.14,WSW,253,15.0,24.0,85,0.00,,,0.00,VWS V14.01,2013-12-26 14:26:00,
2013-12-26 09:27:00,27.4,23.5,30.14,West,261,19.0,24.0,85,0.00,,,0.00,VWS V14.01,2013-12-26 14:27:00,
2013-12-26 09:28:00,27.4,23.5,30.14,WSW,250,19.0,24.0,85,0.00,,,0.00,VWS V14.01,2013-12-26 14:28:00,
2013-12-26 09:29:00,27.5,23.6,30.14,WSW,249,17.0,20.0,85,0.00,,OVC029,0.00,VWS V14.01,2013-12-26 14:29:00,
2013-12-26 09:30:00,27.1,22.9,30.15,West,259,11.0,18.0,84,0.00,,,0.00,VWS V14.01,2013-12-26 14:30:00,
2013-12-26 09:31:00,27.0,22.8,30.15,WSW,252,17.0,18.0,84,0.00,,,0.00,VWS V14.01,2013-12-26 14:31:00,
2013-12-26 09:32:00,26.9,22.7,30.15,West,270,13.0,22.0,84,0.00,,,0.00,VWS V14.01,2013-12-26 14:32:00,
2013-12-26 09:33:00,26.9,22.4,30.15,West,272,13.0,22.0,83,0.00,,,0.00,VWS V14.01,2013-12-26 14:33:00,
2013-12-26 09:34:00,27.5,23.6,30.14,WSW,257,19.0,24.0,85,0.00,,,0.00,VWS V14.01,2013-12-26 14:34:00,
2013-12-26 09:35:00,26.8,22.3,30.15,West,277,16.0,22.0,83,0.00,,,0.00,VWS V14.01,2013-12-26 14:35:00,
2013-12-26 09:36:00,26.7,22.0,30.15,West,260,13.0,22.0,82,0.00,,,0.00,VWS V14.01,2013-12-26 14:36:00,
2013-12-26 09:37:00,26.7,22.0,30.15,West,267,12.0,22.0,82,0.00,,,0.00,VWS V14.01,2013-12-26 14:37:00,
2013-12-26 09:38:00,26.7,22.0,30.15,West,271,10.0,22.0,82,0.00,,,0.00,VWS V14.01,2013-12-26 14:38:00,
2013-12-26 09:39:00,27.1,22.9,30.15,WSW,250,17.0,18.0,84,0.00,,,0.00,VWS V14.01,2013-12-26 14:39:00,
2013-12-26 09:40:00,26.7,21.7,30.15,WNW,294,14.0,14.0,81,0.00,,,0.00,VWS V14.01,2013-12-26 14:40:00,
2013-12-26 09:41:00,26.6,21.3,30.15,WNW,287,12.0,15.0,80,0.00,,,0.00,VWS V14.01,2013-12-26 14:41:00,
2013-12-26 09:42:00,26.6,21.3,30.15,West,280,12.0,17.0,80,0.00,,,0.00,VWS V14.01,2013-12-26 14:42:00,
2013-12-26 09:43:00,26.7,21.4,30.15,West,271,14.0,17.0,80,0.00,,,0.00,VWS V14.01,2013-12-26 14:43:00,
2013-12-26 09:44:00,26.8,22.3,30.15,West,269,17.0,22.0,83,0.00,,,0.00,VWS V14.01,2013-12-26 14:44:00,
2013-12-26 09:45:00,26.7,21.4,30.16,WSW,250,16.0,22.0,80,0.00,,,0.00,VWS V14.01,2013-12-26 14:45:00,
2013-12-26 09:46:00,26.6,21.0,30.16,West,259,24.0,24.0,79,0.00,,,0.00,VWS V14.01,2013-12-26 14:46:00,
2013-12-26 09:47:00,26.6,21.3,30.16,West,269,29.0,33.0,80,0.00,,,0.00,VWS V14.01,2013-12-26 14:47:00,
2013-12-26 09:48:00,26.7,21.4,30.16,West,276,20.0,33.0,80,0.00,,,0.00,VWS V14.01,2013-12-26 14:48:00,
2013-12-26 09:49:00,26.7,21.7,30.15,West,277,14.0,14.0,81,0.00,,,0.00,VWS V14.01,2013-12-26 14:49:00,
2013-12-26 09:50:00,26.8,21.8,30.16,WSW,241,24.0,24.0,81,0.00,,,0.00,VWS V14.01,2013-12-26 14:50:00,
2013-12-26 09:51:00,26.8,21.8,30.16,WNW,282,17.0,24.0,81,0.00,,,0.00,VWS V14.01,2013-12-26 14:51:00,
2013-12-26 09:52:00,26.9,22.1,30.16,WNW,292,12.0,24.0,82,0.00,,,0.00,VWS V14.01,2013-12-26 14:52:00,
2013-12-26 09:53:00,26.9,22.1,30.16,WSW,257,18.0,24.0,82,0.00,,,0.00,VWS V14.01,2013-12-26 14:53:00,
2013-12-26 09:54:00,26.7,21.4,30.16,WSW,254,13.0,17.0,80,0.00,,,0.00,VWS V14.01,2013-12-26 14:54:00,
2013-12-26 09:55:00,27.0,22.5,30.16,WNW,283,23.0,27.0,83,0.00,,,0.00,VWS V14.01,2013-12-26 14:55:00,
2013-12-26 09:56:00,27.1,22.9,30.16,WNW,299,16.0,27.0,84,0.00,,,0.00,VWS V14.01,2013-12-26 14:56:00,
2013-12-26 09:57:00,27.1,22.9,30.16,West,269,18.0,27.0,84,0.00,,,0.00,VWS V14.01,2013-12-26 14:57:00,
2013-12-26 09:58:00,27.2,23.0,30.16,WNW,297,11.0,27.0,84,0.00,,,0.00,VWS V14.01,2013-12-26 14:58:00,
2013-12-26 09:59:00,26.8,21.8,30.16,West,275,23.0,23.0,81,0.00,,,0.00,VWS V14.01,2013-12-26 14:59:00,
2013-12-26 10:00:00,27.2,23.3,30.16,West,269,12.0,21.0,85,0.00,,,0.00,VWS V14.01,2013-12-26 15:00:00,
2013-12-26 10:01:00,27.2,23.3,30.16,West,265,14.0,28.0,85,0.00,,,0.00,VWS V14.01,2013-12-26 15:01:00,
2013-12-26 10:02:00,27.2,23.3,30.16,WSW,253,32.0,32.0,85,0.00,,,0.00,VWS V14.01,2013-12-26 15:02:00,
2013-12-26 10:03:00,27.2,23.3,30.16,West,259,23.0,33.0,85,0.00,,,0.00,VWS V14.01,2013-12-26 15:03:00,
2013-12-26 10:04:00,27.0,22.5,30.16,WNW,296,26.0,27.0,83,0.00,,,0.00,VWS V14.01,2013-12-26 15:04:00,
2013-12-26 10:05:00,27.2,23.3,30.16,West,267,17.0,33.0,85,0.00,,,0.00,VWS V14.01,2013-12-26 15:05:00,
2013-12-26 10:06:00,27.3,23.4,30.16,WNW,291,29.0,33.0,85,0.00,,,0.00,VWS V14.01,2013-12-26 15:06:00,
2013-12-26 10:07:00,27.3,23.4,30.16,West,259,13.0,33.0,85,0.00,,,0.00,VWS V14.01,2013-12-26 15:07:00,
2013-12-26 10:08:00,27.2,23.6,30.16,WSW,249,19.0,33.0,86,0.00,,,0.00,VWS V14.01,2013-12-26 15:08:00,
2013-12-26 10:09:00,27.2,23.3,30.16,WSW,249,18.0,21.0,85,0.00,,,0.00,VWS V14.01,2013-12-26 15:09:00,
2013-12-26 10:10:00,27.3,23.7,30.16,West,269,21.0,21.0,86,0.00,,,0.00,VWS V14.01,2013-12-26 15:10:00,
2013-12-26 10:11:00,27.3,23.7,30.16,West,281,20.0,29.0,86,0.00,,,0.00,VWS V14.01,2013-12-26 15:11:00,
2013-12-26 10:12:00,27.3,23.7,30.16,WNW,282,21.0,29.0,86,0.00,,,0.00,VWS V14.01,2013-12-26 15:12:00,
2013-12-26 10:13:00,27.4,23.8,30.16,WNW,286,22.0,29.0,86,0.00,,,0.00,VWS V14.01,2013-12-26 15:13:00,
2013-12-26 10:14:00,27.2,23.3,30.16,West,267,14.0,33.0,85,0.00,,,0.00,VWS V14.01,2013-12-26 15:14:00,
2013-12-26 10:15:00,27.5,23.9,30.17,WSW,248,24.0,33.0,86,0.00,,,0.00,VWS V14.01,2013-12-26 15:15:00,
2013-12-26 10:16:00,27.5,23.9,30.17,WSW,242,29.0,33.0,86,0.00,,,0.00,VWS V14.01,2013-12-26 15:16:00,
2013-12-26 10:17:00,27.4,23.8,30.17,West,259,31.0,34.0,86,0.00,,,0.00,VWS V14.01,2013-12-26 15:17:00,
2013-12-26 10:18:00,27.4,23.8,30.17,West,267,22.0,34.0,86,0.00,,,0.00,VWS V14.01,2013-12-26 15:18:00,
2013-12-26 10:19:00,27.3,23.7,30.16,West,264,19.0,20.0,86,0.00,,,0.00,VWS V14.01,2013-12-26 15:19:00,
2013-12-26 10:20:00,27.5,23.9,30.17,WSW,254,20.0,23.0,86,0.00,,,0.00,VWS V14.01,2013-12-26 15:20:00,
2013-12-26 10:21:00,27.5,23.9,30.17,WNW,292,17.0,25.0,86,0.00,,,0.00,VWS V14.01,2013-12-26 15:21:00,
2013-12-26 10:22:00,27.6,24.0,30.17,West,263,22.0,25.0,86,0.00,,,0.00,VWS V14.01,2013-12-26 15:22:00,
2013-12-26 10:23:00,27.6,24.0,30.17,West,263,18.0,25.0,86,0.00,,,0.00,VWS V14.01,2013-12-26 15:23:00,
2013-12-26 10:24:00,27.5,23.9,30.17,West,259,23.0,33.0,86,0.00,,,0.00,VWS V14.01,2013-12-26 15:24:00,
2013-12-26 10:25:00,27.6,24.0,30.17,WSW,248,25.0,25.0,86,0.00,,,0.00,VWS V14.01,2013-12-26 15:25:00,
2013-12-26 10:26:00,27.7,24.1,30.17,WSW,255,22.0,25.0,86,0.00,,,0.00,VWS V14.01,2013-12-26 15:26:00,
2013-12-26 10:27:00,27.7,24.1,30.17,West,281,24.0,26.0,86,0.00,,,0.00,VWS V14.01,2013-12-26 15:27:00,
2013-12-26 10:28:00,27.8,23.9,30.17,WSW,257,21.0,26.0,85,0.00,,,0.00,VWS V14.01,2013-12-26 15:28:00,
2013-12-26 10:29:00,27.5,23.9,30.17,WSW,254,20.0,23.0,86,0.00,,,0.00,VWS V14.01,2013-12-26 15:29:00,
2013-12-26 10:30:00,27.8,23.9,30.17,West,273,20.0,28.0,85,0.00,,,0.00,VWS V14.01,2013-12-26 15:30:00,
2013-12-26 10:31:00,27.8,23.9,30.17,West,273,18.0,28.0,85,0.00,,,0.00,VWS V14.01,2013-12-26 15:31:00,
2013-12-26 10:32:00,27.9,24.0,30.17,West,268,18.0,28.0,85,0.00,,,0.00,VWS V14.01,2013-12-26 15:32:00,
2013-12-26 10:33:00,28.0,24.1,30.17,WNW,286,16.0,29.0,85,0.00,,,0.00,VWS V14.01,2013-12-26 15:33:00,
2013-12-26 10:34:00,28.0,24.1,30.17,West,264,22.0,29.0,85,0.00,,,0.00,VWS V14.01,2013-12-26 15:34:00,
2013-12-26 10:35:00,27.6,24.0,30.17,WSW,252,15.0,25.0,86,0.00,,,0.00,VWS V14.01,2013-12-26 15:35:00,
2013-12-26 10:36:00,28.0,24.1,30.17,West,263,27.0,29.0,85,0.00,,,0.00,VWS V14.01,2013-12-26 15:36:00,
2013-12-26 10:37:00,28.1,24.2,30.17,West,277,11.0,32.0,85,0.00,,,0.00,VWS V14.01,2013-12-26 15:37:00,
2013-12-26 10:38:00,28.1,24.2,30.17,West,273,15.0,32.0,85,0.00,,,0.00,VWS V14.01,2013-12-26 15:38:00,
2013-12-26 10:39:00,28.1,24.2,30.17,WSW,240,24.0,32.0,85,0.00,,,0.00,VWS V14.01,2013-12-26 15:39:00,
2013-12-26 10:40:00,27.8,23.9,30.17,West,262,24.0,28.0,85,0.00,,,0.00,VWS V14.01,2013-12-26 15:40:00,
2013-12-26 10:41:00,28.0,23.8,30.17,WNW,289,24.0,30.0,84,0.00,,,0.00,VWS V14.01,2013-12-26 15:41:00,
2013-12-26 10:42:00,28.1,23.9,30.17,West,262,14.0,30.0,84,0.00,,,0.00,VWS V14.01,2013-12-26 15:42:00,
2013-12-26 10:43:00,28.2,24.0,30.17,WSW,238,21.0,30.0,84,0.00,,,0.00,VWS V14.01,2013-12-26 15:43:00,
2013-12-26 10:44:00,28.3,24.1,30.17,West,269,15.0,30.0,84,0.00,,,0.00,VWS V14.01,2013-12-26 15:44:00,
2013-12-26 10:45:00,28.0,24.1,30.17,West,269,22.0,29.0,85,0.00,,,0.00,VWS V14.01,2013-12-26 15:45:00,
2013-12-26 10:46:00,28.4,24.2,30.17,WSW,258,19.0,30.0,84,0.00,,,0.00,VWS V14.01,2013-12-26 15:46:00,
2013-12-26 10:47:00,28.3,24.1,30.17,WSW,256,24.0,34.0,84,0.00,,,0.00,VWS V14.01,2013-12-26 15:47:00,
2013-12-26 10:48:00,28.3,24.1,30.17,West,265,20.0,34.0,84,0.00,,,0.00,VWS V14.01,2013-12-26 15:48:00,
2013-12-26 10:49:00,28.3,23.8,30.17,WNW,284,16.0,34.0,83,0.00,,,0.00,VWS V14.01,2013-12-26 15:49:00,
2013-12-26 10:50:00,28.1,23.9,30.17,WSW,248,28.0,30.0,84,0.00,,,0.00,VWS V14.01,2013-12-26 15:50:00,
2013-12-26 10:51:00,28.4,23.9,30.17,West,271,19.0,22.0,83,0.00,,,0.00,VWS V14.01,2013-12-26 15:51:00,
2013-12-26 10:52:00,28.4,23.9,30.17,West,271,15.0,24.0,83,0.00,,,0.00,VWS V14.01,2013-12-26 15:52:00,
2013-12-26 10:53:00,28.4,23.9,30.17,West,279,13.0,24.0,83,0.00,,,0.00,VWS V14.01,2013-12-26 15:53:00,
2013-12-26 10:54:00,28.4,23.9,30.17,West,260,18.0,28.0,83,0.00,,,0.00,VWS V14.01,2013-12-26 15:54:00,
2013-12-26 10:55:00,28.3,24.1,30.17,West,260,15.0,30.0,84,0.00,,,0.00,VWS V14.01,2013-12-26 15:55:00,
2013-12-26 10:56:00,28.2,23.7,30.17,WSW,257,26.0,35.0,83,0.00,,,0.00,VWS V14.01,2013-12-26 15:56:00,
2013-12-26 10:57:00,28.2,23.7,30.17,West,277,19.0,35.0,83,0.00,,,0.00,VWS V14.01,2013-12-26 15:57:00,
2013-12-26 10:58:00,28.2,23.7,30.17,West,259,19.0,35.0,83,0.00,,,0.00,VWS V14.01,2013-12-26 15:58:00,
2013-12-26 10:59:00,28.2,23.7,30.17,West,267,22.0,35.0,83,0.00,,,0.00,VWS V14.01,2013-12-26 15:59:00,
2013-12-26 11:00:00,28.4,24.2,30.17,WNW,282,20.0,22.0,84,0.00,,,0.00,VWS V14.01,2013-12-26 16:00:00,
2013-12-26 11:01:00,28.3,23.8,30.17,West,267,17.0,24.0,83,0.00,,,0.00,VWS V14.01,2013-12-26 16:01:00,
2013-12-26 11:02:00,28.3,23.8,30.17,WSW,244,16.0,25.0,83,0.00,,,0.00,VWS V14.01,2013-12-26 16:02:00,
2013-12-26 11:03:00,28.3,23.8,30.17,WSW,242,18.0,26.0,83,0.00,,,0.00,VWS V14.01,2013-12-26 16:03:00,
2013-12-26 11:04:00,28.3,23.8,30.17,West,261,16.0,26.0,83,0.00,,,0.00,VWS V14.01,2013-12-26 16:04:00,
2013-12-26 11:05:00,28.3,23.8,30.17,West,267,20.0,35.0,83,0.00,,,0.00,VWS V14.01,2013-12-26 16:05:00,
2013-12-26 11:06:00,28.2,23.4,30.17,WNW,286,19.0,33.0,82,0.00,,,0.00,VWS V14.01,2013-12-26 16:06:00,
2013-12-26 11:07:00,28.3,23.5,30.17,West,269,14.0,33.0,82,0.00,,,0.00,VWS V14.01,2013-12-26 16:07:00,
2013-12-26 11:08:00,28.3,23.5,30.17,West,281,12.0,33.0,82,0.00,,,0.00,VWS V14.01,2013-12-26 16:08:00,
2013-12-26 11:09:00,28.4,23.9,30.17,West,263,21.0,33.0,83,0.00,,,0.00,VWS V14.01,2013-12-26 16:09:00,
2013-12-26 11:10:00,28.3,23.8,30.17,WSW,244,16.0,23.0,83,0.00,,,0.00,VWS V14.01,2013-12-26 16:10:00,
2013-12-26 11:11:00,28.3,23.5,30.17,West,261,26.0,32.0,82,0.00,,,0.00,VWS V14.01,2013-12-26 16:11:00,
2013-12-26 11:12:00,28.3,23.5,30.17,WSW,247,22.0,33.0,82,0.00,,,0.00,VWS V14.01,2013-12-26 16:12:00,
2013-12-26 11:13:00,28.1,23.3,30.17,WSW,246,18.0,33.0,82,0.00,,,0.00,VWS V14.01,2013-12-26 16:13:00,
2013-12-26 11:14:00,28.2,23.4,30.17,WSW,257,20.0,33.0,82,0.00,,,0.00,VWS V14.01,2013-12-26 16:14:00,
2013-12-26 11:15:00,28.2,23.4,30.17,West,272,23.0,33.0,82,0.00,,,0.00,VWS V14.01,2013-12-26 16:15:00,
2013-12-26 11:16:00,28.2,23.4,30.17,West,269,19.0,33.0,82,0.00,,,0.00,VWS V14.01,2013-12-26 16:16:00,
2013-12-26 11:17:00,28.3,23.5,30.17,WNW,286,21.0,33.0,82,0.00,,,0.00,VWS V14.01,2013-12-26 16:17:00,
2013-12-26 11:18:00,28.3,23.5,30.17,WNW,300,22.0,33.0,82,0.00,,,0.00,VWS V14.01,2013-12-26 16:18:00,
2013-12-26 11:19:00,28.4,23.6,30.17,West,263,19.0,33.0,82,0.00,,,0.00,VWS V14.01,2013-12-26 16:19:00,
2013-12-26 11:20:00,28.3,23.5,30.17,West,263,21.0,26.0,82,0.00,,,0.00,VWS V14.01,2013-12-26 16:20:00,
2013-12-26 11:21:00,28.4,23.3,30.17,West,259,18.0,26.0,81,0.00,,,0.00,VWS V14.01,2013-12-26 16:21:00,
2013-12-26 11:22:00,28.5,23.4,30.17,WNW,282,17.0,26.0,81,0.00,,,0.00,VWS V14.01,2013-12-26 16:22:00,
2013-12-26 11:23:00,28.5,23.4,30.17,WNW,287,21.0,27.0,81,0.00,,,0.00,VWS V14.01,2013-12-26 16:23:00,
2013-12-26 11:24:00,28.5,23.4,30.17,WSW,256,16.0,27.0,81,0.00,,,0.00,VWS V14.01,2013-12-26 16:24:00,
2013-12-26 11:25:00,28.2,23.4,30.17,West,273,16.0,33.0,82,0.00,,,0.00,VWS V14.01,2013-12-26 16:25:00,
2013-12-26 11:26:00,28.5,23.4,30.17,WSW,251,13.0,27.0,81,0.00,,,0.00,VWS V14.01,2013-12-26 16:26:00,
2013-12-26 11:27:00,28.6,23.5,30.17,West,259,14.0,27.0,81,0.00,,,0.00,VWS V14.01,2013-12-26 16:27:00,
2013-12-26 11:28:00,28.6,23.5,30.17,WNW,296,16.0,27.0,81,0.00,,,0.00,VWS V14.01,2013-12-26 16:28:00,
2013-12-26 11:29:00,28.6,23.2,30.16,West,281,14.0,27.0,80,0.00,,,0.00,VWS V14.01,2013-12-26 16:29:00,
2013-12-26 11:30:00,28.4,23.3,30.17,West,275,13.0,26.0,81,0.00,,,0.00,VWS V14.01,2013-12-26 16:30:00,
2013-12-26 11:31:00,28.6,23.2,30.16,WNW,291,18.0,26.0,80,0.00,,,0.00,VWS V14.01,2013-12-26 16:31:00,
2013-12-26 11:32:00,28.5,23.1,30.16,WSW,250,17.0,26.0,80,0.00,,,0.00,VWS V14.01,2013-12-26 16:32:00,
2013-12-26 11:33:00,28.5,23.1,30.16,West,273,17.0,26.0,80,0.00,,,0.00,VWS V14.01,2013-12-26 16:33:00,
2013-12-26 11:34:00,28.5,23.1,30.16,West,273,15.0,26.0,80,0.00,,,0.00,VWS V14.01,2013-12-26 16:34:00,
2013-12-26 11:35:00,28.5,23.4,30.17,West,270,13.0,27.0,81,0.00,,,0.00,VWS V14.01,2013-12-26 16:35:00,
2013-12-26 11:36:00,28.5,23.1,30.16,West,272,19.0,26.0,80,0.00,,,0.00,VWS V14.01,2013-12-26 16:36:00,
2013-12-26 11:37:00,28.6,23.2,30.16,West,269,22.0,30.0,80,0.00,,,0.00,VWS V14.01,2013-12-26 16:37:00,
2013-12-26 11:38:00,28.6,23.2,30.16,WNW,288,22.0,30.0,80,0.00,,,0.00,VWS V14.01,2013-12-26 16:38:00,
2013-12-26 11:39:00,28.6,23.2,30.16,West,261,15.0,30.0,80,0.00,,,0.00,VWS V14.01,2013-12-26 16:39:00,
2013-12-26 11:40:00,28.6,23.2,30.16,WNW,299,25.0,26.0,80,0.00,,,0.00,VWS V14.01,2013-12-26 16:40:00,
2013-12-26 11:41:00,28.7,23.3,30.16,WSW,252,15.0,23.0,80,0.00,,,0.00,VWS V14.01,2013-12-26 16:41:00,
2013-12-26 11:42:00,28.7,23.3,30.16,West,269,21.0,23.0,80,0.00,,,0.00,VWS V14.01,2013-12-26 16:42:00,
2013-12-26 11:43:00,28.7,23.3,30.16,WSW,243,23.0,28.0,80,0.00,,,0.00,VWS V14.01,2013-12-26 16:43:00,
2013-12-26 11:44:00,28.6,23.2,30.15,West,276,21.0,28.0,80,0.00,,,0.00,VWS V14.01,2013-12-26 16:44:00,
2013-12-26 11:45:00,28.5,23.4,30.16,WNW,287,21.0,26.0,81,0.00,,,0.00,VWS V14.01,2013-12-26 16:45:00,
2013-12-26 11:46:00,28.6,22.9,30.15,West,265,16.0,34.0,79,0.00,,,0.00,VWS V14.01,2013-12-26 16:46:00,
2013-12-26 11:47:00,28.6,22.9,30.15,West,261,17.0,34.0,79,0.00,,,0.00,VWS V14.01,2013-12-26 16:47:00,
2013-12-26 11:48:00,28.5,22.8,30.15,West,279,28.0,34.0,79,0.00,,,0.00,VWS V14.01,2013-12-26 16:48:00,
2013-12-26 11:49:00,28.4,22.7,30.15,WNW,290,24.0,34.0,79,0.00,,,0.00,VWS V14.01,2013-12-26 16:49:00,
2013-12-26 11:50:00,28.7,23.3,30.16,WSW,257,17.0,22.0,80,0.00,,,0.00,VWS V14.01,2013-12-26 16:50:00,
2013-12-26 11:51:00,28.4,22.7,30.15,WSW,245,19.0,32.0,79,0.00,,,0.00,VWS V14.01,2013-12-26 16:51:00,
2013-12-26 11:52:00,28.4,22.7,30.15,West,276,26.0,32.0,79,0.00,,,0.00,VWS V14.01,2013-12-26 16:52:00,
2013-12-26 11:53:00,28.4,22.7,30.15,WSW,244,17.0,34.0,79,0.00,,OVC016,0.00,VWS V14.01,2013-12-26 16:53:00,
2013-12-26 11:54:00,28.4,22.7,30.15,West,277,21.0,34.0,79,0.00,,OVC016,0.00,VWS V14.01,2013-12-26 16:54:00,
2013-12-26 11:55:00,28.6,22.9,30.15,WNW,297,16.0,34.0,79,0.00,,,0.00,VWS V14.01,2013-12-26 16:55:00,
2013-12-26 11:56:00,28.4,22.7,30.15,West,281,12.0,34.0,79,0.00,,OVC016,0.00,VWS V14.01,2013-12-26 16:56:00,
2013-12-26 11:57:00,28.4,22.7,30.15,West,263,15.0,34.0,79,0.00,,OVC016,0.00,VWS V14.01,2013-12-26 16:57:00,
2013-12-26 11:58:00,28.5,22.8,30.15,West,281,27.0,34.0,79,0.00,,OVC016,0.00,VWS V14.01,2013-12-26 16:58:00,
2013-12-26 11:59:00,28.5,22.8,30.14,WSW,254,16.0,34.0,79,0.00,,OVC016,0.00,VWS V14.01,2013-12-26 16:59:00,
2013-12-26 12:00:00,28.4,22.7,30.15,West,281,28.0,32.0,79,0.00,,,0.00,VWS V14.01,2013-12-26 17:00:00,
2013-12-26 12:01:00,28.4,22.7,30.14,West,259,18.0,26.0,79,0.00,,OVC016,0.00,VWS V14.01,2013-12-26 17:01:00,
2013-12-26 12:02:00,28.4,22.7,30.14,West,260,20.0,26.0,79,0.00,,OVC016,0.00,VWS V14.01,2013-12-26 17:02:00,
2013-12-26 12:03:00,28.4,23.0,30.14,West,275,17.0,28.0,80,0.00,,OVC016,0.00,VWS V14.01,2013-12-26 17:03:00,
2013-12-26 12:04:00,28.3,22.9,30.14,WSW,243,21.0,28.0,80,0.00,,OVC016,0.00,VWS V14.01,2013-12-26 17:04:00,
2013-12-26 12:05:00,28.4,22.7,30.15,WNW,294,16.0,34.0,79,0.00,,OVC016,0.00,VWS V14.01,2013-12-26 17:05:00,
2013-12-26 12:06:00,28.3,22.9,30.14,WSW,252,12.0,28.0,80,0.00,,OVC016,0.00,VWS V14.01,2013-12-26 17:06:00,
2013-12-26 12:07:00,28.4,23.0,30.14,WNW,293,19.0,28.0,80,0.00,,OVC016,0.00,VWS V14.01,2013-12-26 17:07:00,
2013-12-26 12:08:00,28.3,22.9,30.14,WNW,296,21.0,28.0,80,0.00,,OVC016,0.00,VWS V14.01,2013-12-26 17:08:00,
2013-12-26 12:09:00,28.3,22.9,30.14,WSW,253,19.0,28.0,80,0.00,,OVC016,0.00,VWS V14.01,2013-12-26 17:09:00,
2013-12-26 12:10:00,28.4,22.7,30.14,West,259,16.0,26.0,79,0.00,,OVC016,0.00,VWS V14.01,2013-12-26 17:10:00,
2013-12-26 12:11:00,28.3,23.2,30.14,WSW,258,15.0,26.0,81,0.00,,OVC016,0.00,VWS V14.01,2013-12-26 17:11:00,
2013-12-26 12:12:00,28.3,23.2,30.14,West,278,26.0,26.0,81,0.00,,OVC016,0.00,VWS V14.01,2013-12-26 17:12:00,
2013-12-26 12:13:00,28.4,23.3,30.14,WSW,258,20.0,26.0,81,0.00,,OVC016,0.00,VWS V14.01,2013-12-26 17:13:00,
2013-12-26 12:14:00,28.4,23.3,30.14,WNW,283,12.0,26.0,81,0.00,,OVC016,0.00,VWS V14.01,2013-12-26 17:14:00,
2013-12-26 12:15:00,28.3,22.9,30.14,WNW,287,14.0,28.0,80,0.00,,OVC016,0.00,VWS V14.01,2013-12-26 17:15:00,
2013-12-26 12:16:00,28.5,23.4,30.14,West,281,11.0,26.0,81,0.00,,OVC016,0.00,VWS V14.01,2013-12-26 17:16:00,
2013-12-26 12:17:00,28.7,23.6,30.14,West,264,13.0,26.0,81,0.00,,OVC016,0.00,VWS V14.01,2013-12-26 17:17:00,
2013-12-26 12:18:00,28.7,23.6,30.14,WSW,247,20.0,26.0,81,0.00,,OVC016,0.00,VWS V14.01,2013-12-26 17:18:00,
2013-12-26 12:19:00,28.7,23.3,30.14,WSW,246,15.0,26.0,80,0.00,,OVC016,0.00,VWS V14.01,2013-12-26 17:19:00,
2013-12-26 12:20:00,28.3,22.9,30.14,West,267,15.0,26.0,80,0.00,,OVC016,0.00,VWS V14.01,2013-12-26 17:20:00,
2013-12-26 12:21:00,28.8,23.4,30.14,WSW,255,14.0,19.0,80,0.00,,OVC016,0.00,VWS V14.01,2013-12-26 17:21:00,
2013-12-26 12:22:00,28.8,23.4,30.14,WSW,256,17.0,19.0,80,0.00,,OVC016,0.00,VWS V14.01,2013-12-26 17:22:00,
2013-12-26 12:23:00,28.9,23.5,30.14,WNW,289,22.0,22.0,80,0.00,,OVC029,0.00,VWS V14.01,2013-12-26 17:23:00,
2013-12-26 12:24:00,28.9,23.5,30.14,WNW,283,21.0,22.0,80,0.00,,OVC029,0.00,VWS V14.01,2013-12-26 17:24:00,
2013-12-26 12:25:00,28.5,23.4,30.14,West,265,13.0,26.0,81,0.00,,OVC016,0.00,VWS V14.01,2013-12-26 17:25:00,
2013-12-26 12:26:00,29.0,23.0,30.14,West,264,23.0,28.0,78,0.00,,OVC029,0.00,VWS V14.01,2013-12-26 17:26:00,
2013-12-26 12:27:00,29.0,23.0,30.14,West,271,19.0,28.0,78,0.00,,OVC029,0.00,VWS V14.01,2013-12-26 17:27:00,
2013-12-26 12:28:00,29.0,23.0,30.14,West,261,25.0,29.0,78,0.00,,OVC029,0.00,VWS V14.01,2013-12-26 17:28:00,
2013-12-26 12:29:00,29.0,22.7,30.14,West,268,30.0,33.0,77,0.00,,OVC029,0.00,VWS V14.01,2013-12-26 17:29:00,
2013-12-26 12:30:00,28.8,23.4,30.14,West,263,15.0,19.0,80,0.00,,OVC016,0.00,VWS V14.01,2013-12-26 17:30:00,
2013-12-26 12:31:00,29.0,22.4,30.14,WNW,284,21.0,26.0,76,0.00,,OVC029,0.00,VWS V14.01,2013-12-26 17:31:00,
2013-12-26 12:32:00,29.1,22.8,30.14,West,261,22.0,29.0,77,0.00,,OVC029,0.00,VWS V14.01,2013-12-26 17:32:00,
2013-12-26 12:33:00,29.2,22.9,30.14,West,264,17.0,29.0,77,0.00,,OVC029,0.00,VWS V14.01,2013-12-26 17:33:00,
2013-12-26 12:34:00,29.3,22.7,30.14,West,278,17.0,29.0,76,0.00,,OVC029,0.00,VWS V14.01,2013-12-26 17:34:00,
2013-12-26 12:35:00,29.2,22.6,30.14,West,277,17.0,29.0,76,0.00,,OVC029,0.00,VWS V14.01,2013-12-26 17:35:00,
2013-12-26 12:36:00,29.0,23.0,30.14,West,267,21.0,28.0,78,0.00,,OVC029,0.00,VWS V14.01,2013-12-26 17:36:00,
2013-12-26 12:37:00,29.2,22.6,30.14,West,263,25.0,29.0,76,0.00,,OVC029,0.00,VWS V14.01,2013-12-26 17:37:00,
2013-12-26 12:38:00,29.2,22.6,30.14,NW,306,20.0,29.0,76,0.00,,OVC029,0.00,VWS V14.01,2013-12-26 17:38:00,
2013-12-26 12:39:00,29.1,22.5,30.14,West,268,20.0,33.0,76,0.01,,OVC029,0.01,VWS V14.01,2013-12-26 17:39:00,
2013-12-26 12:40:00,29.0,22.7,30.14,West,275,10.0,19.0,77,0.01,,OVC029,0.01,VWS V14.01,2013-12-26 17:40:00,
2013-12-26 12:41:00,29.0,22.4,30.14,WNW,288,20.0,29.0,76,0.00,,OVC029,0.00,VWS V14.01,2013-12-26 17:41:00,
2013-12-26 12:42:00,29.1,22.8,30.14,WSW,251,17.0,29.0,77,0.01,,OVC029,0.01,VWS V14.01,2013-12-26 17:42:00,
2013-12-26 12:43:00,29.3,23.0,30.14,WSW,253,23.0,29.0,77,0.01,,OVC029,0.01,VWS V14.01,2013-12-26 17:43:00,
2013-12-26 12:44:00,29.4,23.1,30.14,NW,320,14.0,29.0,77,0.01,,OVC029,0.01,VWS V14.01,2013-12-26 17:44:00,
2013-12-26 12:45:00,29.5,22.9,30.14,SW,232,15.0,29.0,76,0.01,,OVC029,0.01,VWS V14.01,2013-12-26 17:45:00,
2013-12-26 12:46:00,29.2,22.6,30.14,West,265,19.0,29.0,76,0.00,,OVC029,0.00,VWS V14.01,2013-12-26 17:46:00,
2013-12-26 12:47:00,29.6,23.0,30.14,West,260,19.0,30.0,76,0.01,,OVC029,0.01,VWS V14.01,2013-12-26 17:47:00,
2013-12-26 12:48:00,29.7,22.8,30.14,West,267,17.0,30.0,75,0.01,,OVC029,0.01,VWS V14.01,2013-12-26 17:48:00,
2013-12-26 12:49:00,29.8,22.9,30.14,WSW,247,17.0,30.0,75,0.01,,OVC029,0.01,VWS V14.01,2013-12-26 17:49:00,
2013-12-26 12:50:00,29.7,22.8,30.14,WSW,240,26.0,30.0,75,0.01,,OVC029,0.01,VWS V14.01,2013-12-26 17:50:00,
2013-12-26 12:51:00,29.1,22.8,30.14,West,281,22.0,29.0,77,0.01,,OVC029,0.01,VWS V14.01,2013-12-26 17:51:00,
2013-12-26 12:52:00,29.4,22.5,30.14,South,175,12.0,32.0,75,0.01,,OVC029,0.01,VWS V14.01,2013-12-26 17:52:00,
2013-12-26 12:53:00,29.4,22.5,30.14,West,264,18.0,32.0,75,0.01,,OVC029,0.01,VWS V14.01,2013-12-26 17:53:00,
2013-12-26 12:54:00,29.5,22.6,30.14,WSW,248,11.0,32.0,75,0.01,,OVC029,0.01,VWS V14.01,2013-12-26 17:54:00,
2013-12-26 12:55:00,29.6,22.7,30.14,West,276,18.0,32.0,75,0.01,,OVC029,0.01,VWS V14.01,2013-12-26 17:55:00,
2013-12-26 12:56:00,29.6,23.0,30.14,WSW,251,17.0,30.0,76,0.01,,OVC029,0.01,VWS V14.01,2013-12-26 17:56:00,
2013-12-26 12:57:00,29.5,22.2,30.14,West,265,27.0,32.0,74,0.01,,OVC029,0.01,VWS V14.01,2013-12-26 17:57:00,
2013-12-26 12:58:00,29.5,22.2,30.14,WSW,257,16.0,32.0,74,0.01,,OVC029,0.01,VWS V14.01,2013-12-26 17:58:00,
2013-12-26 12:59:00,29.4,22.1,30.13,WSW,256,17.0,32.0,74,0.01,,OVC029,0.01,VWS V14.01,2013-12-26 17:59:00,
2013-12-26 13:00:00,29.4,22.1,30.13,WSW,256,20.0,28.0,74,0.01,,OVC029,0.01,VWS V14.01,2013-12-26 18:00:00,
2013-12-26 13:01:00,29.5,22.6,30.14,WSW,252,29.0,32.0,75,0.01,,OVC029,0.01,VWS V14.01,2013-12-26 18:01:00,
2013-12-26 13:02:00,29.6,22.4,30.13,NNW,329,17.0,28.0,74,0.01,,OVC029,0.01,VWS V14.01,2013-12-26 18:02:00,
2013-12-26 13:03:00,29.6,22.4,30.13,West,268,16.0,28.0,74,0.01,,OVC029,0.01,VWS V14.01,2013-12-26 18:03:00,
2013-12-26 13:04:00,29.6,22.4,30.13,West,281,28.0,28.0,74,0.01,,OVC029,0.01,VWS V14.01,2013-12-26 18:04:00,
2013-12-26 13:05:00,29.6,22.4,30.13,West,271,18.0,36.0,74,0.01,,OVC029,0.01,VWS V14.01,2013-12-26 18:05:00,
2013-12-26 13:06:00,29.6,22.4,30.14,WSW,254,19.0,32.0,74,0.01,,OVC029,0.01,VWS V14.01,2013-12-26 18:06:00,
2013-12-26 13:07:00,29.6,22.4,30.13,WSW,241,21.0,36.0,74,0.01,,OVC029,0.01,VWS V14.01,2013-12-26 18:07:00,
2013-12-26 13:08:00,29.6,22.4,30.13,WSW,248,16.0,36.0,74,0.01,,OVC029,0.01,VWS V14.01,2013-12-26 18:08:00,
2013-12-26 13:09:00,29.5,22.2,30.13,West,267,16.0,36.0,74,0.01,,OVC029,0.01,VWS V14.01,2013-12-26 18:09:00,
2013-12-26 13:10:00,29.6,22.4,30.13,West,268,24.0,24.0,74,0.01,,OVC029,0.01,VWS V14.01,2013-12-26 18:10:00,
2013-12-26 13:11:00,29.5,22.2,30.13,WNW,296,20.0,28.0,74,0.01,,OVC029,0.01,VWS V14.01,2013-12-26 18:11:00,
2013-12-26 13:12:00,29.7,22.4,30.13,West,276,14.0,25.0,74,0.01,,OVC029,0.01,VWS V14.01,2013-12-26 18:12:00,
2013-12-26 13:13:00,29.8,22.5,30.13,WSW,249,12.0,25.0,74,0.01,,OVC029,0.01,VWS V14.01,2013-12-26 18:13:00,
2013-12-26 13:14:00,29.8,22.5,30.14,WSW,254,29.0,29.0,74,0.01,,OVC029,0.01,VWS V14.01,2013-12-26 18:14:00,
2013-12-26 13:15:00,29.7,22.1,30.14,West,263,20.0,29.0,73,0.01,,OVC029,0.01,VWS V14.01,2013-12-26 18:15:00,
2013-12-26 13:16:00,29.6,22.4,30.13,WSW,252,16.0,36.0,74,0.01,,OVC029,0.01,VWS V14.01,2013-12-26 18:16:00,
2013-12-26 13:17:00,29.9,22.3,30.14,West,275,12.0,29.0,73,0.01,,OVC029,0.01,VWS V14.01,2013-12-26 18:17:00,
2013-12-26 13:18:00,29.9,22.3,30.14,West,279,4.0,29.0,73,0.01,,OVC029,0.01,VWS V14.01,2013-12-26 18:18:00,
2013-12-26 13:19:00,30.1,22.5,30.14,WSW,253,12.0,29.0,73,0.01,,OVC029,0.01,VWS V14.01,2013-12-26 18:19:00,
2013-12-26 13:20:00,30.1,22.8,30.14,WNW,286,13.0,14.0,74,0.01,,OVC029,0.01,VWS V14.01,2013-12-26 18:20:00,
2013-12-26 13:21:00,29.7,22.4,30.13,WNW,287,17.0,25.0,74,0.01,,OVC029,0.01,VWS V14.01,2013-12-26 18:21:00,
2013-12-26 13:22:00,30.2,22.6,30.14,WSW,242,19.0,19.0,73,0.01,,OVC029,0.01,VWS V14.01,2013-12-26 18:22:00,
2013-12-26 13:23:00,30.2,22.9,30.14,WSW,242,15.0,24.0,74,0.01,,,0.01,VWS V14.01,2013-12-26 18:23:00,
2013-12-26 13:24:00,30.1,22.5,30.14,SW,227,10.0,24.0,73,0.01,,,0.01,VWS V14.01,2013-12-26 18:24:00,
2013-12-26 13:25:00,30.0,22.4,30.14,WSW,247,13.0,24.0,73,0.01,,,0.01,VWS V14.01,2013-12-26 18:25:00,
2013-12-26 13:26:00,29.8,22.2,30.14,WSW,257,17.0,29.0,73,0.01,,OVC029,0.01,VWS V14.01,2013-12-26 18:26:00,
2013-12-26 13:27:00,29.9,22.3,30.14,West,260,27.0,29.0,73,0.01,,,0.01,VWS V14.01,2013-12-26 18:27:00,
2013-12-26 13:28:00,29.9,22.3,30.14,WSW,253,17.0,29.0,73,0.01,,,0.01,VWS V14.01,2013-12-26 18:28:00,
2013-12-26 13:29:00,29.9,22.3,30.15,WSW,250,12.0,29.0,73,0.01,,,0.01,VWS V14.01,2013-12-26 18:29:00,
2013-12-26 13:30:00,29.9,22.3,30.15,West,281,19.0,19.0,73,0.01,,,0.01,VWS V14.01,2013-12-26 18:30:00,
2013-12-26 13:31:00,30.2,22.9,30.14,NW,309,10.0,19.0,74,0.01,,OVC029,0.01,VWS V14.01,2013-12-26 18:31:00,
2013-12-26 13:32:00,29.8,22.2,30.15,West,275,13.0,24.0,73,0.01,,,0.01,VWS V14.01,2013-12-26 18:32:00,
2013-12-26 13:33:00,29.8,22.2,30.15,WSW,250,12.0,24.0,73,0.01,,,0.01,VWS V14.01,2013-12-26 18:33:00,
2013-12-26 13:34:00,29.8,22.2,30.15,West,269,16.0,24.0,73,0.01,,,0.01,VWS V14.01,2013-12-26 18:34:00,
2013-12-26 13:35:00,29.7,22.1,30.15,WSW,256,10.0,24.0,73,0.01,,,0.01,VWS V14.01,2013-12-26 18:35:00,
2013-12-26 13:36:00,29.9,22.3,30.14,SW,227,18.0,24.0,73,0.01,,,0.01,VWS V14.01,2013-12-26 18:36:00,
2013-12-26 13:37:00,29.8,22.2,30.15,West,263,18.0,24.0,73,0.01,,,0.01,VWS V14.01,2013-12-26 18:37:00,
2013-12-26 13:38:00,29.9,22.3,30.15,West,270,14.0,24.0,73,0.01,,,0.01,VWS V14.01,2013-12-26 18:38:00,
2013-12-26 13:39:00,30.0,22.4,30.15,WSW,253,13.0,24.0,73,0.01,,,0.01,VWS V14.01,2013-12-26 18:39:00,
2013-12-26 13:40:00,30.1,22.5,30.15,West,279,15.0,23.0,73,0.00,,,0.01,VWS V14.01,2013-12-26 18:40:00,
2013-12-26 13:41:00,29.8,22.2,30.15,WSW,246,20.0,24.0,73,0.01,,,0.01,VWS V14.01,2013-12-26 18:41:00,
2013-12-26 13:42:00,30.1,22.2,30.15,WSW,250,10.0,23.0,72,0.00,,,0.01,VWS V14.01,2013-12-26 18:42:00,
2013-12-26 13:43:00,30.0,22.1,30.15,West,265,13.0,23.0,72,0.00,,,0.01,VWS V14.01,2013-12-26 18:43:00,
2013-12-26 13:44:00,30.0,22.1,30.15,West,271,10.0,23.0,72,0.00,,,0.01,VWS V14.01,2013-12-26 18:44:00,
2013-12-26 13:45:00,30.1,22.2,30.15,WNW,294,11.0,23.0,72,0.00,,,0.01,VWS V14.01,2013-12-26 18:45:00,
2013-12-26 13:46:00,29.8,22.2,30.15,SW,236,16.0,24.0,73,0.01,,,0.01,VWS V14.01,2013-12-26 18:46:00,
2013-12-26 13:47:00,30.2,22.3,30.15,WNW,286,24.0,26.0,72,0.00,,,0.01,VWS V14.01,2013-12-26 18:47:00,
2013-12-26 13:48:00,30.2,22.3,30.15,WSW,239,14.0,26.0,72,0.00,,,0.01,VWS V14.01,2013-12-26 18:48:00,
2013-12-26 13:49:00,30.1,22.2,30.15,WNW,302,6.0,26.0,72,0.00,,,0.01,VWS V14.01,2013-12-26 18:49:00,
2013-12-26 13:50:00,30.1,22.2,30.15,WSW,242,9.0,15.0,72,0.00,,,0.01,VWS V14.01,2013-12-26 18:50:00,
2013-12-26 13:51:00,30.1,22.2,30.15,WSW,252,14.0,23.0,72,0.00,,,0.01,VWS V14.01,2013-12-26 18:51:00,
2013-12-26 13:52:00,30.2,22.3,30.15,WNW,284,10.0,15.0,72,0.00,,,0.01,VWS V14.01,2013-12-26 18:52:00,
2013-12-26 13:53:00,30.3,22.4,30.15,WSW,248,11.0,16.0,72,0.00,,,0.01,VWS V14.01,2013-12-26 18:53:00,
2013-12-26 13:54:00,30.4,22.5,30.15,WNW,296,19.0,25.0,72,0.00,,,0.01,VWS V14.01,2013-12-26 18:54:00,
2013-12-26 13:55:00,30.5,22.6,30.15,West,279,9.0,25.0,72,0.00,,,0.01,VWS V14.01,2013-12-26 18:55:00,
2013-12-26 13:56:00,30.2,22.3,30.15,West,277,18.0,23.0,72,0.00,,,0.01,VWS V14.01,2013-12-26 18:56:00,
2013-12-26 13:57:00,30.6,22.3,30.15,WNW,294,14.0,25.0,71,0.00,,,0.01,VWS V14.01,2013-12-26 18:57:00,
2013-12-26 13:58:00,30.6,22.3,30.15,West,269,13.0,25.0,71,0.00,,,0.01,VWS V14.01,2013-12-26 18:58:00,
2013-12-26 13:59:00,30.4,22.1,30.15,WSW,256,15.0,25.0,71,0.00,,,0.01,VWS V14.01,2013-12-26 18:59:00,
2013-12-26 14:00:00,30.3,22.0,30.15,WSW,253,13.0,15.0,71,0.00,,,0.01,VWS V14.01,2013-12-26 19:00:00,
2013-12-26 14:01:00,30.2,22.3,30.15,West,281,12.0,15.0,72,0.00,,,0.01,VWS V14.01,2013-12-26 19:01:00,
2013-12-26 14:02:00,30.2,23.6,30.15,WSW,249,7.0,15.0,76,0.00,,,0.01,VWS V14.01,2013-12-26 19:02:00,
2013-12-26 14:03:00,30.2,22.3,30.15,WNW,303,4.0,15.0,72,0.00,,,0.01,VWS V14.01,2013-12-26 19:03:00,
2013-12-26 14:04:00,30.3,22.4,30.15,West,267,9.0,15.0,72,0.00,,,0.01,VWS V14.01,2013-12-26 19:04:00,
2013-12-26 14:05:00,30.3,22.4,30.15,WSW,254,13.0,15.0,72,0.00,,,0.01,VWS V14.01,2013-12-26 19:05:00,
2013-12-26 14:06:00,30.6,22.7,30.15,WNW,291,14.0,25.0,72,0.00,,,0.01,VWS V14.01,2013-12-26 19:06:00,
2013-12-26 14:07:00,30.4,22.5,30.15,West,279,9.0,15.0,72,0.00,,,0.01,VWS V14.01,2013-12-26 19:07:00,
2013-12-26 14:08:00,30.3,22.4,30.15,WNW,289,13.0,16.0,72,0.00,,,0.01,VWS V14.01,2013-12-26 19:08:00,
2013-12-26 14:09:00,30.4,22.5,30.15,WSW,245,14.0,20.0,72,0.00,,,0.01,VWS V14.01,2013-12-26 19:09:00,
2013-12-26 14:10:00,30.3,22.4,30.15,WSW,250,15.0,21.0,72,0.00,,,0.01,VWS V14.01,2013-12-26 19:10:00,
2013-12-26 14:11:00,30.2,23.6,30.15,West,273,7.0,15.0,76,0.00,,,0.01,VWS V14.01,2013-12-26 19:11:00,
2013-12-26 14:12:00,30.2,22.3,30.15,WSW,255,5.0,21.0,72,0.00,,,0.01,VWS V14.01,2013-12-26 19:12:00,
2013-12-26 14:13:00,30.2,22.3,30.15,WSW,247,14.0,21.0,72,0.00,,,0.01,VWS V14.01,2013-12-26 19:13:00,
2013-12-26 14:14:00,30.2,22.3,30.16,WSW,254,22.0,26.0,72,0.00,,,0.01,VWS V14.01,2013-12-26 19:14:00,
2013-12-26 14:15:00,30.1,21.9,30.16,West,259,14.0,26.0,71,0.00,,,0.01,VWS V14.01,2013-12-26 19:15:00,
2013-12-26 14:16:00,30.4,22.5,30.15,WSW,257,9.0,15.0,72,0.00,,,0.01,VWS V14.01,2013-12-26 19:16:00,
2013-12-26 14:17:00,30.0,21.8,30.16,West,281,13.0,26.0,71,0.00,,,0.01,VWS V14.01,2013-12-26 19:17:00,
2013-12-26 14:18:00,30.2,21.9,30.16,West,264,13.0,26.0,71,0.00,,,0.01,VWS V14.01,2013-12-26 19:18:00,
2013-12-26 14:19:00,30.3,22.0,30.16,West,267,14.0,26.0,71,0.00,,,0.01,VWS V14.01,2013-12-26 19:19:00,
2013-12-26 14:20:00,30.3,21.7,30.16,West,264,15.0,19.0,70,0.00,,,0.01,VWS V14.01,2013-12-26 19:20:00,
2013-12-26 14:21:00,30.2,22.3,30.15,WNW,283,9.0,21.0,72,0.00,,,0.01,VWS V14.01,2013-12-26 19:21:00,
2013-12-26 14:22:00,30.3,21.7,30.16,West,270,16.0,19.0,70,0.00,,,0.01,VWS V14.01,2013-12-26 19:22:00,
2013-12-26 14:23:00,30.3,21.4,30.16,WNW,298,20.0,22.0,69,0.00,,OVC042,0.01,VWS V14.01,2013-12-26 19:23:00,
2013-12-26 14:24:00,30.3,21.4,30.16,WNW,283,17.0,23.0,69,0.00,,OVC042,0.01,VWS V14.01,2013-12-26 19:24:00,
2013-12-26 14:25:00,30.4,21.5,30.16,WNW,300,26.0,30.0,69,0.00,,OVC042,0.01,VWS V14.01,2013-12-26 19:25:00,
2013-12-26 14:26:00,30.0,21.8,30.16,West,281,13.0,26.0,71,0.00,,,0.01,VWS V14.01,2013-12-26 19:26:00,
2013-12-26 14:27:00,30.5,21.6,30.16,WNW,296,20.0,30.0,69,0.00,,OVC042,0.01,VWS V14.01,2013-12-26 19:27:00,
2013-12-26 14:28:00,30.5,21.2,30.16,WNW,282,18.0,30.0,68,0.00,,OVC042,0.01,VWS V14.01,2013-12-26 19:28:00,
2013-12-26 14:29:00,30.6,21.3,30.17,WSW,253,16.0,30.0,68,0.00,,OVC042,0.01,VWS V14.01,2013-12-26 19:29:00,
2013-12-26 14:30:00,30.6,21.3,30.17,WSW,253,14.0,15.0,68,0.00,,OVC042,0.01,VWS V14.01,2013-12-26 19:30:00,
2013-12-26 14:31:00,30.3,21.7,30.16,West,262,14.0,19.0,70,0.00,,,0.01,VWS V14.01,2013-12-26 19:31:00,
2013-12-26 14:32:00,30.6,21.3,30.17,West,271,14.0,31.0,68,0.00,,OVC042,0.01,VWS V14.01,2013-12-26 19:32:00,
2013-12-26 14:33:00,30.7,21.4,30.17,West,273,10.0,31.0,68,0.00,,OVC042,0.01,VWS V14.01,2013-12-26 19:33:00,
2013-12-26 14:34:00,30.7,21.4,30.17,West,280,14.0,31.0,68,0.00,,OVC042,0.01,VWS V14.01,2013-12-26 19:34:00,
2013-12-26 14:35:00,30.7,21.4,30.17,West,269,10.0,31.0,68,0.00,,OVC042,0.01,VWS V14.01,2013-12-26 19:35:00,
2013-12-26 14:36:00,30.8,21.5,30.17,West,273,10.0,31.0,68,0.00,,OVC042,0.01,VWS V14.01,2013-12-26 19:36:00,
2013-12-26 14:37:00,30.5,21.6,30.16,WNW,286,26.0,30.0,69,0.00,,OVC042,0.01,VWS V14.01,2013-12-26 19:37:00,
2013-12-26 14:38:00,31.1,22.1,30.17,WSW,250,10.0,31.0,69,0.00,,OVC042,0.01,VWS V14.01,2013-12-26 19:38:00,
2013-12-26 14:39:00,31.2,21.9,30.17,West,273,12.0,31.0,68,0.00,,OVC042,0.01,VWS V14.01,2013-12-26 19:39:00,
2013-12-26 14:40:00,31.2,21.9,30.17,SW,236,18.0,18.0,68,0.00,,OVC042,0.01,VWS V14.01,2013-12-26 19:40:00,
2013-12-26 14:41:00,31.2,21.9,30.17,WSW,244,21.0,21.0,68,0.00,,OVC042,0.01,VWS V14.01,2013-12-26 19:41:00,
2013-12-26 14:42:00,30.7,21.4,30.17,West,261,15.0,31.0,68,0.00,,OVC042,0.01,VWS V14.01,2013-12-26 19:42:00,
2013-12-26 14:43:00,31.1,21.8,30.17,WSW,237,15.0,21.0,68,0.00,,OVC042,0.01,VWS V14.01,2013-12-26 19:43:00,
2013-12-26 14:44:00,31.0,21.7,30.17,West,259,7.0,21.0,68,0.00,,OVC042,0.01,VWS V14.01,2013-12-26 19:44:00,
2013-12-26 14:45:00,31.1,22.1,30.17,WSW,258,20.0,21.0,69,0.00,,OVC042,0.01,VWS V14.01,2013-12-26 19:45:00,
2013-12-26 14:46:00,31.0,22.0,30.17,SSW,204,3.0,22.0,69,0.00,,OVC042,0.01,VWS V14.01,2013-12-26 19:46:00,
2013-12-26 14:47:00,31.0,22.0,30.17,WSW,256,13.0,31.0,69,0.00,,OVC042,0.01,VWS V14.01,2013-12-26 19:47:00,
2013-12-26 14:48:00,30.7,21.8,30.17,WSW,248,14.0,22.0,69,0.00,,OVC042,0.01,VWS V14.01,2013-12-26 19:48:00,
2013-12-26 14:49:00,30.6,21.3,30.17,WSW,250,9.0,22.0,68,0.00,,OVC042,0.01,VWS V14.01,2013-12-26 19:49:00,
2013-12-26 14:50:00,30.5,21.2,30.17,West,261,20.0,22.0,68,0.00,,OVC042,0.01,VWS V14.01,2013-12-26 19:50:00,
2013-12-26 14:51:00,30.4,21.1,30.17,West,259,20.0,22.0,68,0.00,,OVC042,0.01,VWS V14.01,2013-12-26 19:51:00,
2013-12-26 14:52:00,31.1,21.8,30.17,West,262,9.0,21.0,68,0.00,,OVC042,0.01,VWS V14.01,2013-12-26 19:52:00,
2013-12-26 14:53:00,30.4,21.1,30.17,West,270,7.0,23.0,68,0.00,,OVC042,0.01,VWS V14.01,2013-12-26 19:53:00,
2013-12-26 14:54:00,30.3,21.0,30.17,West,268,6.0,23.0,68,0.00,,OVC042,0.01,VWS V14.01,2013-12-26 19:54:00,
2013-12-26 14:55:00,30.3,21.4,30.17,WNW,292,12.0,23.0,69,0.00,,OVC042,0.01,VWS V14.01,2013-12-26 19:55:00,
2013-12-26 14:56:00,30.4,21.5,30.17,West,260,10.0,23.0,69,0.00,,OVC042,0.01,VWS V14.01,2013-12-26 19:56:00,
2013-12-26 14:57:00,30.8,21.9,30.17,WSW,252,13.0,22.0,69,0.00,,OVC042,0.01,VWS V14.01,2013-12-26 19:57:00,
2013-12-26 14:58:00,30.3,21.4,30.17,WSW,252,11.0,23.0,69,0.00,,OVC042,0.01,VWS V14.01,2013-12-26 19:58:00,
2013-12-26 14:59:00,30.2,21.3,30.19,WSW,252,20.0,24.0,69,0.00,,OVC042,0.01,VWS V14.01,2013-12-26 19:59:00,
2013-12-26 15:00:00,30.2,21.3,30.19,WSW,255,11.0,23.0,69,0.00,,OVC042,0.01,VWS V14.01,2013-12-26 20:00:00,
2013-12-26 15:01:00,30.3,21.4,30.19,West,265,12.0,23.0,69,0.00,,OVC042,0.01,VWS V14.01,2013-12-26 20:01:00,
2013-12-26 15:02:00,30.3,21.0,30.17,West,279,16.0,23.0,68,0.00,,OVC042,0.01,VWS V14.01,2013-12-26 20:02:00,
2013-12-26 15:03:00,30.3,21.0,30.19,West,275,18.0,23.0,68,0.00,,OVC042,0.01,VWS V14.01,2013-12-26 20:03:00,
2013-12-26 15:04:00,30.3,21.0,30.19,WSW,254,14.0,23.0,68,0.00,,OVC042,0.01,VWS V14.01,2013-12-26 20:04:00,
2013-12-26 15:05:00,30.3,21.0,30.19,WNW,292,15.0,23.0,68,0.00,,OVC042,0.01,VWS V14.01,2013-12-26 20:05:00,
2013-12-26 15:06:00,30.4,21.1,30.19,West,263,10.0,23.0,68,0.00,,OVC042,0.01,VWS V14.01,2013-12-26 20:06:00,
2013-12-26 15:07:00,30.3,21.4,30.17,WSW,253,12.0,23.0,69,0.00,,OVC042,0.01,VWS V14.01,2013-12-26 20:07:00,
2013-12-26 15:08:00,30.5,21.2,30.19,WNW,290,11.0,23.0,68,0.00,,OVC042,0.01,VWS V14.01,2013-12-26 20:08:00,
2013-12-26 15:09:00,30.6,21.3,30.19,West,281,11.0,23.0,68,0.00,,OVC042,0.01,VWS V14.01,2013-12-26 20:09:00,
2013-12-26 15:10:00,30.6,21.3,30.19,WSW,257,14.0,15.0,68,0.00,,OVC042,0.01,VWS V14.01,2013-12-26 20:10:00,
2013-12-26 15:11:00,30.6,21.0,30.19,West,273,13.0,17.0,67,0.00,,OVC042,0.01,VWS V14.01,2013-12-26 20:11:00,
2013-12-26 15:12:00,30.3,21.0,30.19,WSW,257,15.0,23.0,68,0.00,,OVC042,0.01,VWS V14.01,2013-12-26 20:12:00,
2013-12-26 15:13:00,30.7,21.1,30.19,WSW,253,13.0,19.0,67,0.00,,OVC042,0.01,VWS V14.01,2013-12-26 20:13:00,
2013-12-26 15:14:00,30.7,21.1,30.18,WSW,250,11.0,19.0,67,0.00,,OVC042,0.01,VWS V14.01,2013-12-26 20:14:00,
2013-12-26 15:15:00,30.7,21.1,30.18,West,259,15.0,19.0,67,0.00,,OVC042,0.01,VWS V14.01,2013-12-26 20:15:00,
2013-12-26 15:16:00,30.8,21.1,30.18,WSW,256,20.0,21.0,67,0.00,,OVC042,0.01,VWS V14.01,2013-12-26 20:16:00,
2013-12-26 15:17:00,30.5,21.2,30.19,West,267,10.0,23.0,68,0.00,,OVC042,0.01,VWS V14.01,2013-12-26 20:17:00,
2013-12-26 15:18:00,30.8,20.8,30.18,WSW,250,10.0,22.0,66,0.00,,OVC042,0.01,VWS V14.01,2013-12-26 20:18:00,
2013-12-26 15:19:00,30.8,20.8,30.18,West,265,13.0,22.0,66,0.00,,OVC042,0.01,VWS V14.01,2013-12-26 20:19:00,
2013-12-26 15:20:00,30.8,20.8,30.18,West,272,15.0,16.0,66,0.00,,OVC042,0.01,VWS V14.01,2013-12-26 20:20:00,
2013-12-26 15:21:00,30.8,20.8,30.18,West,260,18.0,20.0,66,0.00,,OVC042,0.01,VWS V14.01,2013-12-26 20:21:00,
2013-12-26 15:22:00,30.7,21.1,30.19,West,265,11.0,19.0,67,0.00,,OVC042,0.01,VWS V14.01,2013-12-26 20:22:00,
2013-12-26 15:23:00,30.8,20.8,30.18,WNW,289,17.0,24.0,66,0.00,,BKN034,0.01,VWS V14.01,2013-12-26 20:23:00,
2013-12-26 15:24:00,30.9,20.9,30.18,WNW,287,12.0,24.0,66,0.00,,BKN034,0.01,VWS V14.01,2013-12-26 20:24:00,
2013-12-26 15:25:00,31.0,21.0,30.18,SW,236,9.0,24.0,66,0.00,,BKN034,0.01,VWS V14.01,2013-12-26 20:25:00,
2013-12-26 15:26:00,31.0,21.0,30.18,WNW,283,14.0,24.0,66,0.00,,BKN034,0.01,VWS V14.01,2013-12-26 20:26:00,
2013-12-26 15:27:00,30.8,20.8,30.18,WNW,289,12.0,22.0,66,0.00,,OVC042,0.01,VWS V14.01,2013-12-26 20:27:00,
2013-12-26 15:28:00,31.1,21.1,30.18,West,280,13.0,24.0,66,0.00,,BKN034,0.01,VWS V14.01,2013-12-26 20:28:00,
2013-12-26 15:29:00,31.1,21.1,30.19,West,262,13.0,24.0,66,0.00,,BKN034,0.01,VWS V14.01,2013-12-26 20:29:00,
2013-12-26 15:30:00,31.1,21.1,30.19,WNW,300,16.0,16.0,66,0.00,,BKN034,0.01,VWS V14.01,2013-12-26 20:30:00,
2013-12-26 15:31:00,31.1,21.1,30.19,West,268,13.0,20.0,66,0.00,,BKN034,0.01,VWS V14.01,2013-12-26 20:31:00,
2013-12-26 15:32:00,30.8,20.8,30.18,WNW,284,19.0,24.0,66,0.00,,BKN034,0.01,VWS V14.01,2013-12-26 20:32:00,
2013-12-26 15:33:00,31.2,21.2,30.19,WSW,248,13.0,21.0,66,0.00,,BKN034,0.01,VWS V14.01,2013-12-26 20:33:00,
2013-12-26 15:34:00,31.2,21.2,30.19,West,267,12.0,21.0,66,0.00,,BKN034,0.01,VWS V14.01,2013-12-26 20:34:00,
2013-12-26 15:35:00,31.2,21.2,30.19,WNW,295,10.0,21.0,66,0.00,,BKN034,0.01,VWS V14.01,2013-12-26 20:35:00,
2013-12-26 15:36:00,31.2,21.2,30.19,WNW,288,13.0,21.0,66,0.00,,BKN034,0.01,VWS V14.01,2013-12-26 20:36:00,
2013-12-26 15:37:00,31.0,21.0,30.18,West,273,18.0,24.0,66,0.00,,BKN034,0.01,VWS V14.01,2013-12-26 20:37:00,
2013-12-26 15:38:00,31.3,21.3,30.19,West,274,12.0,23.0,66,0.00,,BKN034,0.01,VWS V14.01,2013-12-26 20:38:00,
2013-12-26 15:39:00,31.3,21.3,30.19,SW,219,20.0,23.0,66,0.00,,BKN034,0.01,VWS V14.01,2013-12-26 20:39:00,
2013-12-26 15:40:00,31.3,21.3,30.19,West,270,24.0,25.0,66,0.00,,BKN034,0.01,VWS V14.01,2013-12-26 20:40:00,
2013-12-26 15:41:00,31.3,21.3,30.19,WSW,257,17.0,25.0,66,0.00,,BKN034,0.01,VWS V14.01,2013-12-26 20:41:00,
2013-12-26 15:42:00,31.2,21.2,30.19,WSW,256,18.0,21.0,66,0.00,,BKN034,0.01,VWS V14.01,2013-12-26 20:42:00,
2013-12-26 15:43:00,31.3,20.9,30.19,WSW,253,16.0,25.0,65,0.00,,BKN034,0.01,VWS V14.01,2013-12-26 20:43:00,
2013-12-26 15:44:00,31.3,21.3,30.19,WSW,244,18.0,25.0,66,0.00,,BKN034,0.01,VWS V14.01,2013-12-26 20:44:00,
2013-12-26 15:45:00,31.3,21.3,30.19,West,263,16.0,25.0,66,0.00,,BKN034,0.01,VWS V14.01,2013-12-26 20:45:00,
2013-12-26 15:46:00,31.3,21.3,30.19,WSW,242,13.0,25.0,66,0.00,,BKN034,0.01,VWS V14.01,2013-12-26 20:46:00,
2013-12-26 15:47:00,31.3,21.3,30.19,West,265,15.0,23.0,66,0.00,,BKN034,0.01,VWS V14.01,2013-12-26 20:47:00,
2013-12-26 15:48:00,31.3,21.3,30.19,WNW,284,13.0,25.0,66,0.00,,BKN034,0.01,VWS V14.01,2013-12-26 20:48:00,
2013-12-26 15:49:00,31.2,21.2,30.19,West,266,11.0,25.0,66,0.00,,BKN034,0.01,VWS V14.01,2013-12-26 20:49:00,
2013-12-26 15:50:00,31.2,21.2,30.19,WNW,287,12.0,14.0,66,0.00,,BKN034,0.01,VWS V14.01,2013-12-26 20:50:00,
2013-12-26 15:51:00,31.2,21.2,30.19,WSW,252,12.0,16.0,66,0.00,,BKN034,0.01,VWS V14.01,2013-12-26 20:51:00,
2013-12-26 15:52:00,31.3,20.9,30.19,WSW,257,13.0,25.0,65,0.00,,BKN034,0.01,VWS V14.01,2013-12-26 20:52:00,
2013-12-26 15:53:00,31.2,21.2,30.19,West,267,12.0,16.0,66,0.00,,BKN034,0.01,VWS V14.01,2013-12-26 20:53:00,
2013-12-26 15:54:00,31.2,21.2,30.19,West,265,6.0,16.0,66,0.00,,BKN034,0.01,VWS V14.01,2013-12-26 20:54:00,
2013-12-26 15:55:00,31.2,21.2,30.19,WSW,257,17.0,17.0,66,0.00,,BKN034,0.01,VWS V14.01,2013-12-26 20:55:00,
2013-12-26 15:56:00,31.2,21.2,30.19,WNW,282,18.0,21.0,66,0.00,,BKN034,0.01,VWS V14.01,2013-12-26 20:56:00,
2013-12-26 15:57:00,31.3,21.3,30.19,West,278,11.0,25.0,66,0.00,,BKN034,0.01,VWS V14.01,2013-12-26 20:57:00,
2013-12-26 15:58:00,31.2,20.8,30.19,West,261,12.0,22.0,65,0.00,,BKN034,0.01,VWS V14.01,2013-12-26 20:58:00,
2013-12-26 15:59:00,31.2,20.8,30.20,West,280,16.0,22.0,65,0.00,,BKN034,0.01,VWS V14.01,2013-12-26 20:59:00,
2013-12-26 16:00:00,31.2,20.8,30.20,West,281,11.0,18.0,65,0.00,,BKN034,0.01,VWS V14.01,2013-12-26 21:00:00,
2013-12-26 16:01:00,31.2,20.8,30.20,West,277,10.0,18.0,65,0.00,,BKN034,0.01,VWS V14.01,2013-12-26 21:01:00,
2013-12-26 16:02:00,31.2,21.2,30.19,West,273,12.0,16.0,66,0.00,,BKN034,0.01,VWS V14.01,2013-12-26 21:02:00,
2013-12-26 16:03:00,31.2,20.8,30.20,WSW,255,15.0,20.0,65,0.00,,BKN034,0.01,VWS V14.01,2013-12-26 21:03:00,
2013-12-26 16:04:00,31.2,20.8,30.20,West,267,13.0,20.0,65,0.00,,BKN034,0.01,VWS V14.01,2013-12-26 21:04:00,
2013-12-26 16:05:00,31.2,21.2,30.20,West,273,16.0,20.0,66,0.00,,BKN034,0.01,VWS V14.01,2013-12-26 21:05:00,
2013-12-26 16:06:00,31.2,20.8,30.20,WNW,299,10.0,20.0,65,0.00,,BKN034,0.01,VWS V14.01,2013-12-26 21:06:00,
2013-12-26 16:07:00,31.2,20.8,30.19,WSW,257,5.0,22.0,65,0.00,,BKN034,0.01,VWS V14.01,2013-12-26 21:07:00,
2013-12-26 16:08:00,31.2,20.8,30.20,West,265,11.0,20.0,65,0.00,,BKN034,0.01,VWS V14.01,2013-12-26 21:08:00,
2013-12-26 16:09:00,31.2,20.5,30.20,West,272,12.0,20.0,64,0.00,,BKN034,0.01,VWS V14.01,2013-12-26 21:09:00,
2013-12-26 16:10:00,31.2,20.5,30.20,West,261,17.0,17.0,64,0.00,,BKN034,0.01,VWS V14.01,2013-12-26 21:10:00,
2013-12-26 16:11:00,31.2,20.5,30.20,WSW,246,17.0,22.0,64,0.00,,BKN034,0.01,VWS V14.01,2013-12-26 21:11:00,
2013-12-26 16:12:00,31.2,20.8,30.20,West,268,14.0,20.0,65,0.00,,BKN034,0.01,VWS V14.01,2013-12-26 21:12:00,
2013-12-26 16:13:00,31.1,20.4,30.20,WSW,249,10.0,22.0,64,0.00,,BKN034,0.01,VWS V14.01,2013-12-26 21:13:00,
2013-12-26 16:14:00,31.1,20.4,30.20,West,259,17.0,22.0,64,0.00,,BKN034,0.01,VWS V14.01,2013-12-26 21:14:00,
2013-12-26 16:15:00,31.0,20.3,30.20,West,267,7.0,22.0,64,0.00,,BKN034,0.01,VWS V14.01,2013-12-26 21:15:00,
2013-12-26 16:16:00,31.0,20.3,30.20,WSW,245,12.0,22.0,64,0.00,,BKN034,0.01,VWS V14.01,2013-12-26 21:16:00,
2013-12-26 16:17:00,31.2,20.8,30.20,WSW,238,16.0,20.0,65,0.00,,BKN034,0.01,VWS V14.01,2013-12-26 21:17:00,
2013-12-26 16:18:00,30.8,20.4,30.20,WSW,257,16.0,22.0,65,0.00,,BKN034,0.01,VWS V14.01,2013-12-26 21:18:00,
2013-12-26 16:19:00,30.9,20.5,30.20,West,273,12.0,22.0,65,0.00,,BKN034,0.01,VWS V14.01,2013-12-26 21:19:00,
2013-12-26 16:20:00,30.9,20.5,30.20,West,273,10.0,12.0,65,0.00,,BKN034,0.01,VWS V14.01,2013-12-26 21:20:00,
2013-12-26 16:21:00,30.9,20.5,30.20,WNW,289,11.0,13.0,65,0.00,,BKN034,0.01,VWS V14.01,2013-12-26 21:21:00,
2013-12-26 16:22:00,31.2,20.5,30.20,WSW,240,12.0,22.0,64,0.00,,BKN034,0.01,VWS V14.01,2013-12-26 21:22:00,
2013-12-26 16:23:00,30.9,20.5,30.20,West,279,10.0,13.0,65,0.00,,FEW038,0.01,VWS V14.01,2013-12-26 21:23:00,
2013-12-26 16:24:00,30.8,20.4,30.20,West,259,15.0,16.0,65,0.00,,FEW038,0.01,VWS V14.01,2013-12-26 21:24:00,
2013-12-26 16:25:00,30.8,20.4,30.20,WSW,252,12.0,16.0,65,0.00,,FEW038,0.01,VWS V14.01,2013-12-26 21:25:00,
2013-12-26 16:26:00,30.8,20.4,30.20,SW,234,6.0,16.0,65,0.00,,FEW038,0.01,VWS V14.01,2013-12-26 21:26:00,
2013-12-26 16:27:00,30.8,20.4,30.20,WNW,283,18.0,22.0,65,0.00,,BKN034,0.01,VWS V14.01,2013-12-26 21:27:00,
2013-12-26 16:28:00,30.8,20.4,30.20,WSW,246,5.0,16.0,65,0.00,,FEW038,0.01,VWS V14.01,2013-12-26 21:28:00,
2013-12-26 16:29:00,30.8,20.4,30.20,SW,236,11.0,16.0,65,0.00,,FEW038,0.01,VWS V14.01,2013-12-26 21:29:00,
2013-12-26 16:30:00,30.8,20.4,30.20,WSW,258,12.0,14.0,65,0.00,,FEW038,0.01,VWS V14.01,2013-12-26 21:30:00,
2013-12-26 16:31:00,30.8,20.4,30.20,SW,227,7.0,14.0,65,0.00,,FEW038,0.01,VWS V14.01,2013-12-26 21:31:00,
2013-12-26 16:32:00,30.8,20.4,30.20,SW,229,12.0,14.0,65,0.00,,FEW038,0.01,VWS V14.01,2013-12-26 21:32:00,
2013-12-26 16:33:00,30.9,20.5,30.20,WSW,244,9.0,13.0,65,0.00,,FEW038,0.01,VWS V14.01,2013-12-26 21:33:00,
2013-12-26 16:34:00,30.7,20.3,30.20,WSW,255,7.0,14.0,65,0.00,,FEW038,0.01,VWS V14.01,2013-12-26 21:34:00,
2013-12-26 16:35:00,30.7,20.3,30.20,WSW,257,7.0,14.0,65,0.00,,FEW038,0.01,VWS V14.01,2013-12-26 21:35:00,
2013-12-26 16:36:00,30.7,20.3,30.20,WSW,246,3.0,14.0,65,0.00,,FEW038,0.01,VWS V14.01,2013-12-26 21:36:00,
2013-12-26 16:37:00,30.7,20.3,30.20,West,271,7.0,14.0,65,0.00,,FEW038,0.01,VWS V14.01,2013-12-26 21:37:00,
2013-12-26 16:38:00,30.8,20.4,30.20,West,277,4.0,16.0,65,0.00,,FEW038,0.01,VWS V14.01,2013-12-26 21:38:00,
2013-12-26 16:39:00,30.6,20.2,30.20,WSW,252,9.0,14.0,65,0.00,,FEW038,0.01,VWS V14.01,2013-12-26 21:39:00,
2013-12-26 16:40:00,30.6,20.2,30.20,WSW,247,10.0,13.0,65,0.00,,FEW038,0.01,VWS V14.01,2013-12-26 21:40:00,
2013-12-26 16:41:00,30.6,20.2,30.20,WSW,250,10.0,14.0,65,0.00,,FEW038,0.01,VWS V14.01,2013-12-26 21:41:00,
2013-12-26 16:42:00,30.6,20.2,30.20,West,281,10.0,14.0,65,0.00,,FEW038,0.01,VWS V14.01,2013-12-26 21:42:00,
2013-12-26 16:43:00,30.7,20.3,30.20,WSW,239,2.0,14.0,65,0.00,,FEW038,0.01,VWS V14.01,2013-12-26 21:43:00,
2013-12-26 16:44:00,30.4,20.1,30.21,WSW,248,7.0,14.0,65,0.00,,FEW038,0.01,VWS V14.01,2013-12-26 21:44:00,
2013-12-26 16:45:00,30.4,20.1,30.21,WNW,298,5.0,14.0,65,0.00,,FEW038,0.01,VWS V14.01,2013-12-26 21:45:00,
2013-12-26 16:46:00,30.3,20.0,30.21,West,277,6.0,14.0,65,0.00,,FEW038,0.01,VWS V14.01,2013-12-26 21:46:00,
2013-12-26 16:47:00,30.3,20.0,30.21,West,280,13.0,14.0,65,0.00,,FEW038,0.01,VWS V14.01,2013-12-26 21:47:00,
2013-12-26 16:48:00,30.6,20.2,30.20,WSW,252,6.0,14.0,65,0.00,,FEW038,0.01,VWS V14.01,2013-12-26 21:48:00,
2013-12-26 16:49:00,30.4,20.1,30.21,WSW,257,9.0,14.0,65,0.00,,FEW038,0.01,VWS V14.01,2013-12-26 21:49:00,
2013-12-26 16:50:00,30.4,20.1,30.21,SW,234,9.0,11.0,65,0.00,,FEW038,0.01,VWS V14.01,2013-12-26 21:50:00,
2013-12-26 16:51:00,30.3,20.0,30.21,WSW,240,6.0,12.0,65,0.00,,FEW038,0.01,VWS V14.01,2013-12-26 21:51:00,
2013-12-26 16:52:00,30.2,19.9,30.21,West,261,6.0,12.0,65,0.00,,FEW038,0.01,VWS V14.01,2013-12-26 21:52:00,
2013-12-26 16:53:00,30.5,20.1,30.21,West,264,10.0,14.0,65,0.00,,FEW038,0.01,VWS V14.01,2013-12-26 21:53:00,
2013-12-26 16:54:00,30.2,20.2,30.21,WSW,257,14.0,18.0,66,0.00,,FEW038,0.01,VWS V14.01,2013-12-26 21:54:00,
2013-12-26 16:55:00,30.4,20.1,30.21,West,264,11.0,18.0,65,0.00,,FEW038,0.01,VWS V14.01,2013-12-26 21:55:00,
2013-12-26 16:56:00,30.5,20.1,30.21,West,259,12.0,18.0,65,0.00,,FEW038,0.01,VWS V14.01,2013-12-26 21:56:00,
2013-12-26 16:57:00,30.5,20.1,30.21,WSW,254,13.0,18.0,65,0.00,,FEW038,0.01,VWS V14.01,2013-12-26 21:57:00,
2013-12-26 16:58:00,30.4,20.1,30.21,West,271,7.0,14.0,65,0.00,,FEW038,0.01,VWS V14.01,2013-12-26 21:58:00,
2013-12-26 16:59:00,30.5,20.1,30.21,West,267,10.0,18.0,65,0.00,,FEW038,0.01,VWS V14.01,2013-12-26 21:59:00,
2013-12-26 17:00:00,30.4,20.1,30.21,West,261,10.0,12.0,65,0.00,,FEW038,0.01,VWS V14.01,2013-12-26 22:00:00,
2013-12-26 17:01:00,30.4,20.1,30.21,WSW,241,9.0,12.0,65,0.00,,FEW038,0.01,VWS V14.01,2013-12-26 22:01:00,
2013-12-26 17:02:00,30.4,20.1,30.21,WSW,245,7.0,12.0,65,0.00,,FEW038,0.01,VWS V14.01,2013-12-26 22:02:00,
2013-12-26 17:03:00,30.2,20.2,30.21,WNW,287,10.0,12.0,66,0.00,,FEW038,0.01,VWS V14.01,2013-12-26 22:03:00,
2013-12-26 17:04:00,30.2,19.9,30.21,WSW,257,9.0,12.0,65,0.00,,FEW038,0.01,VWS V14.01,2013-12-26 22:04:00,
2013-12-26 17:05:00,30.1,19.8,30.21,West,271,10.0,16.0,65,0.00,,FEW038,0.01,VWS V14.01,2013-12-26 22:05:00,
2013-12-26 17:06:00,30.2,20.2,30.21,WNW,283,3.0,16.0,66,0.00,,FEW038,0.01,VWS V14.01,2013-12-26 22:06:00,
2013-12-26 17:07:00,30.1,20.1,30.21,West,273,5.0,16.0,66,0.00,,FEW038,0.01,VWS V14.01,2013-12-26 22:07:00,
2013-12-26 17:08:00,30.5,20.1,30.21,West,260,10.0,18.0,65,0.00,,FEW038,0.01,VWS V14.01,2013-12-26 22:08:00,
2013-12-26 17:09:00,30.1,20.1,30.21,West,263,10.0,16.0,66,0.00,,FEW038,0.01,VWS V14.01,2013-12-26 22:09:00,
2013-12-26 17:10:00,30.1,20.1,30.21,West,263,13.0,14.0,66,0.00,,FEW038,0.01,VWS V14.01,2013-12-26 22:10:00,
2013-12-26 17:11:00,30.1,20.1,30.21,WSW,245,9.0,14.0,66,0.00,,FEW038,0.01,VWS V14.01,2013-12-26 22:11:00,
2013-12-26 17:12:00,30.1,20.1,30.21,WSW,250,8.0,14.0,66,0.00,,FEW038,0.01,VWS V14.01,2013-12-26 22:12:00,
2013-12-26 17:13:00,30.2,19.9,30.21,WSW,252,10.0,12.0,65,0.00,,FEW038,0.01,VWS V14.01,2013-12-26 22:13:00,
2013-12-26 17:14:00,30.0,20.0,30.22,WSW,249,9.0,14.0,66,0.00,,FEW038,0.01,VWS V14.01,2013-12-26 22:14:00,
2013-12-26 17:15:00,30.1,20.1,30.22,West,259,4.0,14.0,66,0.00,,FEW038,0.01,VWS V14.01,2013-12-26 22:15:00,
2013-12-26 17:16:00,30.0,20.0,30.22,West,276,7.0,14.0,66,0.00,,FEW038,0.01,VWS V14.01,2013-12-26 22:16:00,
2013-12-26 17:17:00,29.9,19.9,30.22,West,261,10.0,14.0,66,0.00,,FEW038,0.01,VWS V14.01,2013-12-26 22:17:00,
2013-12-26 17:18:00,30.1,20.1,30.21,West,278,12.0,16.0,66,0.00,,FEW038,0.01,VWS V14.01,2013-12-26 22:18:00,
2013-12-26 17:19:00,30.0,20.0,30.22,West,264,12.0,14.0,66,0.00,,FEW038,0.01,VWS V14.01,2013-12-26 22:19:00,
2013-12-26 17:20:00,30.1,20.1,30.22,WSW,256,5.0,10.0,66,0.00,,FEW038,0.01,VWS V14.01,2013-12-26 22:20:00,
2013-12-26 17:21:00,30.1,19.8,30.22,SW,232,3.0,10.0,65,0.00,,FEW038,0.01,VWS V14.01,2013-12-26 22:21:00,
2013-12-26 17:22:00,30.1,19.8,30.22,West,269,9.0,10.0,65,0.00,,FEW038,0.01,VWS V14.01,2013-12-26 22:22:00,
2013-12-26 17:23:00,30.0,20.0,30.22,West,273,6.0,14.0,66,0.00,,FEW038,0.01,VWS V14.01,2013-12-26 22:23:00,
2013-12-26 17:24:00,29.9,19.6,30.22,WSW,256,10.0,11.0,65,0.00,,CLR,0.01,VWS V14.01,2013-12-26 22:24:00,
2013-12-26 17:25:00,29.9,19.6,30.22,WSW,254,6.0,11.0,65,0.00,,CLR,0.01,VWS V14.01,2013-12-26 22:25:00,
2013-12-26 17:26:00,29.8,19.8,30.22,WSW,256,4.0,11.0,66,0.00,,CLR,0.01,VWS V14.01,2013-12-26 22:26:00,
2013-12-26 17:27:00,29.8,19.8,30.22,WSW,246,5.0,11.0,66,0.00,,CLR,0.01,VWS V14.01,2013-12-26 22:27:00,
2013-12-26 17:28:00,30.0,20.0,30.22,West,277,9.0,14.0,66,0.00,,FEW038,0.01,VWS V14.01,2013-12-26 22:28:00,
2013-12-26 17:29:00,29.7,19.8,30.22,West,259,5.0,11.0,66,0.00,,CLR,0.01,VWS V14.01,2013-12-26 22:29:00,
2013-12-26 17:30:00,29.7,19.8,30.22,WNW,290,8.0,12.0,66,0.00,,CLR,0.01,VWS V14.01,2013-12-26 22:30:00,
2013-12-26 17:31:00,29.8,19.8,30.22,WSW,250,8.0,12.0,66,0.00,,CLR,0.01,VWS V14.01,2013-12-26 22:31:00,
2013-12-26 17:32:00,29.8,19.8,30.22,West,259,9.0,12.0,66,0.00,,CLR,0.01,VWS V14.01,2013-12-26 22:32:00,
2013-12-26 17:33:00,29.9,19.6,30.22,WSW,238,6.0,10.0,65,0.00,,CLR,0.01,VWS V14.01,2013-12-26 22:33:00,
2013-12-26 17:34:00,29.7,19.4,30.22,WSW,257,6.0,12.0,65,0.00,,CLR,0.01,VWS V14.01,2013-12-26 22:34:00,
2013-12-26 17:35:00,29.9,19.9,30.22,WSW,256,4.0,11.0,66,0.00,,CLR,0.01,VWS V14.01,2013-12-26 22:35:00,
2013-12-26 17:36:00,29.6,19.3,30.22,WSW,256,11.0,13.0,65,0.00,,CLR,0.01,VWS V14.01,2013-12-26 22:36:00,
2013-12-26 17:37:00,29.7,19.4,30.22,West,272,11.0,13.0,65,0.00,,CLR,0.01,VWS V14.01,2013-12-26 22:37:00,
2013-12-26 17:38:00,29.8,19.5,30.22,WSW,244,7.0,13.0,65,0.00,,CLR,0.01,VWS V14.01,2013-12-26 22:38:00,
2013-12-26 17:39:00,29.8,19.5,30.22,WSW,252,9.0,13.0,65,0.00,,CLR,0.01,VWS V14.01,2013-12-26 22:39:00,
2013-12-26 17:40:00,29.8,19.8,30.22,West,261,9.0,12.0,66,0.00,,CLR,0.01,VWS V14.01,2013-12-26 22:40:00,
2013-12-26 17:41:00,29.9,19.6,30.22,WSW,257,9.0,15.0,65,0.00,,CLR,0.01,VWS V14.01,2013-12-26 22:41:00,
2013-12-26 17:42:00,30.0,19.7,30.22,West,265,10.0,15.0,65,0.00,,CLR,0.01,VWS V14.01,2013-12-26 22:42:00,
2013-12-26 17:43:00,30.0,19.7,30.22,SW,236,9.0,15.0,65,0.00,,CLR,0.01,VWS V14.01,2013-12-26 22:43:00,
2013-12-26 17:44:00,30.0,19.7,30.22,WSW,246,7.0,15.0,65,0.00,,CLR,0.01,VWS V14.01,2013-12-26 22:44:00,
2013-12-26 17:45:00,29.6,19.3,30.22,WNW,288,10.0,13.0,65,0.00,,CLR,0.01,VWS V14.01,2013-12-26 22:45:00,
2013-12-26 17:46:00,29.8,19.5,30.22,WSW,256,5.0,15.0,65,0.00,,CLR,0.01,VWS V14.01,2013-12-26 22:46:00,
2013-12-26 17:47:00,29.7,19.4,30.22,WSW,248,7.0,15.0,65,0.00,,CLR,0.01,VWS V14.01,2013-12-26 22:47:00,
2013-12-26 17:48:00,29.7,19.4,30.22,West,268,6.0,15.0,65,0.00,,CLR,0.01,VWS V14.01,2013-12-26 22:48:00,
2013-12-26 17:49:00,29.7,19.4,30.22,WSW,254,6.0,15.0,65,0.00,,CLR,0.01,VWS V14.01,2013-12-26 22:49:00,
2013-12-26 17:50:00,29.9,19.6,30.22,WSW,253,11.0,11.0,65,0.00,,CLR,0.01,VWS V14.01,2013-12-26 22:50:00,
2013-12-26 17:51:00,29.5,19.2,30.22,WSW,258,7.0,7.0,65,0.00,,CLR,0.01,VWS V14.01,2013-12-26 22:51:00,
2013-12-26 17:52:00,29.5,19.2,30.22,WSW,254,3.0,8.0,65,0.00,,CLR,0.01,VWS V14.01,2013-12-26 22:52:00,
2013-12-26 17:53:00,29.5,19.2,30.22,WSW,240,3.0,8.0,65,0.00,,CLR,0.01,VWS V14.01,2013-12-26 22:53:00,
2013-12-26 17:54:00,29.5,19.2,30.22,WSW,250,5.0,12.0,65,0.00,,CLR,0.01,VWS V14.01,2013-12-26 22:54:00,
2013-12-26 17:55:00,29.8,19.5,30.22,SW,232,5.0,15.0,65,0.00,,CLR,0.01,VWS V14.01,2013-12-26 22:55:00,
2013-12-26 17:56:00,29.4,19.1,30.22,WSW,255,5.0,12.0,65,0.00,,CLR,0.01,VWS V14.01,2013-12-26 22:56:00,
2013-12-26 17:57:00,29.4,19.1,30.22,SW,232,5.0,12.0,65,0.00,,CLR,0.01,VWS V14.01,2013-12-26 22:57:00,
2013-12-26 17:58:00,29.4,19.1,30.22,SW,219,5.0,12.0,65,0.00,,CLR,0.01,VWS V14.01,2013-12-26 22:58:00,
2013-12-26 17:59:00,29.4,19.1,30.23,WSW,248,5.0,12.0,65,0.00,,CLR,0.01,VWS V14.01,2013-12-26 22:59:00,
2013-12-26 18:00:00,29.6,19.3,30.22,SW,228,3.0,6.0,65,0.00,,CLR,0.01,VWS V14.01,2013-12-26 23:00:00,
2013-12-26 18:01:00,29.4,19.1,30.23,WSW,248,3.0,6.0,65,0.00,,CLR,0.01,VWS V14.01,2013-12-26 23:01:00,
2013-12-26 18:02:00,29.3,19.0,30.23,WSW,248,6.0,6.0,65,0.00,,CLR,0.01,VWS V14.01,2013-12-26 23:02:00,
2013-12-26 18:03:00,29.2,18.9,30.23,WSW,240,4.0,6.0,65,0.00,,CLR,0.01,VWS V14.01,2013-12-26 23:03:00,
2013-12-26 18:04:00,29.2,18.9,30.23,SW,222,5.0,6.0,65,0.00,,CLR,0.01,VWS V14.01,2013-12-26 23:04:00,
2013-12-26 18:05:00,29.4,19.1,30.22,WSW,256,3.0,12.0,65,0.00,,CLR,0.01,VWS V14.01,2013-12-26 23:05:00,
2013-12-26 18:06:00,29.1,19.2,30.23,WSW,250,3.0,6.0,66,0.00,,CLR,0.01,VWS V14.01,2013-12-26 23:06:00,
2013-12-26 18:07:00,29.1,19.2,30.23,West,260,6.0,6.0,66,0.00,,CLR,0.01,VWS V14.01,2013-12-26 23:07:00,
2013-12-26 18:08:00,29.1,19.2,30.23,WSW,252,5.0,6.0,66,0.00,,CLR,0.01,VWS V14.01,2013-12-26 23:08:00,
2013-12-26 18:09:00,29.0,19.1,30.23,WSW,240,4.0,6.0,66,0.00,,CLR,0.01,VWS V14.01,2013-12-26 23:09:00,
2013-12-26 18:10:00,29.4,19.1,30.23,West,261,3.0,6.0,65,0.00,,CLR,0.01,VWS V14.01,2013-12-26 23:10:00,
2013-12-26 18:11:00,29.0,19.1,30.23,WSW,251,2.0,6.0,66,0.00,,CLR,0.01,VWS V14.01,2013-12-26 23:11:00,
2013-12-26 18:12:00,29.0,19.1,30.23,WSW,249,3.0,6.0,66,0.00,,CLR,0.01,VWS V14.01,2013-12-26 23:12:00,
2013-12-26 18:13:00,29.0,19.1,30.23,WSW,252,2.0,6.0,66,0.00,,CLR,0.01,VWS V14.01,2013-12-26 23:13:00,
2013-12-26 18:14:00,29.0,19.1,30.22,West,268,3.0,6.0,66,0.00,,CLR,0.01,VWS V14.01,2013-12-26 23:14:00,
2013-12-26 18:15:00,29.2,19.3,30.23,SW,223,2.0,6.0,66,0.00,,CLR,0.01,VWS V14.01,2013-12-26 23:15:00,
2013-12-26 18:16:00,28.8,18.9,30.22,WSW,242,3.0,7.0,66,0.00,,CLR,0.01,VWS V14.01,2013-12-26 23:16:00,
2013-12-26 18:17:00,28.7,18.8,30.22,West,263,13.0,13.0,66,0.00,,CLR,0.01,VWS V14.01,2013-12-26 23:17:00,
2013-12-26 18:18:00,28.9,19.0,30.22,WSW,250,6.0,15.0,66,0.00,,CLR,0.01,VWS V14.01,2013-12-26 23:18:00,
2013-12-26 18:19:00,29.0,19.1,30.22,WSW,255,10.0,15.0,66,0.00,,CLR,0.01,VWS V14.01,2013-12-26 23:19:00,
2013-12-26 18:20:00,29.0,19.1,30.23,WSW,244,6.0,6.0,66,0.00,,CLR,0.01,VWS V14.01,2013-12-26 23:20:00,
2013-12-26 18:21:00,29.2,19.3,30.22,WSW,244,11.0,15.0,66,0.00,,CLR,0.01,VWS V14.01,2013-12-26 23:21:00,
2013-12-26 18:22:00,29.3,19.0,30.22,West,263,11.0,15.0,65,0.00,,CLR,0.01,VWS V14.01,2013-12-26 23:22:00,
2013-12-26 18:23:00,29.2,18.9,30.22,WSW,257,7.0,15.0,65,0.00,,BKN050,0.01,VWS V14.01,2013-12-26 23:23:00,
2013-12-26 18:24:00,29.2,18.9,30.22,SW,228,9.0,15.0,65,0.00,,BKN050,0.01,VWS V14.01,2013-12-26 23:24:00,
2013-12-26 18:25:00,28.8,18.9,30.22,WSW,244,5.0,7.0,66,0.00,,CLR,0.01,VWS V14.01,2013-12-26 23:25:00,
2013-12-26 18:26:00,29.1,18.8,30.22,WSW,250,11.0,15.0,65,0.00,,BKN050,0.01,VWS V14.01,2013-12-26 23:26:00,
2013-12-26 18:27:00,29.1,18.8,30.22,WSW,244,5.0,15.0,65,0.00,,BKN050,0.01,VWS V14.01,2013-12-26 23:27:00,
2013-12-26 18:28:00,29.1,19.2,30.22,WSW,252,4.0,15.0,66,0.00,,BKN050,0.01,VWS V14.01,2013-12-26 23:28:00,
2013-12-26 18:29:00,29.0,19.1,30.22,WSW,244,4.0,15.0,66,0.00,,BKN050,0.01,VWS V14.01,2013-12-26 23:29:00,
2013-12-26 18:30:00,29.1,19.2,30.22,West,264,13.0,13.0,66,0.00,,CLR,0.01,VWS V14.01,2013-12-26 23:30:00,
2013-12-26 18:31:00,28.8,18.9,30.22,West,261,6.0,7.0,66,0.00,,BKN050,0.01,VWS V14.01,2013-12-26 23:31:00,
2013-12-26 18:32:00,28.8,18.9,30.22,West,261,10.0,10.0,66,0.00,,BKN050,0.01,VWS V14.01,2013-12-26 23:32:00,
2013-12-26 18:33:00,28.8,18.9,30.22,WSW,258,6.0,10.0,66,0.00,,BKN050,0.01,VWS V14.01,2013-12-26 23:33:00,
2013-12-26 18:34:00,28.8,18.9,30.22,WSW,257,7.0,10.0,66,0.00,,BKN050,0.01,VWS V14.01,2013-12-26 23:34:00,
2013-12-26 18:35:00,29.1,18.8,30.22,WSW,247,9.0,15.0,65,0.00,,BKN050,0.01,VWS V14.01,2013-12-26 23:35:00,
2013-12-26 18:36:00,29.1,18.8,30.22,WSW,257,6.0,15.0,65,0.00,,BKN050,0.01,VWS V14.01,2013-12-26 23:36:00,
2013-12-26 18:37:00,28.9,19.0,30.22,WSW,246,8.0,12.0,66,0.00,,BKN050,0.01,VWS V14.01,2013-12-26 23:37:00,
2013-12-26 18:38:00,28.9,18.6,30.22,West,274,8.0,12.0,65,0.00,,BKN050,0.01,VWS V14.01,2013-12-26 23:38:00,
2013-12-26 18:39:00,28.9,18.6,30.22,West,279,4.0,12.0,65,0.00,,BKN050,0.01,VWS V14.01,2013-12-26 23:39:00,
2013-12-26 18:40:00,28.9,18.6,30.22,WSW,241,11.0,11.0,65,0.00,,BKN050,0.01,VWS V14.01,2013-12-26 23:40:00,
2013-12-26 18:41:00,28.8,18.9,30.22,WSW,247,7.0,7.0,66,0.00,,BKN050,0.01,VWS V14.01,2013-12-26 23:41:00,
2013-12-26 18:42:00,28.8,18.5,30.22,WNW,286,6.0,13.0,65,0.00,,BKN050,0.01,VWS V14.01,2013-12-26 23:42:00,
2013-12-26 18:43:00,28.8,18.9,30.22,WSW,257,6.0,10.0,66,0.00,,BKN050,0.01,VWS V14.01,2013-12-26 23:43:00,
2013-12-26 18:44:00,29.0,18.7,30.23,SW,217,10.0,13.0,65,0.00,,BKN050,0.01,VWS V14.01,2013-12-26 23:44:00,
2013-12-26 18:45:00,29.1,18.8,30.23,West,270,10.0,13.0,65,0.00,,BKN050,0.01,VWS V14.01,2013-12-26 23:45:00,
2013-12-26 18:46:00,29.1,18.8,30.23,WSW,245,13.0,13.0,65,0.00,,BKN050,0.01,VWS V14.01,2013-12-26 23:46:00,
2013-12-26 18:47:00,29.2,18.9,30.23,West,267,12.0,14.0,65,0.00,,BKN050,0.01,VWS V14.01,2013-12-26 23:47:00,
2013-12-26 18:48:00,28.9,18.6,30.22,West,276,5.0,12.0,65,0.00,,BKN050,0.01,VWS V14.01,2013-12-26 23:48:00,
2013-12-26 18:49:00,28.9,18.6,30.22,West,269,2.0,3.0,65,0.00,,BKN050,0.01,VWS V14.01,2013-12-26 23:49:00,
2013-12-26 18:50:00,29.3,19.0,30.23,WSW,241,10.0,13.0,65,0.00,,BKN050,0.01,VWS V14.01,2013-12-26 23:50:00,
2013-12-26 18:51:00,29.3,18.6,30.23,WSW,248,10.0,13.0,64,0.00,,BKN050,0.01,VWS V14.01,2013-12-26 23:51:00,
2013-12-26 18:52:00,29.3,18.6,30.23,WSW,253,10.0,13.0,64,0.00,,BKN050,0.01,VWS V14.01,2013-12-26 23:52:00,
2013-12-26 18:53:00,29.3,18.6,30.23,SW,232,5.0,13.0,64,0.00,,BKN050,0.01,VWS V14.01,2013-12-26 23:53:00,
2013-12-26 18:54:00,29.0,18.7,30.23,West,259,9.0,13.0,65,0.00,,BKN050,0.01,VWS V14.01,2013-12-26 23:54:00,
2013-12-26 18:55:00,29.1,18.8,30.23,West,269,11.0,13.0,65,0.00,,BKN050,0.01,VWS V14.01,2013-12-26 23:55:00,
2013-12-26 18:56:00,29.2,18.9,30.23,WSW,244,5.0,13.0,65,0.00,,BKN050,0.01,VWS V14.01,2013-12-26 23:56:00,
2013-12-26 18:57:00,29.1,18.8,30.23,West,261,7.0,13.0,65,0.00,,BKN050,0.01,VWS V14.01,2013-12-26 23:57:00,
2013-12-26 18:58:00,29.1,18.8,30.23,WSW,256,7.0,13.0,65,0.00,,BKN050,0.01,VWS V14.01,2013-12-26 23:58:00,
2013-12-26 18:59:00,29.2,18.9,30.23,West,267,11.0,11.0,65,0.00,,BKN050,0.01,VWS V14.01,2013-12-26 23:59:00,
2013-12-26 19:00:00,29.0,18.7,30.24,WSW,248,4.0,8.0,65,0.00,,BKN050,0.01,VWS V14.01,2013-12-27 00:00:00,
2013-12-26 19:01:00,29.0,18.4,30.24,WSW,252,6.0,8.0,64,0.00,,BKN050,0.01,VWS V14.01,2013-12-27 00:01:00,
2013-12-26 19:02:00,28.9,18.6,30.24,West,259,4.0,8.0,65,0.00,,BKN050,0.01,VWS V14.01,2013-12-27 00:02:00,
2013-12-26 19:03:00,28.9,18.6,30.24,West,274,7.0,13.0,65,0.00,,BKN050,0.01,VWS V14.01,2013-12-27 00:03:00,
2013-12-26 19:04:00,29.2,18.5,30.23,WSW,253,6.0,13.0,64,0.00,,BKN050,0.01,VWS V14.01,2013-12-27 00:04:00,
2013-12-26 19:05:00,28.9,18.6,30.24,West,276,11.0,16.0,65,0.00,,BKN050,0.01,VWS V14.01,2013-12-27 00:05:00,
2013-12-26 19:06:00,29.1,18.8,30.24,West,280,11.0,16.0,65,0.00,,BKN050,0.01,VWS V14.01,2013-12-27 00:06:00,
2013-12-26 19:07:00,29.2,18.5,30.24,West,268,7.0,16.0,64,0.00,,BKN050,0.01,VWS V14.01,2013-12-27 00:07:00,
2013-12-26 19:08:00,29.2,18.5,30.24,West,265,5.0,16.0,64,0.00,,BKN050,0.01,VWS V14.01,2013-12-27 00:08:00,
2013-12-26 19:09:00,29.0,18.7,30.24,WNW,284,7.0,8.0,65,0.00,,BKN050,0.01,VWS V14.01,2013-12-27 00:09:00,
2013-12-26 19:10:00,29.2,18.5,30.24,WNW,283,9.0,11.0,64,0.00,,BKN050,0.01,VWS V14.01,2013-12-27 00:10:00,
2013-12-26 19:11:00,29.2,18.5,30.24,WSW,245,7.0,11.0,64,0.00,,BKN050,0.01,VWS V14.01,2013-12-27 00:11:00,
2013-12-26 19:12:00,29.2,18.5,30.24,West,270,8.0,11.0,64,0.00,,BKN050,0.01,VWS V14.01,2013-12-27 00:12:00,
2013-12-26 19:13:00,29.2,18.5,30.24,West,267,12.0,13.0,64,0.00,,BKN050,0.01,VWS V14.01,2013-12-27 00:13:00,
2013-12-26 19:14:00,28.9,18.6,30.24,WSW,252,11.0,16.0,65,0.00,,BKN050,0.01,VWS V14.01,2013-12-27 00:14:00,
2013-12-26 19:15:00,29.0,18.4,30.23,West,271,7.0,13.0,64,0.00,,BKN050,0.01,VWS V14.01,2013-12-27 00:15:00,
2013-12-26 19:16:00,29.0,18.4,30.23,West,261,7.0,13.0,64,0.00,,BKN050,0.01,VWS V14.01,2013-12-27 00:16:00,
2013-12-26 19:17:00,29.0,18.4,30.23,WSW,246,18.0,18.0,64,0.00,,BKN050,0.01,VWS V14.01,2013-12-27 00:17:00,
2013-12-26 19:18:00,29.2,18.5,30.23,WNW,296,7.0,18.0,64,0.00,,BKN050,0.01,VWS V14.01,2013-12-27 00:18:00,
2013-12-26 19:19:00,29.2,18.5,30.24,WSW,257,10.0,10.0,64,0.00,,BKN050,0.01,VWS V14.01,2013-12-27 00:19:00,
2013-12-26 19:20:00,29.2,18.5,30.23,WNW,288,14.0,14.0,64,0.00,,BKN050,0.01,VWS V14.01,2013-12-27 00:20:00,
2013-12-26 19:21:00,29.2,18.5,30.23,West,280,7.0,14.0,64,0.00,,BKN050,0.01,VWS V14.01,2013-12-27 00:21:00,
2013-12-26 19:22:00,29.2,18.5,30.23,West,264,9.0,14.0,64,0.00,,BKN050,0.01,VWS V14.01,2013-12-27 00:22:00,
2013-12-26 19:23:00,29.2,18.5,30.23,West,261,7.0,14.0,64,0.00,,FEW048,0.01,VWS V14.01,2013-12-27 00:23:00,
2013-12-26 19:24:00,29.1,18.5,30.23,West,279,3.0,13.0,64,0.00,,BKN050,0.01,VWS V14.01,2013-12-27 00:24:00,
2013-12-26 19:25:00,29.1,18.5,30.23,West,261,8.0,14.0,64,0.00,,FEW048,0.01,VWS V14.01,2013-12-27 00:25:00,
2013-12-26 19:26:00,29.0,18.4,30.23,West,271,11.0,14.0,64,0.00,,FEW048,0.01,VWS V14.01,2013-12-27 00:26:00,
2013-12-26 19:27:00,29.0,18.4,30.23,WSW,244,14.0,16.0,64,0.00,,FEW048,0.01,VWS V14.01,2013-12-27 00:27:00,
2013-12-26 19:28:00,29.1,18.5,30.23,WNW,295,9.0,17.0,64,0.00,,FEW048,0.01,VWS V14.01,2013-12-27 00:28:00,
2013-12-26 19:29:00,29.2,18.5,30.23,West,262,6.0,7.0,64,0.00,,BKN050,0.01,VWS V14.01,2013-12-27 00:29:00,
2013-12-26 19:30:00,29.2,18.5,30.24,West,259,10.0,11.0,64,0.00,,FEW048,0.01,VWS V14.01,2013-12-27 00:30:00,
2013-12-26 19:31:00,29.1,18.5,30.24,WSW,251,10.0,15.0,64,0.00,,FEW048,0.01,VWS V14.01,2013-12-27 00:31:00,
2013-12-26 19:32:00,29.2,18.5,30.24,West,261,13.0,20.0,64,0.00,,FEW048,0.01,VWS V14.01,2013-12-27 00:32:00,
2013-12-26 19:33:00,29.2,18.5,30.24,WSW,254,13.0,20.0,64,0.00,,FEW048,0.01,VWS V14.01,2013-12-27 00:33:00,
2013-12-26 19:34:00,29.0,18.4,30.23,West,265,12.0,14.0,64,0.00,,FEW048,0.01,VWS V14.01,2013-12-27 00:34:00,
2013-12-26 19:35:00,29.1,18.5,30.24,WSW,252,14.0,20.0,64,0.00,,FEW048,0.01,VWS V14.01,2013-12-27 00:35:00,
2013-12-26 19:36:00,29.1,18.5,30.24,WSW,238,10.0,20.0,64,0.00,,FEW048,0.01,VWS V14.01,2013-12-27 00:36:00,
2013-12-26 19:37:00,29.1,18.5,30.24,West,260,9.0,20.0,64,0.00,,FEW048,0.01,VWS V14.01,2013-12-27 00:37:00,
2013-12-26 19:38:00,29.1,18.5,30.24,West,272,6.0,20.0,64,0.00,,FEW048,0.01,VWS V14.01,2013-12-27 00:38:00,
2013-12-26 19:39:00,29.2,18.5,30.24,West,278,6.0,10.0,64,0.00,,FEW048,0.01,VWS V14.01,2013-12-27 00:39:00,
2013-12-26 19:40:00,29.0,18.4,30.24,WNW,290,11.0,14.0,64,0.00,,FEW048,0.01,VWS V14.01,2013-12-27 00:40:00,
2013-12-26 19:41:00,29.0,18.0,30.24,WSW,244,11.0,18.0,63,0.00,,FEW048,0.01,VWS V14.01,2013-12-27 00:41:00,
2013-12-26 19:42:00,29.0,18.4,30.24,WSW,248,13.0,18.0,64,0.00,,FEW048,0.01,VWS V14.01,2013-12-27 00:42:00,
2013-12-26 19:43:00,29.0,18.4,30.24,West,272,10.0,18.0,64,0.00,,FEW048,0.01,VWS V14.01,2013-12-27 00:43:00,
2013-12-26 19:44:00,29.2,18.5,30.24,West,265,14.0,20.0,64,0.00,,FEW048,0.01,VWS V14.01,2013-12-27 00:44:00,
2013-12-26 19:45:00,28.9,18.3,30.24,WSW,247,14.0,18.0,64,0.00,,FEW048,0.01,VWS V14.01,2013-12-27 00:45:00,
2013-12-26 19:46:00,28.9,18.3,30.24,WSW,251,8.0,18.0,64,0.00,,FEW048,0.01,VWS V14.01,2013-12-27 00:46:00,
2013-12-26 19:47:00,28.8,18.2,30.24,SSW,213,7.0,18.0,64,0.00,,FEW048,0.01,VWS V14.01,2013-12-27 00:47:00,
2013-12-26 19:48:00,28.7,18.1,30.24,West,259,10.0,18.0,64,0.00,,FEW048,0.01,VWS V14.01,2013-12-27 00:48:00,
2013-12-26 19:49:00,29.0,18.4,30.24,WSW,252,10.0,11.0,64,0.00,,FEW048,0.01,VWS V14.01,2013-12-27 00:49:00,
2013-12-26 19:50:00,28.7,18.1,30.24,WNW,290,17.0,19.0,64,0.00,,FEW048,0.01,VWS V14.01,2013-12-27 00:50:00,
2013-12-26 19:51:00,28.8,18.2,30.24,WNW,286,10.0,19.0,64,0.00,,FEW048,0.01,VWS V14.01,2013-12-27 00:51:00,
2013-12-26 19:52:00,28.7,18.1,30.24,West,267,5.0,19.0,64,0.00,,FEW048,0.01,VWS V14.01,2013-12-27 00:52:00,
2013-12-26 19:53:00,28.7,18.1,30.24,West,265,4.0,19.0,64,0.00,,FEW048,0.01,VWS V14.01,2013-12-27 00:53:00,
2013-12-26 19:54:00,28.9,18.3,30.24,WSW,246,9.0,18.0,64,0.00,,FEW048,0.01,VWS V14.01,2013-12-27 00:54:00,
2013-12-26 19:55:00,28.5,17.9,30.24,WSW,254,11.0,19.0,64,0.00,,FEW048,0.01,VWS V14.01,2013-12-27 00:55:00,
2013-12-26 19:56:00,28.5,17.9,30.24,WNW,283,6.0,19.0,64,0.00,,FEW048,0.01,VWS V14.01,2013-12-27 00:56:00,
2013-12-26 19:57:00,28.5,17.9,30.24,West,277,10.0,19.0,64,0.00,,FEW048,0.01,VWS V14.01,2013-12-27 00:57:00,
2013-12-26 19:58:00,28.5,17.9,30.24,West,279,10.0,19.0,64,0.00,,FEW048,0.01,VWS V14.01,2013-12-27 00:58:00,
2013-12-26 19:59:00,28.7,18.1,30.24,West,268,15.0,19.0,64,0.00,,FEW048,0.01,VWS V14.01,2013-12-27 00:59:00,
2013-12-26 20:00:00,28.4,18.1,30.25,West,274,12.0,19.0,65,0.00,,FEW048,0.01,VWS V14.01,2013-12-27 01:00:00,
2013-12-26 20:01:00,28.4,18.1,30.25,West,274,12.0,19.0,65,0.00,,FEW048,0.01,VWS V14.01,2013-12-27 01:01:00,
2013-12-26 20:02:00,28.4,18.1,30.25,West,264,9.0,12.0,65,0.00,,FEW048,0.01,VWS V14.01,2013-12-27 01:02:00,
2013-12-26 20:03:00,28.3,18.1,30.25,West,275,7.0,12.0,65,0.00,,FEW048,0.01,VWS V14.01,2013-12-27 01:03:00,
2013-12-26 20:04:00,28.5,17.9,30.24,West,259,10.0,19.0,64,0.00,,FEW048,0.01,VWS V14.01,2013-12-27 01:04:00,
2013-12-26 20:05:00,28.1,17.9,30.25,West,267,9.0,12.0,65,0.00,,FEW048,0.01,VWS V14.01,2013-12-27 01:05:00,
2013-12-26 20:06:00,28.1,17.9,30.25,WSW,240,12.0,13.0,65,0.00,,FEW048,0.01,VWS V14.01,2013-12-27 01:06:00,
2013-12-26 20:07:00,28.1,18.2,30.25,West,263,10.0,13.0,66,0.00,,FEW048,0.01,VWS V14.01,2013-12-27 01:07:00,
2013-12-26 20:08:00,28.1,18.2,30.25,West,267,12.0,13.0,66,0.00,,FEW048,0.01,VWS V14.01,2013-12-27 01:08:00,
2013-12-26 20:09:00,28.2,18.3,30.25,WNW,283,11.0,13.0,66,0.00,,FEW048,0.01,VWS V14.01,2013-12-27 01:09:00,
2013-12-26 20:10:00,28.2,18.0,30.25,West,259,7.0,9.0,65,0.00,,FEW048,0.01,VWS V14.01,2013-12-27 01:10:00,
2013-12-26 20:11:00,28.4,18.1,30.25,West,279,6.0,12.0,65,0.00,,FEW048,0.01,VWS V14.01,2013-12-27 01:11:00,
2013-12-26 20:12:00,28.3,18.1,30.25,West,275,10.0,14.0,65,0.00,,FEW048,0.01,VWS V14.01,2013-12-27 01:12:00,
2013-12-26 20:13:00,28.2,18.0,30.25,West,265,4.0,14.0,65,0.00,,FEW048,0.01,VWS V14.01,2013-12-27 01:13:00,
2013-12-26 20:14:00,28.1,17.9,30.25,WSW,248,7.0,14.0,65,0.00,,FEW048,0.01,VWS V14.01,2013-12-27 01:14:00,
2013-12-26 20:15:00,28.0,18.1,30.25,WSW,256,10.0,14.0,66,0.00,,FEW048,0.01,VWS V14.01,2013-12-27 01:15:00,
2013-12-26 20:16:00,28.1,17.9,30.25,WNW,294,7.0,13.0,65,0.00,,FEW048,0.01,VWS V14.01,2013-12-27 01:16:00,
2013-12-26 20:17:00,27.9,18.0,30.25,WNW,298,11.0,14.0,66,0.00,,FEW048,0.01,VWS V14.01,2013-12-27 01:17:00,
2013-12-26 20:18:00,27.9,18.0,30.25,West,259,6.0,14.0,66,0.00,,FEW048,0.01,VWS V14.01,2013-12-27 01:18:00,
2013-12-26 20:19:00,27.9,18.0,30.25,NW,324,12.0,14.0,66,0.00,,FEW048,0.01,VWS V14.01,2013-12-27 01:19:00,
2013-12-26 20:20:00,27.9,18.0,30.25,West,261,14.0,14.0,66,0.00,,FEW048,0.01,VWS V14.01,2013-12-27 01:20:00,
2013-12-26 20:21:00,28.2,18.0,30.25,WSW,257,10.0,14.0,65,0.00,,FEW048,0.01,VWS V14.01,2013-12-27 01:21:00,
2013-12-26 20:22:00,27.8,17.9,30.25,West,280,11.0,15.0,66,0.00,,FEW048,0.01,VWS V14.01,2013-12-27 01:22:00,
2013-12-26 20:23:00,27.8,18.3,30.25,West,260,17.0,22.0,67,0.00,,CLR,0.01,VWS V14.01,2013-12-27 01:23:00,
2013-12-26 20:24:00,27.9,18.4,30.25,West,272,16.0,22.0,67,0.00,,CLR,0.01,VWS V14.01,2013-12-27 01:24:00,
2013-12-26 20:25:00,27.9,18.4,30.25,WSW,244,12.0,22.0,67,0.00,,CLR,0.01,VWS V14.01,2013-12-27 01:25:00,
2013-12-26 20:26:00,27.9,18.0,30.25,West,268,12.0,14.0,66,0.00,,FEW048,0.01,VWS V14.01,2013-12-27 01:26:00,
2013-12-26 20:27:00,27.9,18.0,30.25,WSW,254,13.0,22.0,66,0.00,,CLR,0.01,VWS V14.01,2013-12-27 01:27:00,
2013-12-26 20:28:00,27.9,18.4,30.25,WSW,250,13.0,22.0,67,0.00,,CLR,0.01,VWS V14.01,2013-12-27 01:28:00,
2013-12-26 20:29:00,27.9,18.4,30.25,WSW,258,16.0,22.0,67,0.00,,CLR,0.01,VWS V14.01,2013-12-27 01:29:00,
2013-12-26 20:30:00,27.8,18.3,30.25,West,273,15.0,18.0,67,0.00,,CLR,0.01,VWS V14.01,2013-12-27 01:30:00,
2013-12-26 20:31:00,27.8,17.9,30.25,West,268,10.0,15.0,66,0.00,,FEW048,0.01,VWS V14.01,2013-12-27 01:31:00,
2013-12-26 20:32:00,27.8,18.3,30.25,West,280,13.0,19.0,67,0.00,,CLR,0.01,VWS V14.01,2013-12-27 01:32:00,
2013-12-26 20:33:00,27.9,18.4,30.25,WNW,293,13.0,20.0,67,0.00,,CLR,0.01,VWS V14.01,2013-12-27 01:33:00,
2013-12-26 20:34:00,27.8,18.3,30.25,WNW,293,9.0,20.0,67,0.00,,CLR,0.01,VWS V14.01,2013-12-27 01:34:00,
2013-12-26 20:35:00,27.8,18.3,30.25,WNW,291,11.0,20.0,67,0.00,,CLR,0.01,VWS V14.01,2013-12-27 01:35:00,
2013-12-26 20:36:00,27.9,18.0,30.25,West,263,17.0,22.0,66,0.00,,CLR,0.01,VWS V14.01,2013-12-27 01:36:00,
2013-12-26 20:37:00,27.7,18.2,30.25,West,273,12.0,20.0,67,0.00,,CLR,0.01,VWS V14.01,2013-12-27 01:37:00,
2013-12-26 20:38:00,27.6,18.1,30.25,West,261,12.0,20.0,67,0.00,,CLR,0.01,VWS V14.01,2013-12-27 01:38:00,
2013-12-26 20:39:00,27.6,18.1,30.25,WSW,254,14.0,20.0,67,0.00,,CLR,0.01,VWS V14.01,2013-12-27 01:39:00,
2013-12-26 20:40:00,27.6,18.1,30.25,WNW,288,12.0,14.0,67,0.00,,CLR,0.01,VWS V14.01,2013-12-27 01:40:00,
2013-12-26 20:41:00,27.8,18.3,30.25,West,277,14.0,19.0,67,0.00,,CLR,0.01,VWS V14.01,2013-12-27 01:41:00,
2013-12-26 20:42:00,27.5,18.3,30.25,West,272,6.0,14.0,68,0.00,,CLR,0.01,VWS V14.01,2013-12-27 01:42:00,
2013-12-26 20:43:00,27.5,18.0,30.25,West,272,9.0,21.0,67,0.00,,CLR,0.01,VWS V14.01,2013-12-27 01:43:00,
2013-12-26 20:44:00,27.4,18.2,30.26,WNW,294,17.0,21.0,68,0.00,,CLR,0.01,VWS V14.01,2013-12-27 01:44:00,
2013-12-26 20:45:00,27.6,18.4,30.26,West,273,11.0,21.0,68,0.00,,CLR,0.01,VWS V14.01,2013-12-27 01:45:00,
2013-12-26 20:46:00,27.7,18.2,30.25,West,269,15.0,20.0,67,0.00,,CLR,0.01,VWS V14.01,2013-12-27 01:46:00,
2013-12-26 20:47:00,27.6,18.4,30.26,WSW,252,11.0,21.0,68,0.00,,CLR,0.01,VWS V14.01,2013-12-27 01:47:00,
2013-12-26 20:48:00,27.6,18.4,30.26,West,265,14.0,21.0,68,0.00,,CLR,0.01,VWS V14.01,2013-12-27 01:48:00,
2013-12-26 20:49:00,27.5,18.3,30.26,West,276,12.0,21.0,68,0.00,,CLR,0.01,VWS V14.01,2013-12-27 01:49:00,
2013-12-26 20:50:00,27.5,18.3,30.26,West,276,8.0,19.0,68,0.00,,CLR,0.01,VWS V14.01,2013-12-27 01:50:00,
2013-12-26 20:51:00,27.5,18.3,30.25,West,281,11.0,14.0,68,0.00,,CLR,0.01,VWS V14.01,2013-12-27 01:51:00,
2013-12-26 20:52:00,27.5,18.3,30.26,West,262,11.0,19.0,68,0.00,,CLR,0.01,VWS V14.01,2013-12-27 01:52:00,
2013-12-26 20:53:00,27.6,18.4,30.26,WNW,286,16.0,19.0,68,0.00,,CLR,0.01,VWS V14.01,2013-12-27 01:53:00,
2013-12-26 20:54:00,27.5,18.3,30.26,West,259,9.0,19.0,68,0.00,,CLR,0.01,VWS V14.01,2013-12-27 01:54:00,
2013-12-26 20:55:00,27.5,18.3,30.26,WNW,283,10.0,19.0,68,0.00,,CLR,0.01,VWS V14.01,2013-12-27 01:55:00,
2013-12-26 20:56:00,27.6,18.4,30.26,West,265,10.0,21.0,68,0.00,,CLR,0.01,VWS V14.01,2013-12-27 01:56:00,
2013-12-26 20:57:00,27.5,18.3,30.26,West,259,10.0,19.0,68,0.00,,CLR,0.01,VWS V14.01,2013-12-27 01:57:00,
2013-12-26 20:58:00,27.4,18.2,30.26,WNW,283,10.0,19.0,68,0.00,,CLR,0.01,VWS V14.01,2013-12-27 01:58:00,
2013-12-26 20:59:00,27.3,18.1,30.27,West,263,10.0,19.0,68,0.00,,CLR,0.01,VWS V14.01,2013-12-27 01:59:00,
2013-12-26 21:00:00,27.2,18.4,30.27,West,269,11.0,12.0,69,0.00,,CLR,0.01,VWS V14.01,2013-12-27 02:00:00,
2013-12-26 21:01:00,27.5,18.3,30.26,West,277,13.0,19.0,68,0.00,,CLR,0.01,VWS V14.01,2013-12-27 02:01:00,
2013-12-26 21:02:00,27.3,18.5,30.27,NW,323,12.0,20.0,69,0.00,,CLR,0.01,VWS V14.01,2013-12-27 02:02:00,
2013-12-26 21:03:00,27.4,18.6,30.27,West,268,8.0,20.0,69,0.00,,CLR,0.01,VWS V14.01,2013-12-27 02:03:00,
2013-12-26 21:04:00,27.4,18.6,30.27,WNW,286,7.0,20.0,69,0.00,,CLR,0.01,VWS V14.01,2013-12-27 02:04:00,
2013-12-26 21:05:00,27.3,18.5,30.27,West,267,10.0,20.0,69,0.00,,CLR,0.01,VWS V14.01,2013-12-27 02:05:00,
2013-12-26 21:06:00,27.5,18.3,30.26,West,270,10.0,19.0,68,0.00,,CLR,0.01,VWS V14.01,2013-12-27 02:06:00,
2013-12-26 21:07:00,27.1,18.3,30.27,WSW,256,12.0,20.0,69,0.00,,CLR,0.01,VWS V14.01,2013-12-27 02:07:00,
2013-12-26 21:08:00,27.1,18.3,30.27,WNW,290,9.0,20.0,69,0.00,,CLR,0.01,VWS V14.01,2013-12-27 02:08:00,
2013-12-26 21:09:00,27.1,18.3,30.27,West,273,21.0,21.0,69,0.00,,CLR,0.01,VWS V14.01,2013-12-27 02:09:00,
2013-12-26 21:10:00,27.3,18.5,30.27,West,270,10.0,17.0,69,0.00,,CLR,0.01,VWS V14.01,2013-12-27 02:10:00,
2013-12-26 21:11:00,27.3,18.5,30.27,WNW,283,17.0,20.0,69,0.00,,CLR,0.01,VWS V14.01,2013-12-27 02:11:00,
2013-12-26 21:12:00,27.3,18.5,30.27,West,275,7.0,17.0,69,0.00,,CLR,0.01,VWS V14.01,2013-12-27 02:12:00,
2013-12-26 21:13:00,27.2,18.4,30.27,WNW,286,13.0,17.0,69,0.00,,CLR,0.01,VWS V14.01,2013-12-27 02:13:00,
2013-12-26 21:14:00,27.2,18.4,30.27,West,266,11.0,17.0,69,0.00,,CLR,0.01,VWS V14.01,2013-12-27 02:14:00,
2013-12-26 21:15:00,27.2,18.7,30.27,West,270,9.0,17.0,70,0.00,,CLR,0.01,VWS V14.01,2013-12-27 02:15:00,
2013-12-26 21:16:00,27.1,18.3,30.27,West,269,11.0,20.0,69,0.00,,CLR,0.01,VWS V14.01,2013-12-27 02:16:00,
2013-12-26 21:17:00,27.1,18.3,30.27,West,276,9.0,17.0,69,0.00,,CLR,0.01,VWS V14.01,2013-12-27 02:17:00,
2013-12-26 21:18:00,27.1,18.6,30.27,West,280,8.0,17.0,70,0.00,,CLR,0.01,VWS V14.01,2013-12-27 02:18:00,
2013-12-26 21:19:00,27.0,18.5,30.27,West,271,9.0,17.0,70,0.00,,CLR,0.01,VWS V14.01,2013-12-27 02:19:00,
2013-12-26 21:20:00,27.0,18.5,30.27,West,269,9.0,15.0,70,0.00,,CLR,0.01,VWS V14.01,2013-12-27 02:20:00,
2013-12-26 21:21:00,27.3,18.5,30.27,WSW,240,6.0,17.0,69,0.00,,CLR,0.01,VWS V14.01,2013-12-27 02:21:00,
2013-12-26 21:22:00,27.1,18.6,30.27,WNW,286,19.0,21.0,70,0.00,,CLR,0.01,VWS V14.01,2013-12-27 02:22:00,
2013-12-26 21:23:00,27.1,18.6,30.27,West,275,9.0,21.0,70,0.00,,CLR,0.01,VWS V14.01,2013-12-27 02:23:00,
2013-12-26 21:24:00,27.2,18.7,30.27,WNW,285,11.0,21.0,70,0.00,,CLR,0.01,VWS V14.01,2013-12-27 02:24:00,
2013-12-26 21:25:00,27.1,18.6,30.27,West,269,12.0,21.0,70,0.00,,CLR,0.01,VWS V14.01,2013-12-27 02:25:00,
2013-12-26 21:26:00,27.1,18.6,30.27,West,280,11.0,17.0,70,0.00,,CLR,0.01,VWS V14.01,2013-12-27 02:26:00,
2013-12-26 21:27:00,27.0,18.5,30.27,West,260,9.0,21.0,70,0.00,,CLR,0.01,VWS V14.01,2013-12-27 02:27:00,
2013-12-26 21:28:00,27.0,18.5,30.27,West,275,7.0,21.0,70,0.00,,CLR,0.01,VWS V14.01,2013-12-27 02:28:00,
2013-12-26 21:29:00,27.0,18.5,30.28,West,261,9.0,21.0,70,0.00,,CLR,0.01,VWS V14.01,2013-12-27 02:29:00,
2013-12-26 21:30:00,26.9,18.4,30.28,WNW,300,6.0,12.0,70,0.00,,CLR,0.01,VWS V14.01,2013-12-27 02:30:00,
2013-12-26 21:31:00,27.1,18.6,30.27,WNW,295,12.0,21.0,70,0.00,,CLR,0.01,VWS V14.01,2013-12-27 02:31:00,
2013-12-26 21:32:00,26.8,18.3,30.28,West,268,8.0,13.0,70,0.00,,CLR,0.01,VWS V14.01,2013-12-27 02:32:00,
2013-12-26 21:33:00,26.7,18.6,30.28,West,277,12.0,15.0,71,0.00,,CLR,0.01,VWS V14.01,2013-12-27 02:33:00,
2013-12-26 21:34:00,26.8,18.7,30.28,WNW,292,7.0,16.0,71,0.00,,CLR,0.01,VWS V14.01,2013-12-27 02:34:00,
2013-12-26 21:35:00,26.8,18.7,30.28,West,267,6.0,16.0,71,0.00,,CLR,0.01,VWS V14.01,2013-12-27 02:35:00,
2013-12-26 21:36:00,27.1,18.6,30.27,West,259,10.0,21.0,70,0.00,,CLR,0.01,VWS V14.01,2013-12-27 02:36:00,
2013-12-26 21:37:00,26.7,18.6,30.28,West,271,9.0,16.0,71,0.00,,CLR,0.01,VWS V14.01,2013-12-27 02:37:00,
2013-12-26 21:38:00,26.8,18.7,30.28,West,267,4.0,16.0,71,0.00,,CLR,0.01,VWS V14.01,2013-12-27 02:38:00,
2013-12-26 21:39:00,26.7,18.6,30.28,WNW,286,9.0,16.0,71,0.00,,CLR,0.01,VWS V14.01,2013-12-27 02:39:00,
2013-12-26 21:40:00,26.7,18.6,30.28,West,261,7.0,10.0,71,0.00,,CLR,0.01,VWS V14.01,2013-12-27 02:40:00,
2013-12-26 21:41:00,26.8,18.3,30.28,WSW,253,8.0,13.0,70,0.00,,CLR,0.01,VWS V14.01,2013-12-27 02:41:00,
2013-12-26 21:42:00,26.6,18.5,30.28,West,279,13.0,13.0,71,0.00,,CLR,0.01,VWS V14.01,2013-12-27 02:42:00,
2013-12-26 21:43:00,26.6,18.5,30.28,WSW,246,10.0,13.0,71,0.00,,CLR,0.01,VWS V14.01,2013-12-27 02:43:00,
2013-12-26 21:44:00,26.6,18.5,30.27,West,265,6.0,14.0,71,0.00,,CLR,0.01,VWS V14.01,2013-12-27 02:44:00,
2013-12-26 21:45:00,26.6,18.8,30.27,West,259,12.0,14.0,72,0.00,,CLR,0.01,VWS V14.01,2013-12-27 02:45:00,
2013-12-26 21:46:00,26.7,18.6,30.28,West,261,11.0,16.0,71,0.00,,CLR,0.01,VWS V14.01,2013-12-27 02:46:00,
2013-12-26 21:47:00,26.5,18.4,30.27,West,261,9.0,14.0,71,0.00,,CLR,0.01,VWS V14.01,2013-12-27 02:47:00,
2013-12-26 21:48:00,26.4,18.6,30.27,WNW,288,5.0,14.0,72,0.00,,CLR,0.01,VWS V14.01,2013-12-27 02:48:00,
2013-12-26 21:49:00,26.4,18.6,30.27,West,260,6.0,14.0,72,0.00,,CLR,0.01,VWS V14.01,2013-12-27 02:49:00,
2013-12-26 21:50:00,26.4,18.6,30.27,West,266,10.0,10.0,72,0.00,,CLR,0.01,VWS V14.01,2013-12-27 02:50:00,
2013-12-26 21:51:00,26.6,18.5,30.28,West,279,12.0,12.0,71,0.00,,CLR,0.01,VWS V14.01,2013-12-27 02:51:00,
2013-12-26 21:52:00,26.3,18.5,30.27,West,277,4.0,11.0,72,0.00,,CLR,0.01,VWS V14.01,2013-12-27 02:52:00,
2013-12-26 21:53:00,26.3,18.5,30.27,WSW,240,9.0,11.0,72,0.00,,CLR,0.01,VWS V14.01,2013-12-27 02:53:00,
2013-12-26 21:54:00,26.3,18.5,30.27,West,269,9.0,14.0,72,0.00,,CLR,0.01,VWS V14.01,2013-12-27 02:54:00,
2013-12-26 21:55:00,26.3,18.5,30.27,West,277,6.0,14.0,72,0.00,,CLR,0.01,VWS V14.01,2013-12-27 02:55:00,
2013-12-26 21:56:00,26.5,18.4,30.27,WSW,256,9.0,14.0,71,0.00,,CLR,0.01,VWS V14.01,2013-12-27 02:56:00,
2013-12-26 21:57:00,26.2,18.4,30.27,West,263,2.0,14.0,72,0.00,,CLR,0.01,VWS V14.01,2013-12-27 02:57:00,
2013-12-26 21:58:00,26.1,18.3,30.27,West,259,5.0,14.0,72,0.00,,CLR,0.01,VWS V14.01,2013-12-27 02:58:00,
2013-12-26 21:59:00,26.1,18.3,30.29,NW,315,6.0,14.0,72,0.00,,CLR,0.01,VWS V14.01,2013-12-27 02:59:00,
2013-12-26 22:00:00,26.1,18.3,30.29,West,272,8.0,11.0,72,0.00,,CLR,0.01,VWS V14.01,2013-12-27 03:00:00,
2013-12-26 22:01:00,26.1,18.3,30.29,West,269,11.0,13.0,72,0.00,,CLR,0.01,VWS V14.01,2013-12-27 03:01:00,
2013-12-26 22:02:00,26.3,18.5,30.27,West,278,3.0,11.0,72,0.00,,CLR,0.01,VWS V14.01,2013-12-27 03:02:00,
2013-12-26 22:03:00,26.2,18.4,30.29,West,278,5.0,13.0,72,0.00,,CLR,0.01,VWS V14.01,2013-12-27 03:03:00,
2013-12-26 22:04:00,26.3,18.5,30.29,WNW,294,7.0,13.0,72,0.00,,CLR,0.01,VWS V14.01,2013-12-27 03:04:00,
2013-12-26 22:05:00,26.2,18.4,30.29,WNW,291,11.0,13.0,72,0.00,,CLR,0.01,VWS V14.01,2013-12-27 03:05:00,
2013-12-26 22:06:00,26.3,18.5,30.29,WSW,255,8.0,13.0,72,0.00,,CLR,0.01,VWS V14.01,2013-12-27 03:06:00,
2013-12-26 22:07:00,26.2,18.4,30.27,West,280,1.0,14.0,72,0.00,,CLR,0.01,VWS V14.01,2013-12-27 03:07:00,
2013-12-26 22:08:00,26.3,18.5,30.29,WNW,292,11.0,16.0,72,0.00,,CLR,0.01,VWS V14.01,2013-12-27 03:08:00,
2013-12-26 22:09:00,26.3,18.5,30.29,WSW,247,5.0,16.0,72,0.00,,CLR,0.01,VWS V14.01,2013-12-27 03:09:00,
2013-12-26 22:10:00,26.3,18.5,30.29,West,269,9.0,12.0,72,0.00,,CLR,0.01,VWS V14.01,2013-12-27 03:10:00,
2013-12-26 22:11:00,26.3,18.5,30.29,West,278,2.0,12.0,72,0.00,,CLR,0.01,VWS V14.01,2013-12-27 03:11:00,
2013-12-26 22:12:00,26.2,18.4,30.29,WNW,284,7.0,13.0,72,0.00,,CLR,0.01,VWS V14.01,2013-12-27 03:12:00,
2013-12-26 22:13:00,26.1,18.3,30.29,West,273,2.0,12.0,72,0.00,,CLR,0.01,VWS V14.01,2013-12-27 03:13:00,
2013-12-26 22:14:00,26.1,18.3,30.28,West,277,7.0,12.0,72,0.00,,CLR,0.01,VWS V14.01,2013-12-27 03:14:00,
2013-12-26 22:15:00,26.0,18.2,30.28,WSW,256,8.0,12.0,72,0.00,,CLR,0.01,VWS V14.01,2013-12-27 03:15:00,
2013-12-26 22:16:00,26.1,18.3,30.28,WSW,254,6.0,12.0,72,0.00,,CLR,0.01,VWS V14.01,2013-12-27 03:16:00,
2013-12-26 22:17:00,26.3,18.5,30.29,West,272,7.0,16.0,72,0.00,,CLR,0.01,VWS V14.01,2013-12-27 03:17:00,
2013-12-26 22:18:00,25.9,18.1,30.28,West,278,5.0,12.0,72,0.00,,CLR,0.01,VWS V14.01,2013-12-27 03:18:00,
2013-12-26 22:19:00,25.9,18.1,30.28,West,261,3.0,12.0,72,0.00,,CLR,0.01,VWS V14.01,2013-12-27 03:19:00,
2013-12-26 22:20:00,25.9,18.1,30.28,West,265,4.0,9.0,72,0.00,,CLR,0.01,VWS V14.01,2013-12-27 03:20:00,
2013-12-26 22:21:00,25.9,18.1,30.28,West,259,4.0,10.0,72,0.00,,CLR,0.01,VWS V14.01,2013-12-27 03:21:00,
2013-12-26 22:22:00,26.2,18.4,30.29,WNW,284,4.0,12.0,72,0.00,,CLR,0.01,VWS V14.01,2013-12-27 03:22:00,
2013-12-26 22:23:00,26.0,18.2,30.28,WSW,257,6.0,10.0,72,0.00,,CLR,0.01,VWS V14.01,2013-12-27 03:23:00,
2013-12-26 22:24:00,26.0,18.2,30.28,WSW,249,9.0,11.0,72,0.00,,CLR,0.01,VWS V14.01,2013-12-27 03:24:00,
2013-12-26 22:25:00,26.1,18.3,30.28,West,271,6.0,11.0,72,0.00,,CLR,0.01,VWS V14.01,2013-12-27 03:25:00,
2013-12-26 22:26:00,26.1,18.3,30.28,NW,304,5.0,11.0,72,0.00,,CLR,0.01,VWS V14.01,2013-12-27 03:26:00,
2013-12-26 22:27:00,26.0,18.2,30.28,West,267,5.0,12.0,72,0.00,,CLR,0.01,VWS V14.01,2013-12-27 03:27:00,
2013-12-26 22:28:00,26.0,18.2,30.28,West,277,7.0,11.0,72,0.00,,CLR,0.01,VWS V14.01,2013-12-27 03:28:00,
2013-12-26 22:29:00,26.0,18.2,30.28,West,259,4.0,11.0,72,0.00,,CLR,0.01,VWS V14.01,2013-12-27 03:29:00,
2013-12-26 22:30:00,26.0,18.2,30.28,SW,227,2.0,7.0,72,0.00,,CLR,0.01,VWS V14.01,2013-12-27 03:30:00,
2013-12-26 22:31:00,26.0,18.2,30.28,WSW,253,3.0,7.0,72,0.00,,CLR,0.01,VWS V14.01,2013-12-27 03:31:00,
2013-12-26 22:32:00,26.0,18.2,30.28,WSW,252,7.0,10.0,72,0.00,,CLR,0.01,VWS V14.01,2013-12-27 03:32:00,
2013-12-26 22:33:00,25.8,18.0,30.28,WSW,252,3.0,7.0,72,0.00,,CLR,0.01,VWS V14.01,2013-12-27 03:33:00,
2013-12-26 22:34:00,25.8,18.4,30.28,WSW,253,4.0,7.0,73,0.00,,CLR,0.01,VWS V14.01,2013-12-27 03:34:00,
2013-12-26 22:35:00,25.7,18.3,30.28,West,262,3.0,7.0,73,0.00,,CLR,0.01,VWS V14.01,2013-12-27 03:35:00,
2013-12-26 22:36:00,25.7,18.3,30.28,WSW,257,5.0,7.0,73,0.00,,CLR,0.01,VWS V14.01,2013-12-27 03:36:00,
2013-12-26 22:37:00,26.1,18.3,30.28,WSW,240,3.0,11.0,72,0.00,,CLR,0.01,VWS V14.01,2013-12-27 03:37:00,
2013-12-26 22:38:00,25.7,18.3,30.28,WSW,244,3.0,7.0,73,0.00,,CLR,0.01,VWS V14.01,2013-12-27 03:38:00,
2013-12-26 22:39:00,25.7,18.3,30.28,West,268,3.0,7.0,73,0.00,,CLR,0.01,VWS V14.01,2013-12-27 03:39:00,
2013-12-26 22:40:00,25.6,18.2,30.28,West,260,6.0,6.0,73,0.00,,CLR,0.01,VWS V14.01,2013-12-27 03:40:00,
2013-12-26 22:41:00,25.6,18.2,30.28,WSW,252,3.0,6.0,73,0.00,,CLR,0.01,VWS V14.01,2013-12-27 03:41:00,
2013-12-26 22:42:00,25.8,18.0,30.28,West,267,6.0,7.0,72,0.00,,CLR,0.01,VWS V14.01,2013-12-27 03:42:00,
2013-12-26 22:43:00,25.4,18.0,30.28,WNW,297,4.0,6.0,73,0.00,,CLR,0.01,VWS V14.01,2013-12-27 03:43:00,
2013-12-26 22:44:00,25.5,18.1,30.28,WSW,242,3.0,6.0,73,0.00,,CLR,0.01,VWS V14.01,2013-12-27 03:44:00,
2013-12-26 22:45:00,25.4,18.0,30.28,WSW,243,3.0,6.0,73,0.00,,CLR,0.01,VWS V14.01,2013-12-27 03:45:00,
2013-12-26 22:46:00,25.3,17.9,30.28,West,277,3.0,6.0,73,0.00,,CLR,0.01,VWS V14.01,2013-12-27 03:46:00,
2013-12-26 22:47:00,25.7,18.3,30.28,West,271,3.0,7.0,73,0.00,,CLR,0.01,VWS V14.01,2013-12-27 03:47:00,
2013-12-26 22:48:00,25.2,17.8,30.28,West,272,2.0,6.0,73,0.00,,CLR,0.01,VWS V14.01,2013-12-27 03:48:00,
2013-12-26 22:49:00,25.1,17.7,30.28,West,279,4.0,6.0,73,0.00,,CLR,0.01,VWS V14.01,2013-12-27 03:49:00,
2013-12-26 22:50:00,25.1,17.7,30.28,West,268,10.0,10.0,73,0.00,,CLR,0.01,VWS V14.01,2013-12-27 03:50:00,
2013-12-26 22:51:00,25.2,18.1,30.28,WSW,257,6.0,10.0,74,0.00,,CLR,0.01,VWS V14.01,2013-12-27 03:51:00,
2013-12-26 22:52:00,25.4,18.0,30.28,WSW,249,3.0,6.0,73,0.00,,CLR,0.01,VWS V14.01,2013-12-27 03:52:00,
2013-12-26 22:53:00,25.2,18.1,30.28,West,271,4.0,10.0,74,0.00,,CLR,0.01,VWS V14.01,2013-12-27 03:53:00,
2013-12-26 22:54:00,25.2,18.1,30.28,West,272,2.0,10.0,74,0.00,,CLR,0.01,VWS V14.01,2013-12-27 03:54:00,
2013-12-26 22:55:00,25.2,18.1,30.28,West,268,8.0,10.0,74,0.00,,CLR,0.01,VWS V14.01,2013-12-27 03:55:00,
2013-12-26 22:56:00,25.3,18.2,30.28,West,265,6.0,10.0,74,0.00,,CLR,0.01,VWS V14.01,2013-12-27 03:56:00,
2013-12-26 22:57:00,25.3,17.9,30.28,West,264,4.0,6.0,73,0.00,,CLR,0.01,VWS V14.01,2013-12-27 03:57:00,
2013-12-26 22:58:00,25.4,18.3,30.28,West,275,3.0,10.0,74,0.00,,CLR,0.01,VWS V14.01,2013-12-27 03:58:00,
2013-12-26 22:59:00,25.4,18.3,30.29,WNW,291,4.0,10.0,74,0.00,,CLR,0.01,VWS V14.01,2013-12-27 03:59:00,
2013-12-26 23:00:00,25.3,18.2,30.29,West,269,4.0,4.0,74,0.00,,CLR,0.01,VWS V14.01,2013-12-27 04:00:00,
2013-12-26 23:01:00,25.3,18.2,30.29,West,274,3.0,5.0,74,0.00,,CLR,0.01,VWS V14.01,2013-12-27 04:01:00,
2013-12-26 23:02:00,25.2,18.1,30.28,West,271,4.0,10.0,74,0.00,,CLR,0.01,VWS V14.01,2013-12-27 04:02:00,
2013-12-26 23:03:00,25.2,18.1,30.29,West,275,1.0,7.0,74,0.00,,CLR,0.01,VWS V14.01,2013-12-27 04:03:00,
2013-12-26 23:04:00,25.2,18.1,30.29,West,269,3.0,7.0,74,0.00,,CLR,0.01,VWS V14.01,2013-12-27 04:04:00,
2013-12-26 23:05:00,25.1,18.0,30.29,WSW,250,4.0,7.0,74,0.00,,CLR,0.01,VWS V14.01,2013-12-27 04:05:00,
2013-12-26 23:06:00,25.1,18.0,30.29,West,259,4.0,7.0,74,0.00,,CLR,0.01,VWS V14.01,2013-12-27 04:06:00,
2013-12-26 23:07:00,25.4,18.3,30.28,WNW,285,6.0,10.0,74,0.00,,CLR,0.01,VWS V14.01,2013-12-27 04:07:00,
2013-12-26 23:08:00,25.2,18.1,30.29,WSW,238,4.0,7.0,74,0.00,,CLR,0.01,VWS V14.01,2013-12-27 04:08:00,
2013-12-26 23:09:00,25.2,18.1,30.29,WSW,250,5.0,7.0,74,0.00,,CLR,0.01,VWS V14.01,2013-12-27 04:09:00,
2013-12-26 23:10:00,25.2,18.1,30.29,West,267,7.0,8.0,74,0.00,,CLR,0.01,VWS V14.01,2013-12-27 04:10:00,
2013-12-26 23:11:00,25.3,18.2,30.29,WNW,292,4.0,9.0,74,0.00,,CLR,0.01,VWS V14.01,2013-12-27 04:11:00,
2013-12-26 23:12:00,25.2,18.1,30.29,West,279,6.0,7.0,74,0.00,,CLR,0.01,VWS V14.01,2013-12-27 04:12:00,
2013-12-26 23:13:00,25.3,18.2,30.29,West,267,3.0,9.0,74,0.00,,CLR,0.01,VWS V14.01,2013-12-27 04:13:00,
2013-12-26 23:14:00,25.2,18.1,30.29,West,260,1.0,9.0,74,0.00,,CLR,0.01,VWS V14.01,2013-12-27 04:14:00,
2013-12-26 23:15:00,25.1,18.0,30.29,WSW,248,5.0,9.0,74,0.00,,CLR,0.01,VWS V14.01,2013-12-27 04:15:00,
2013-12-26 23:16:00,25.1,18.0,30.29,WSW,257,2.0,9.0,74,0.00,,CLR,0.01,VWS V14.01,2013-12-27 04:16:00,
2013-12-26 23:17:00,25.2,18.1,30.29,West,263,2.0,7.0,74,0.00,,CLR,0.01,VWS V14.01,2013-12-27 04:17:00,
2013-12-26 23:18:00,25.0,17.9,30.29,WSW,238,4.0,9.0,74,0.00,,CLR,0.01,VWS V14.01,2013-12-27 04:18:00,
2013-12-26 23:19:00,25.0,17.9,30.29,WSW,257,4.0,9.0,74,0.00,,CLR,0.01,VWS V14.01,2013-12-27 04:19:00,
2013-12-26 23:20:00,25.0,18.2,30.29,WSW,254,1.0,4.0,75,0.00,,CLR,0.01,VWS V14.01,2013-12-27 04:20:00,
2013-12-26 23:21:00,25.1,18.3,30.29,WSW,254,0.0,4.0,75,0.00,,CLR,0.01,VWS V14.01,2013-12-27 04:21:00,
2013-12-26 23:22:00,25.3,18.2,30.29,West,263,3.0,9.0,74,0.00,,CLR,0.01,VWS V14.01,2013-12-27 04:22:00,
2013-12-26 23:23:00,25.0,18.2,30.29,WSW,237,2.0,4.0,75,0.00,,CLR,0.01,VWS V14.01,2013-12-27 04:23:00,
2013-12-26 23:24:00,25.0,18.2,30.29,WSW,237,2.0,4.0,75,0.00,,CLR,0.01,VWS V14.01,2013-12-27 04:24:00,
2013-12-26 23:25:00,25.0,18.2,30.29,SW,227,0.0,4.0,75,0.00,,CLR,0.01,VWS V14.01,2013-12-27 04:25:00,
2013-12-26 23:26:00,24.9,18.1,30.29,SW,227,0.0,4.0,75,0.00,,CLR,0.01,VWS V14.01,2013-12-27 04:26:00,
2013-12-26 23:27:00,25.1,18.0,30.29,SW,234,2.0,9.0,74,0.00,,CLR,0.01,VWS V14.01,2013-12-27 04:27:00,
2013-12-26 23:28:00,24.9,18.1,30.29,WSW,248,4.0,5.0,75,0.00,,CLR,0.01,VWS V14.01,2013-12-27 04:28:00,
2013-12-26 23:29:00,24.8,18.0,30.29,WSW,246,3.0,5.0,75,0.00,,CLR,0.01,VWS V14.01,2013-12-27 04:29:00,
2013-12-26 23:30:00,24.7,17.9,30.29,WSW,249,3.0,4.0,75,0.00,,CLR,0.01,VWS V14.01,2013-12-27 04:30:00,
2013-12-26 23:31:00,24.7,17.9,30.29,WSW,249,1.0,4.0,75,0.00,,CLR,0.01,VWS V14.01,2013-12-27 04:31:00,
2013-12-26 23:32:00,25.0,18.2,30.29,WSW,237,2.0,4.0,75,0.00,,CLR,0.01,VWS V14.01,2013-12-27 04:32:00,
2013-12-26 23:33:00,24.6,17.8,30.29,WSW,249,0.0,4.0,75,0.00,,CLR,0.01,VWS V14.01,2013-12-27 04:33:00,
2013-12-26 23:34:00,24.5,17.7,30.29,WSW,241,2.0,4.0,75,0.00,,CLR,0.01,VWS V14.01,2013-12-27 04:34:00,
2013-12-26 23:35:00,24.5,17.7,30.29,WSW,241,2.0,4.0,75,0.00,,CLR,0.01,VWS V14.01,2013-12-27 04:35:00,
2013-12-26 23:36:00,24.5,17.7,30.29,WSW,241,2.0,4.0,75,0.00,,CLR,0.01,VWS V14.01,2013-12-27 04:36:00,
2013-12-26 23:37:00,24.9,18.1,30.29,WSW,238,2.0,4.0,75,0.00,,CLR,0.01,VWS V14.01,2013-12-27 04:37:00,
2013-12-26 23:38:00,24.5,18.0,30.29,WSW,247,2.0,4.0,76,0.00,,CLR,0.01,VWS V14.01,2013-12-27 04:38:00,
2013-12-26 23:39:00,24.5,18.0,30.29,WSW,248,4.0,4.0,76,0.00,,CLR,0.01,VWS V14.01,2013-12-27 04:39:00,
2013-12-26 23:40:00,24.6,18.1,30.29,WSW,242,2.0,4.0,76,0.00,,CLR,0.01,VWS V14.01,2013-12-27 04:40:00,
2013-12-26 23:41:00,24.5,18.0,30.29,SW,227,4.0,4.0,76,0.00,,CLR,0.01,VWS V14.01,2013-12-27 04:41:00,
2013-12-26 23:42:00,24.6,17.8,30.29,WSW,249,1.0,4.0,75,0.00,,CLR,0.01,VWS V14.01,2013-12-27 04:42:00,
2013-12-26 23:43:00,24.7,18.2,30.29,WNW,284,5.0,10.0,76,0.00,,CLR,0.01,VWS V14.01,2013-12-27 04:43:00,
2013-12-26 23:44:00,24.8,18.3,30.30,SW,229,3.0,10.0,76,0.00,,CLR,0.01,VWS V14.01,2013-12-27 04:44:00,
2013-12-26 23:45:00,24.8,18.3,30.30,SW,225,1.0,10.0,76,0.00,,CLR,0.01,VWS V14.01,2013-12-27 04:45:00,
2013-12-26 23:46:00,24.8,18.3,30.30,SW,225,2.0,10.0,76,0.00,,CLR,0.01,VWS V14.01,2013-12-27 04:46:00,
2013-12-26 23:47:00,24.5,17.7,30.29,WSW,247,0.0,4.0,75,0.00,,CLR,0.01,VWS V14.01,2013-12-27 04:47:00,
2013-12-26 23:48:00,24.8,18.3,30.30,WSW,243,5.0,10.0,76,0.00,,CLR,0.01,VWS V14.01,2013-12-27 04:48:00,
2013-12-26 23:49:00,24.8,18.3,30.30,WSW,244,4.0,10.0,76,0.00,,CLR,0.01,VWS V14.01,2013-12-27 04:49:00,
2013-12-26 23:50:00,24.8,18.3,30.30,West,260,4.0,6.0,76,0.00,,CLR,0.01,VWS V14.01,2013-12-27 04:50:00,
2013-12-26 23:51:00,24.9,18.4,30.30,WSW,254,4.0,6.0,76,0.00,,CLR,0.01,VWS V14.01,2013-12-27 04:51:00,
2013-12-26 23:52:00,24.7,18.2,30.29,WSW,258,2.0,10.0,76,0.00,,CLR,0.01,VWS V14.01,2013-12-27 04:52:00,
2013-12-26 23:53:00,24.7,17.9,30.30,West,269,2.0,6.0,75,0.00,,CLR,0.01,VWS V14.01,2013-12-27 04:53:00,
2013-12-26 23:54:00,24.5,17.7,30.30,West,259,2.0,6.0,75,0.00,,CLR,0.01,VWS V14.01,2013-12-27 04:54:00,
2013-12-26 23:55:00,24.4,17.6,30.30,WSW,242,1.0,6.0,75,0.00,,CLR,0.01,VWS V14.01,2013-12-27 04:55:00,
2013-12-26 23:56:00,24.4,17.6,30.30,WSW,243,2.0,6.0,75,0.00,,CLR,0.01,VWS V14.01,2013-12-27 04:56:00,
2013-12-26 23:57:00,24.8,18.3,30.30,WSW,250,7.0,10.0,76,0.00,,CLR,0.01,VWS V14.01,2013-12-27 04:57:00,
2013-12-26 23:58:00,24.4,17.9,30.30,SW,234,2.0,6.0,76,0.00,,CLR,0.01,VWS V14.01,2013-12-27 04:58:00,
2013-12-26 23:59:00,24.4,17.9,30.30,WSW,256,1.0,6.0,76,0.00,,CLR,0.01,VWS V14.01,2013-12-27 04:59:00,